<?xml version="1.0" encoding="UTF-8" standalone="no" ?>
<gpx xmlns="http://www.topografix.com/GPX/1/1" xmlns:xsi="http://www.w3.org/2001/XMLSchema-instance" xsi:schemaLocation="http://www.topografix.com/GPX/1/1 http://www.topografix.com/GPX/1/1/gpx.xsd" version="1.1" creator="VisuGPX - https://www.visugpx.com">
  <metadata>
    <name>de aumont aubrac a nasbinal</name>
    <desc><![CDATA[Trace AlpineQuest 11/09/2012, 08:04:12]]></desc>
  </metadata>
  <wpt lat="44.7067" lon="3.1927">
    <ele>1230</ele>
    <name><![CDATA[4 chemins]]></name>
  </wpt>
  <trk>
    <name><![CDATA[Aumont aubrac a Nasbinal]]></name>
    <trkseg>
      <trkpt lat="44.72151" lon="3.28322">
        <ele>1181</ele>
        <time>2012-09-11T06:04:12Z</time>
      </trkpt>
      <trkpt lat="44.72149" lon="3.28306">
        <ele>1179</ele>
        <time>2012-09-11T06:04:27Z</time>
      </trkpt>
      <trkpt lat="44.7216" lon="3.28304">
        <ele>1164</ele>
        <time>2012-09-11T06:05:08Z</time>
      </trkpt>
      <trkpt lat="44.72156" lon="3.28312">
        <ele>1174</ele>
        <time>2012-09-11T06:05:27Z</time>
      </trkpt>
      <trkpt lat="44.72141" lon="3.28273">
        <ele>1159</ele>
        <time>2012-09-11T06:05:37Z</time>
      </trkpt>
      <trkpt lat="44.72121" lon="3.28257">
        <ele>1110</ele>
        <time>2012-09-11T06:05:48Z</time>
      </trkpt>
      <trkpt lat="44.72112" lon="3.28246">
        <ele>1141</ele>
        <time>2012-09-11T06:06:01Z</time>
      </trkpt>
      <trkpt lat="44.72112" lon="3.28242">
        <ele>1145</ele>
        <time>2012-09-11T06:06:13Z</time>
      </trkpt>
      <trkpt lat="44.72093" lon="3.28233">
        <ele>1157</ele>
        <time>2012-09-11T06:06:27Z</time>
      </trkpt>
      <trkpt lat="44.72075" lon="3.28218">
        <ele>1126</ele>
        <time>2012-09-11T06:06:37Z</time>
      </trkpt>
      <trkpt lat="44.72065" lon="3.28206">
        <ele>1111</ele>
        <time>2012-09-11T06:06:47Z</time>
      </trkpt>
      <trkpt lat="44.72051" lon="3.28209">
        <ele>1111</ele>
        <time>2012-09-11T06:06:59Z</time>
      </trkpt>
      <trkpt lat="44.72036" lon="3.28219">
        <ele>1110</ele>
        <time>2012-09-11T06:07:10Z</time>
      </trkpt>
      <trkpt lat="44.72023" lon="3.28222">
        <ele>1105</ele>
        <time>2012-09-11T06:07:20Z</time>
      </trkpt>
      <trkpt lat="44.7201" lon="3.28202">
        <ele>1092</ele>
        <time>2012-09-11T06:07:32Z</time>
      </trkpt>
      <trkpt lat="44.71996" lon="3.28189">
        <ele>1154</ele>
        <time>2012-09-11T06:07:44Z</time>
      </trkpt>
      <trkpt lat="44.71989" lon="3.28182">
        <ele>1108</ele>
        <time>2012-09-11T06:07:55Z</time>
      </trkpt>
      <trkpt lat="44.71989" lon="3.28174">
        <ele>1091</ele>
        <time>2012-09-11T06:08:05Z</time>
      </trkpt>
      <trkpt lat="44.71977" lon="3.28179">
        <ele>1086</ele>
        <time>2012-09-11T06:08:18Z</time>
      </trkpt>
      <trkpt lat="44.71965" lon="3.28184">
        <ele>1090</ele>
        <time>2012-09-11T06:08:29Z</time>
      </trkpt>
      <trkpt lat="44.71948" lon="3.28186">
        <ele>1085</ele>
        <time>2012-09-11T06:08:41Z</time>
      </trkpt>
      <trkpt lat="44.71935" lon="3.28191">
        <ele>1088</ele>
        <time>2012-09-11T06:08:51Z</time>
      </trkpt>
      <trkpt lat="44.71921" lon="3.282">
        <ele>1090</ele>
        <time>2012-09-11T06:09:03Z</time>
      </trkpt>
      <trkpt lat="44.71907" lon="3.28204">
        <ele>1095</ele>
        <time>2012-09-11T06:09:14Z</time>
      </trkpt>
      <trkpt lat="44.71894" lon="3.28214">
        <ele>1086</ele>
        <time>2012-09-11T06:09:25Z</time>
      </trkpt>
      <trkpt lat="44.71881" lon="3.28225">
        <ele>1083</ele>
        <time>2012-09-11T06:09:37Z</time>
      </trkpt>
      <trkpt lat="44.71868" lon="3.28237">
        <ele>1088</ele>
        <time>2012-09-11T06:09:48Z</time>
      </trkpt>
      <trkpt lat="44.71856" lon="3.28246">
        <ele>1079</ele>
        <time>2012-09-11T06:10:01Z</time>
      </trkpt>
      <trkpt lat="44.71846" lon="3.28258">
        <ele>1083</ele>
        <time>2012-09-11T06:10:13Z</time>
      </trkpt>
      <trkpt lat="44.71837" lon="3.28271">
        <ele>1080</ele>
        <time>2012-09-11T06:10:23Z</time>
      </trkpt>
      <trkpt lat="44.71827" lon="3.28282">
        <ele>1079</ele>
        <time>2012-09-11T06:10:33Z</time>
      </trkpt>
      <trkpt lat="44.71818" lon="3.28296">
        <ele>1076</ele>
        <time>2012-09-11T06:10:45Z</time>
      </trkpt>
      <trkpt lat="44.71808" lon="3.28307">
        <ele>1071</ele>
        <time>2012-09-11T06:10:56Z</time>
      </trkpt>
      <trkpt lat="44.71797" lon="3.28319">
        <ele>1073</ele>
        <time>2012-09-11T06:11:08Z</time>
      </trkpt>
      <trkpt lat="44.7179" lon="3.28331">
        <ele>1079</ele>
        <time>2012-09-11T06:11:18Z</time>
      </trkpt>
      <trkpt lat="44.71782" lon="3.28347">
        <ele>1081</ele>
        <time>2012-09-11T06:11:29Z</time>
      </trkpt>
      <trkpt lat="44.71769" lon="3.28364">
        <ele>1085</ele>
        <time>2012-09-11T06:11:41Z</time>
      </trkpt>
      <trkpt lat="44.71759" lon="3.28373">
        <ele>1090</ele>
        <time>2012-09-11T06:11:53Z</time>
      </trkpt>
      <trkpt lat="44.71745" lon="3.28377">
        <ele>1090</ele>
        <time>2012-09-11T06:12:05Z</time>
      </trkpt>
      <trkpt lat="44.71732" lon="3.28376">
        <ele>1092</ele>
        <time>2012-09-11T06:12:16Z</time>
      </trkpt>
      <trkpt lat="44.71719" lon="3.28369">
        <ele>1090</ele>
        <time>2012-09-11T06:12:28Z</time>
      </trkpt>
      <trkpt lat="44.71711" lon="3.28362">
        <ele>1097</ele>
        <time>2012-09-11T06:12:38Z</time>
      </trkpt>
      <trkpt lat="44.717" lon="3.2835">
        <ele>1095</ele>
        <time>2012-09-11T06:12:49Z</time>
      </trkpt>
      <trkpt lat="44.71694" lon="3.28338">
        <ele>1086</ele>
        <time>2012-09-11T06:13:01Z</time>
      </trkpt>
      <trkpt lat="44.71688" lon="3.28321">
        <ele>1084</ele>
        <time>2012-09-11T06:13:12Z</time>
      </trkpt>
      <trkpt lat="44.7168" lon="3.28305">
        <ele>1084</ele>
        <time>2012-09-11T06:13:23Z</time>
      </trkpt>
      <trkpt lat="44.71676" lon="3.28289">
        <ele>1085</ele>
        <time>2012-09-11T06:13:35Z</time>
      </trkpt>
      <trkpt lat="44.71672" lon="3.28273">
        <ele>1084</ele>
        <time>2012-09-11T06:13:47Z</time>
      </trkpt>
      <trkpt lat="44.71668" lon="3.28256">
        <ele>1084</ele>
        <time>2012-09-11T06:14:00Z</time>
      </trkpt>
      <trkpt lat="44.7166" lon="3.28242">
        <ele>1087</ele>
        <time>2012-09-11T06:14:12Z</time>
      </trkpt>
      <trkpt lat="44.71656" lon="3.28226">
        <ele>1086</ele>
        <time>2012-09-11T06:14:24Z</time>
      </trkpt>
      <trkpt lat="44.71645" lon="3.28213">
        <ele>1091</ele>
        <time>2012-09-11T06:14:35Z</time>
      </trkpt>
      <trkpt lat="44.71634" lon="3.28202">
        <ele>1094</ele>
        <time>2012-09-11T06:14:47Z</time>
      </trkpt>
      <trkpt lat="44.71623" lon="3.2819">
        <ele>1088</ele>
        <time>2012-09-11T06:14:59Z</time>
      </trkpt>
      <trkpt lat="44.71615" lon="3.28183">
        <ele>1089</ele>
        <time>2012-09-11T06:15:09Z</time>
      </trkpt>
      <trkpt lat="44.71607" lon="3.28174">
        <ele>1100</ele>
        <time>2012-09-11T06:15:20Z</time>
      </trkpt>
      <trkpt lat="44.71593" lon="3.28163">
        <ele>1103</ele>
        <time>2012-09-11T06:15:32Z</time>
      </trkpt>
      <trkpt lat="44.71585" lon="3.28157">
        <ele>1110</ele>
        <time>2012-09-11T06:15:44Z</time>
      </trkpt>
      <trkpt lat="44.71578" lon="3.2815">
        <ele>1107</ele>
        <time>2012-09-11T06:15:56Z</time>
      </trkpt>
      <trkpt lat="44.71568" lon="3.28142">
        <ele>1109</ele>
        <time>2012-09-11T06:16:07Z</time>
      </trkpt>
      <trkpt lat="44.71558" lon="3.28136">
        <ele>1107</ele>
        <time>2012-09-11T06:16:21Z</time>
      </trkpt>
      <trkpt lat="44.71549" lon="3.28125">
        <ele>1109</ele>
        <time>2012-09-11T06:16:33Z</time>
      </trkpt>
      <trkpt lat="44.7154" lon="3.28118">
        <ele>1113</ele>
        <time>2012-09-11T06:16:46Z</time>
      </trkpt>
      <trkpt lat="44.71529" lon="3.28109">
        <ele>1111</ele>
        <time>2012-09-11T06:16:58Z</time>
      </trkpt>
      <trkpt lat="44.71523" lon="3.28099">
        <ele>1126</ele>
        <time>2012-09-11T06:17:11Z</time>
      </trkpt>
      <trkpt lat="44.71512" lon="3.2809">
        <ele>1123</ele>
        <time>2012-09-11T06:17:22Z</time>
      </trkpt>
      <trkpt lat="44.71502" lon="3.28078">
        <ele>1124</ele>
        <time>2012-09-11T06:17:34Z</time>
      </trkpt>
      <trkpt lat="44.71491" lon="3.28066">
        <ele>1123</ele>
        <time>2012-09-11T06:17:45Z</time>
      </trkpt>
      <trkpt lat="44.71483" lon="3.28055">
        <ele>1119</ele>
        <time>2012-09-11T06:17:58Z</time>
      </trkpt>
      <trkpt lat="44.71481" lon="3.28059">
        <ele>1123</ele>
        <time>2012-09-11T06:18:37Z</time>
      </trkpt>
      <trkpt lat="44.71478" lon="3.28058">
        <ele>1122</ele>
        <time>2012-09-11T06:19:02Z</time>
      </trkpt>
      <trkpt lat="44.71471" lon="3.28048">
        <ele>1130</ele>
        <time>2012-09-11T06:19:14Z</time>
      </trkpt>
      <trkpt lat="44.71472" lon="3.28044">
        <ele>1119</ele>
        <time>2012-09-11T06:19:31Z</time>
      </trkpt>
      <trkpt lat="44.71477" lon="3.28042">
        <ele>1120</ele>
        <time>2012-09-11T06:19:43Z</time>
      </trkpt>
      <trkpt lat="44.71473" lon="3.28045">
        <ele>1121</ele>
        <time>2012-09-11T06:19:57Z</time>
      </trkpt>
      <trkpt lat="44.71466" lon="3.28041">
        <ele>1135</ele>
        <time>2012-09-11T06:20:20Z</time>
      </trkpt>
      <trkpt lat="44.71463" lon="3.28039">
        <ele>1132</ele>
        <time>2012-09-11T06:20:31Z</time>
      </trkpt>
      <trkpt lat="44.71454" lon="3.28022">
        <ele>1121</ele>
        <time>2012-09-11T06:20:43Z</time>
      </trkpt>
      <trkpt lat="44.71447" lon="3.28018">
        <ele>1132</ele>
        <time>2012-09-11T06:21:19Z</time>
      </trkpt>
      <trkpt lat="44.71446" lon="3.28013">
        <ele>1126</ele>
        <time>2012-09-11T06:21:35Z</time>
      </trkpt>
      <trkpt lat="44.71439" lon="3.27997">
        <ele>1118</ele>
        <time>2012-09-11T06:21:45Z</time>
      </trkpt>
      <trkpt lat="44.71428" lon="3.27983">
        <ele>1119</ele>
        <time>2012-09-11T06:21:56Z</time>
      </trkpt>
      <trkpt lat="44.71421" lon="3.27969">
        <ele>1120</ele>
        <time>2012-09-11T06:22:08Z</time>
      </trkpt>
      <trkpt lat="44.71421" lon="3.2795">
        <ele>1124</ele>
        <time>2012-09-11T06:22:20Z</time>
      </trkpt>
      <trkpt lat="44.71419" lon="3.27937">
        <ele>1121</ele>
        <time>2012-09-11T06:22:30Z</time>
      </trkpt>
      <trkpt lat="44.71418" lon="3.27919">
        <ele>1121</ele>
        <time>2012-09-11T06:22:41Z</time>
      </trkpt>
      <trkpt lat="44.71418" lon="3.27899">
        <ele>1120</ele>
        <time>2012-09-11T06:22:54Z</time>
      </trkpt>
      <trkpt lat="44.71419" lon="3.27881">
        <ele>1123</ele>
        <time>2012-09-11T06:23:05Z</time>
      </trkpt>
      <trkpt lat="44.71421" lon="3.27864">
        <ele>1125</ele>
        <time>2012-09-11T06:23:16Z</time>
      </trkpt>
      <trkpt lat="44.71423" lon="3.27851">
        <ele>1125</ele>
        <time>2012-09-11T06:23:28Z</time>
      </trkpt>
      <trkpt lat="44.71423" lon="3.27833">
        <ele>1126</ele>
        <time>2012-09-11T06:23:38Z</time>
      </trkpt>
      <trkpt lat="44.71421" lon="3.27815">
        <ele>1131</ele>
        <time>2012-09-11T06:23:49Z</time>
      </trkpt>
      <trkpt lat="44.7142" lon="3.27795">
        <ele>1123</ele>
        <time>2012-09-11T06:23:59Z</time>
      </trkpt>
      <trkpt lat="44.71417" lon="3.27772">
        <ele>1127</ele>
        <time>2012-09-11T06:24:10Z</time>
      </trkpt>
      <trkpt lat="44.71412" lon="3.2775">
        <ele>1122</ele>
        <time>2012-09-11T06:24:22Z</time>
      </trkpt>
      <trkpt lat="44.7141" lon="3.27731">
        <ele>1116</ele>
        <time>2012-09-11T06:24:33Z</time>
      </trkpt>
      <trkpt lat="44.71408" lon="3.27712">
        <ele>1116</ele>
        <time>2012-09-11T06:24:45Z</time>
      </trkpt>
      <trkpt lat="44.71406" lon="3.27694">
        <ele>1121</ele>
        <time>2012-09-11T06:24:56Z</time>
      </trkpt>
      <trkpt lat="44.71406" lon="3.27673">
        <ele>1119</ele>
        <time>2012-09-11T06:25:07Z</time>
      </trkpt>
      <trkpt lat="44.71404" lon="3.27655">
        <ele>1128</ele>
        <time>2012-09-11T06:25:20Z</time>
      </trkpt>
      <trkpt lat="44.71399" lon="3.27634">
        <ele>1118</ele>
        <time>2012-09-11T06:25:31Z</time>
      </trkpt>
      <trkpt lat="44.71393" lon="3.27616">
        <ele>1122</ele>
        <time>2012-09-11T06:25:43Z</time>
      </trkpt>
      <trkpt lat="44.71385" lon="3.27598">
        <ele>1126</ele>
        <time>2012-09-11T06:25:55Z</time>
      </trkpt>
      <trkpt lat="44.71379" lon="3.27581">
        <ele>1125</ele>
        <time>2012-09-11T06:26:06Z</time>
      </trkpt>
      <trkpt lat="44.71374" lon="3.27564">
        <ele>1117</ele>
        <time>2012-09-11T06:26:17Z</time>
      </trkpt>
      <trkpt lat="44.71367" lon="3.2755">
        <ele>1123</ele>
        <time>2012-09-11T06:26:30Z</time>
      </trkpt>
      <trkpt lat="44.71361" lon="3.27532">
        <ele>1124</ele>
        <time>2012-09-11T06:26:42Z</time>
      </trkpt>
      <trkpt lat="44.71351" lon="3.2752">
        <ele>1116</ele>
        <time>2012-09-11T06:26:53Z</time>
      </trkpt>
      <trkpt lat="44.71344" lon="3.275">
        <ele>1121</ele>
        <time>2012-09-11T06:27:05Z</time>
      </trkpt>
      <trkpt lat="44.71332" lon="3.27489">
        <ele>1122</ele>
        <time>2012-09-11T06:27:15Z</time>
      </trkpt>
      <trkpt lat="44.71322" lon="3.27472">
        <ele>1119</ele>
        <time>2012-09-11T06:27:27Z</time>
      </trkpt>
      <trkpt lat="44.7131" lon="3.2746">
        <ele>1124</ele>
        <time>2012-09-11T06:27:38Z</time>
      </trkpt>
      <trkpt lat="44.71302" lon="3.27448">
        <ele>1121</ele>
        <time>2012-09-11T06:27:49Z</time>
      </trkpt>
      <trkpt lat="44.71292" lon="3.27436">
        <ele>1116</ele>
        <time>2012-09-11T06:28:01Z</time>
      </trkpt>
      <trkpt lat="44.7129" lon="3.27432">
        <ele>1109</ele>
        <time>2012-09-11T06:28:11Z</time>
      </trkpt>
      <trkpt lat="44.71287" lon="3.27428">
        <ele>1115</ele>
        <time>2012-09-11T06:28:30Z</time>
      </trkpt>
      <trkpt lat="44.71273" lon="3.27417">
        <ele>1118</ele>
        <time>2012-09-11T06:28:43Z</time>
      </trkpt>
      <trkpt lat="44.71264" lon="3.27404">
        <ele>1114</ele>
        <time>2012-09-11T06:28:54Z</time>
      </trkpt>
      <trkpt lat="44.71253" lon="3.27386">
        <ele>1114</ele>
        <time>2012-09-11T06:29:07Z</time>
      </trkpt>
      <trkpt lat="44.71247" lon="3.2737">
        <ele>1118</ele>
        <time>2012-09-11T06:29:18Z</time>
      </trkpt>
      <trkpt lat="44.71239" lon="3.27355">
        <ele>1120</ele>
        <time>2012-09-11T06:29:30Z</time>
      </trkpt>
      <trkpt lat="44.71234" lon="3.27341">
        <ele>1111</ele>
        <time>2012-09-11T06:29:40Z</time>
      </trkpt>
      <trkpt lat="44.71223" lon="3.27325">
        <ele>1118</ele>
        <time>2012-09-11T06:29:52Z</time>
      </trkpt>
      <trkpt lat="44.71209" lon="3.27316">
        <ele>1113</ele>
        <time>2012-09-11T06:30:03Z</time>
      </trkpt>
      <trkpt lat="44.71196" lon="3.27307">
        <ele>1112</ele>
        <time>2012-09-11T06:30:15Z</time>
      </trkpt>
      <trkpt lat="44.71181" lon="3.27298">
        <ele>1117</ele>
        <time>2012-09-11T06:30:27Z</time>
      </trkpt>
      <trkpt lat="44.71162" lon="3.27299">
        <ele>1118</ele>
        <time>2012-09-11T06:30:38Z</time>
      </trkpt>
      <trkpt lat="44.7115" lon="3.27305">
        <ele>1114</ele>
        <time>2012-09-11T06:30:48Z</time>
      </trkpt>
      <trkpt lat="44.71139" lon="3.27314">
        <ele>1111</ele>
        <time>2012-09-11T06:30:58Z</time>
      </trkpt>
      <trkpt lat="44.71131" lon="3.27319">
        <ele>1113</ele>
        <time>2012-09-11T06:31:09Z</time>
      </trkpt>
      <trkpt lat="44.71123" lon="3.27326">
        <ele>1114</ele>
        <time>2012-09-11T06:31:19Z</time>
      </trkpt>
      <trkpt lat="44.71113" lon="3.27332">
        <ele>1103</ele>
        <time>2012-09-11T06:31:32Z</time>
      </trkpt>
      <trkpt lat="44.71098" lon="3.27282">
        <ele>1122</ele>
        <time>2012-09-11T06:32:15Z</time>
      </trkpt>
      <trkpt lat="44.71103" lon="3.27267">
        <ele>1121</ele>
        <time>2012-09-11T06:32:26Z</time>
      </trkpt>
      <trkpt lat="44.71115" lon="3.27265">
        <ele>1115</ele>
        <time>2012-09-11T06:32:36Z</time>
      </trkpt>
      <trkpt lat="44.7113" lon="3.27257">
        <ele>1110</ele>
        <time>2012-09-11T06:32:48Z</time>
      </trkpt>
      <trkpt lat="44.71119" lon="3.27239">
        <ele>1119</ele>
        <time>2012-09-11T06:33:00Z</time>
      </trkpt>
      <trkpt lat="44.71112" lon="3.27219">
        <ele>1117</ele>
        <time>2012-09-11T06:33:12Z</time>
      </trkpt>
      <trkpt lat="44.71101" lon="3.27206">
        <ele>1115</ele>
        <time>2012-09-11T06:33:24Z</time>
      </trkpt>
      <trkpt lat="44.71088" lon="3.27195">
        <ele>1116</ele>
        <time>2012-09-11T06:33:35Z</time>
      </trkpt>
      <trkpt lat="44.71077" lon="3.2718">
        <ele>1116</ele>
        <time>2012-09-11T06:33:47Z</time>
      </trkpt>
      <trkpt lat="44.7107" lon="3.27164">
        <ele>1115</ele>
        <time>2012-09-11T06:33:59Z</time>
      </trkpt>
      <trkpt lat="44.71059" lon="3.2715">
        <ele>1115</ele>
        <time>2012-09-11T06:34:11Z</time>
      </trkpt>
      <trkpt lat="44.71046" lon="3.27139">
        <ele>1118</ele>
        <time>2012-09-11T06:34:23Z</time>
      </trkpt>
      <trkpt lat="44.71037" lon="3.27123">
        <ele>1120</ele>
        <time>2012-09-11T06:34:35Z</time>
      </trkpt>
      <trkpt lat="44.71028" lon="3.27109">
        <ele>1116</ele>
        <time>2012-09-11T06:34:46Z</time>
      </trkpt>
      <trkpt lat="44.71016" lon="3.27096">
        <ele>1118</ele>
        <time>2012-09-11T06:34:58Z</time>
      </trkpt>
      <trkpt lat="44.71006" lon="3.27082">
        <ele>1117</ele>
        <time>2012-09-11T06:35:09Z</time>
      </trkpt>
      <trkpt lat="44.70999" lon="3.27073">
        <ele>1118</ele>
        <time>2012-09-11T06:35:19Z</time>
      </trkpt>
      <trkpt lat="44.70986" lon="3.27061">
        <ele>1118</ele>
        <time>2012-09-11T06:35:30Z</time>
      </trkpt>
      <trkpt lat="44.70974" lon="3.27048">
        <ele>1125</ele>
        <time>2012-09-11T06:35:40Z</time>
      </trkpt>
      <trkpt lat="44.70961" lon="3.27037">
        <ele>1117</ele>
        <time>2012-09-11T06:35:52Z</time>
      </trkpt>
      <trkpt lat="44.7095" lon="3.27027">
        <ele>1117</ele>
        <time>2012-09-11T06:36:05Z</time>
      </trkpt>
      <trkpt lat="44.70939" lon="3.27017">
        <ele>1121</ele>
        <time>2012-09-11T06:36:16Z</time>
      </trkpt>
      <trkpt lat="44.70923" lon="3.2701">
        <ele>1118</ele>
        <time>2012-09-11T06:36:27Z</time>
      </trkpt>
      <trkpt lat="44.70911" lon="3.27003">
        <ele>1118</ele>
        <time>2012-09-11T06:36:38Z</time>
      </trkpt>
      <trkpt lat="44.70898" lon="3.26994">
        <ele>1118</ele>
        <time>2012-09-11T06:36:49Z</time>
      </trkpt>
      <trkpt lat="44.70885" lon="3.26987">
        <ele>1117</ele>
        <time>2012-09-11T06:37:00Z</time>
      </trkpt>
      <trkpt lat="44.70869" lon="3.26976">
        <ele>1117</ele>
        <time>2012-09-11T06:37:12Z</time>
      </trkpt>
      <trkpt lat="44.70858" lon="3.26968">
        <ele>1114</ele>
        <time>2012-09-11T06:37:24Z</time>
      </trkpt>
      <trkpt lat="44.70843" lon="3.2696">
        <ele>1119</ele>
        <time>2012-09-11T06:37:36Z</time>
      </trkpt>
      <trkpt lat="44.70829" lon="3.26955">
        <ele>1119</ele>
        <time>2012-09-11T06:37:47Z</time>
      </trkpt>
      <trkpt lat="44.70816" lon="3.26952">
        <ele>1114</ele>
        <time>2012-09-11T06:37:59Z</time>
      </trkpt>
      <trkpt lat="44.70801" lon="3.2695">
        <ele>1107</ele>
        <time>2012-09-11T06:38:10Z</time>
      </trkpt>
      <trkpt lat="44.70787" lon="3.26946">
        <ele>1112</ele>
        <time>2012-09-11T06:38:21Z</time>
      </trkpt>
      <trkpt lat="44.70773" lon="3.26938">
        <ele>1109</ele>
        <time>2012-09-11T06:38:33Z</time>
      </trkpt>
      <trkpt lat="44.70757" lon="3.26934">
        <ele>1112</ele>
        <time>2012-09-11T06:38:45Z</time>
      </trkpt>
      <trkpt lat="44.70743" lon="3.26935">
        <ele>1109</ele>
        <time>2012-09-11T06:38:55Z</time>
      </trkpt>
      <trkpt lat="44.70728" lon="3.26931">
        <ele>1110</ele>
        <time>2012-09-11T06:39:07Z</time>
      </trkpt>
      <trkpt lat="44.70713" lon="3.26928">
        <ele>1117</ele>
        <time>2012-09-11T06:39:17Z</time>
      </trkpt>
      <trkpt lat="44.70699" lon="3.26925">
        <ele>1101</ele>
        <time>2012-09-11T06:39:28Z</time>
      </trkpt>
      <trkpt lat="44.70685" lon="3.26923">
        <ele>1103</ele>
        <time>2012-09-11T06:39:39Z</time>
      </trkpt>
      <trkpt lat="44.70668" lon="3.26918">
        <ele>1109</ele>
        <time>2012-09-11T06:39:50Z</time>
      </trkpt>
      <trkpt lat="44.70657" lon="3.26912">
        <ele>1107</ele>
        <time>2012-09-11T06:40:00Z</time>
      </trkpt>
      <trkpt lat="44.70643" lon="3.26907">
        <ele>1104</ele>
        <time>2012-09-11T06:40:11Z</time>
      </trkpt>
      <trkpt lat="44.70627" lon="3.269">
        <ele>1105</ele>
        <time>2012-09-11T06:40:22Z</time>
      </trkpt>
      <trkpt lat="44.70615" lon="3.26892">
        <ele>1106</ele>
        <time>2012-09-11T06:40:33Z</time>
      </trkpt>
      <trkpt lat="44.70603" lon="3.26885">
        <ele>1105</ele>
        <time>2012-09-11T06:40:45Z</time>
      </trkpt>
      <trkpt lat="44.70594" lon="3.26879">
        <ele>1102</ele>
        <time>2012-09-11T06:41:09Z</time>
      </trkpt>
      <trkpt lat="44.70581" lon="3.2687">
        <ele>1108</ele>
        <time>2012-09-11T06:41:19Z</time>
      </trkpt>
      <trkpt lat="44.70568" lon="3.26865">
        <ele>1106</ele>
        <time>2012-09-11T06:41:29Z</time>
      </trkpt>
      <trkpt lat="44.70557" lon="3.26857">
        <ele>1105</ele>
        <time>2012-09-11T06:41:39Z</time>
      </trkpt>
      <trkpt lat="44.70547" lon="3.26847">
        <ele>1108</ele>
        <time>2012-09-11T06:41:49Z</time>
      </trkpt>
      <trkpt lat="44.70535" lon="3.26837">
        <ele>1106</ele>
        <time>2012-09-11T06:42:00Z</time>
      </trkpt>
      <trkpt lat="44.70521" lon="3.26837">
        <ele>1105</ele>
        <time>2012-09-11T06:42:11Z</time>
      </trkpt>
      <trkpt lat="44.70509" lon="3.26836">
        <ele>1102</ele>
        <time>2012-09-11T06:42:21Z</time>
      </trkpt>
      <trkpt lat="44.70496" lon="3.26835">
        <ele>1105</ele>
        <time>2012-09-11T06:42:33Z</time>
      </trkpt>
      <trkpt lat="44.70479" lon="3.26836">
        <ele>1103</ele>
        <time>2012-09-11T06:42:44Z</time>
      </trkpt>
      <trkpt lat="44.70464" lon="3.2684">
        <ele>1105</ele>
        <time>2012-09-11T06:42:56Z</time>
      </trkpt>
      <trkpt lat="44.7045" lon="3.26843">
        <ele>1109</ele>
        <time>2012-09-11T06:43:07Z</time>
      </trkpt>
      <trkpt lat="44.70446" lon="3.26843">
        <ele>1098</ele>
        <time>2012-09-11T06:43:22Z</time>
      </trkpt>
      <trkpt lat="44.70434" lon="3.26841">
        <ele>1101</ele>
        <time>2012-09-11T06:43:33Z</time>
      </trkpt>
      <trkpt lat="44.70418" lon="3.26845">
        <ele>1102</ele>
        <time>2012-09-11T06:43:45Z</time>
      </trkpt>
      <trkpt lat="44.70403" lon="3.26844">
        <ele>1099</ele>
        <time>2012-09-11T06:43:57Z</time>
      </trkpt>
      <trkpt lat="44.70388" lon="3.26846">
        <ele>1100</ele>
        <time>2012-09-11T06:44:09Z</time>
      </trkpt>
      <trkpt lat="44.70374" lon="3.26847">
        <ele>1101</ele>
        <time>2012-09-11T06:44:20Z</time>
      </trkpt>
      <trkpt lat="44.70359" lon="3.26846">
        <ele>1101</ele>
        <time>2012-09-11T06:44:31Z</time>
      </trkpt>
      <trkpt lat="44.70345" lon="3.26841">
        <ele>1101</ele>
        <time>2012-09-11T06:44:41Z</time>
      </trkpt>
      <trkpt lat="44.70328" lon="3.2684">
        <ele>1098</ele>
        <time>2012-09-11T06:44:55Z</time>
      </trkpt>
      <trkpt lat="44.70313" lon="3.2684">
        <ele>1099</ele>
        <time>2012-09-11T06:45:06Z</time>
      </trkpt>
      <trkpt lat="44.703" lon="3.26836">
        <ele>1099</ele>
        <time>2012-09-11T06:45:18Z</time>
      </trkpt>
      <trkpt lat="44.70286" lon="3.26832">
        <ele>1099</ele>
        <time>2012-09-11T06:45:30Z</time>
      </trkpt>
      <trkpt lat="44.7027" lon="3.26832">
        <ele>1098</ele>
        <time>2012-09-11T06:45:40Z</time>
      </trkpt>
      <trkpt lat="44.70255" lon="3.2683">
        <ele>1097</ele>
        <time>2012-09-11T06:45:52Z</time>
      </trkpt>
      <trkpt lat="44.70239" lon="3.26828">
        <ele>1097</ele>
        <time>2012-09-11T06:46:03Z</time>
      </trkpt>
      <trkpt lat="44.70226" lon="3.26825">
        <ele>1095</ele>
        <time>2012-09-11T06:46:14Z</time>
      </trkpt>
      <trkpt lat="44.7021" lon="3.2682">
        <ele>1097</ele>
        <time>2012-09-11T06:46:25Z</time>
      </trkpt>
      <trkpt lat="44.70197" lon="3.26817">
        <ele>1098</ele>
        <time>2012-09-11T06:46:36Z</time>
      </trkpt>
      <trkpt lat="44.70185" lon="3.26813">
        <ele>1097</ele>
        <time>2012-09-11T06:46:47Z</time>
      </trkpt>
      <trkpt lat="44.70171" lon="3.26808">
        <ele>1098</ele>
        <time>2012-09-11T06:46:58Z</time>
      </trkpt>
      <trkpt lat="44.70158" lon="3.26807">
        <ele>1093</ele>
        <time>2012-09-11T06:47:09Z</time>
      </trkpt>
      <trkpt lat="44.70141" lon="3.26805">
        <ele>1096</ele>
        <time>2012-09-11T06:47:22Z</time>
      </trkpt>
      <trkpt lat="44.70129" lon="3.26797">
        <ele>1098</ele>
        <time>2012-09-11T06:47:33Z</time>
      </trkpt>
      <trkpt lat="44.70121" lon="3.26782">
        <ele>1094</ele>
        <time>2012-09-11T06:47:48Z</time>
      </trkpt>
      <trkpt lat="44.70119" lon="3.26764">
        <ele>1096</ele>
        <time>2012-09-11T06:47:59Z</time>
      </trkpt>
      <trkpt lat="44.70113" lon="3.26747">
        <ele>1098</ele>
        <time>2012-09-11T06:48:11Z</time>
      </trkpt>
      <trkpt lat="44.70104" lon="3.26729">
        <ele>1099</ele>
        <time>2012-09-11T06:48:23Z</time>
      </trkpt>
      <trkpt lat="44.70096" lon="3.26715">
        <ele>1097</ele>
        <time>2012-09-11T06:48:34Z</time>
      </trkpt>
      <trkpt lat="44.70087" lon="3.26701">
        <ele>1097</ele>
        <time>2012-09-11T06:48:45Z</time>
      </trkpt>
      <trkpt lat="44.70078" lon="3.26689">
        <ele>1095</ele>
        <time>2012-09-11T06:48:56Z</time>
      </trkpt>
      <trkpt lat="44.70068" lon="3.26677">
        <ele>1091</ele>
        <time>2012-09-11T06:49:06Z</time>
      </trkpt>
      <trkpt lat="44.70059" lon="3.26666">
        <ele>1090</ele>
        <time>2012-09-11T06:49:17Z</time>
      </trkpt>
      <trkpt lat="44.70052" lon="3.26648">
        <ele>1090</ele>
        <time>2012-09-11T06:49:28Z</time>
      </trkpt>
      <trkpt lat="44.70046" lon="3.26632">
        <ele>1088</ele>
        <time>2012-09-11T06:49:39Z</time>
      </trkpt>
      <trkpt lat="44.70039" lon="3.26615">
        <ele>1091</ele>
        <time>2012-09-11T06:49:51Z</time>
      </trkpt>
      <trkpt lat="44.70031" lon="3.26599">
        <ele>1092</ele>
        <time>2012-09-11T06:50:04Z</time>
      </trkpt>
      <trkpt lat="44.70023" lon="3.26581">
        <ele>1083</ele>
        <time>2012-09-11T06:50:17Z</time>
      </trkpt>
      <trkpt lat="44.70016" lon="3.26559">
        <ele>1086</ele>
        <time>2012-09-11T06:50:29Z</time>
      </trkpt>
      <trkpt lat="44.7001" lon="3.2654">
        <ele>1091</ele>
        <time>2012-09-11T06:50:41Z</time>
      </trkpt>
      <trkpt lat="44.70003" lon="3.26522">
        <ele>1086</ele>
        <time>2012-09-11T06:50:52Z</time>
      </trkpt>
      <trkpt lat="44.69995" lon="3.26507">
        <ele>1081</ele>
        <time>2012-09-11T06:51:03Z</time>
      </trkpt>
      <trkpt lat="44.69989" lon="3.26489">
        <ele>1085</ele>
        <time>2012-09-11T06:51:15Z</time>
      </trkpt>
      <trkpt lat="44.69981" lon="3.26471">
        <ele>1083</ele>
        <time>2012-09-11T06:51:27Z</time>
      </trkpt>
      <trkpt lat="44.69975" lon="3.26456">
        <ele>1083</ele>
        <time>2012-09-11T06:51:37Z</time>
      </trkpt>
      <trkpt lat="44.69969" lon="3.26438">
        <ele>1078</ele>
        <time>2012-09-11T06:51:49Z</time>
      </trkpt>
      <trkpt lat="44.69962" lon="3.26418">
        <ele>1079</ele>
        <time>2012-09-11T06:52:01Z</time>
      </trkpt>
      <trkpt lat="44.69954" lon="3.26402">
        <ele>1076</ele>
        <time>2012-09-11T06:52:14Z</time>
      </trkpt>
      <trkpt lat="44.69947" lon="3.2638">
        <ele>1079</ele>
        <time>2012-09-11T06:52:27Z</time>
      </trkpt>
      <trkpt lat="44.6994" lon="3.26362">
        <ele>1081</ele>
        <time>2012-09-11T06:52:39Z</time>
      </trkpt>
      <trkpt lat="44.69934" lon="3.26346">
        <ele>1077</ele>
        <time>2012-09-11T06:52:50Z</time>
      </trkpt>
      <trkpt lat="44.69925" lon="3.26332">
        <ele>1074</ele>
        <time>2012-09-11T06:53:01Z</time>
      </trkpt>
      <trkpt lat="44.69915" lon="3.26318">
        <ele>1072</ele>
        <time>2012-09-11T06:53:12Z</time>
      </trkpt>
      <trkpt lat="44.69903" lon="3.26307">
        <ele>1075</ele>
        <time>2012-09-11T06:53:22Z</time>
      </trkpt>
      <trkpt lat="44.69891" lon="3.26296">
        <ele>1074</ele>
        <time>2012-09-11T06:53:33Z</time>
      </trkpt>
      <trkpt lat="44.69875" lon="3.26286">
        <ele>1078</ele>
        <time>2012-09-11T06:53:45Z</time>
      </trkpt>
      <trkpt lat="44.69862" lon="3.26275">
        <ele>1077</ele>
        <time>2012-09-11T06:53:56Z</time>
      </trkpt>
      <trkpt lat="44.69857" lon="3.26259">
        <ele>1070</ele>
        <time>2012-09-11T06:54:08Z</time>
      </trkpt>
      <trkpt lat="44.69874" lon="3.26254">
        <ele>1069</ele>
        <time>2012-09-11T06:54:18Z</time>
      </trkpt>
      <trkpt lat="44.6989" lon="3.26248">
        <ele>1069</ele>
        <time>2012-09-11T06:54:29Z</time>
      </trkpt>
      <trkpt lat="44.69902" lon="3.26241">
        <ele>1070</ele>
        <time>2012-09-11T06:54:39Z</time>
      </trkpt>
      <trkpt lat="44.69916" lon="3.26232">
        <ele>1066</ele>
        <time>2012-09-11T06:54:51Z</time>
      </trkpt>
      <trkpt lat="44.69929" lon="3.26228">
        <ele>1062</ele>
        <time>2012-09-11T06:55:03Z</time>
      </trkpt>
      <trkpt lat="44.69943" lon="3.26219">
        <ele>1070</ele>
        <time>2012-09-11T06:55:15Z</time>
      </trkpt>
      <trkpt lat="44.69959" lon="3.26208">
        <ele>1070</ele>
        <time>2012-09-11T06:55:27Z</time>
      </trkpt>
      <trkpt lat="44.69971" lon="3.26197">
        <ele>1071</ele>
        <time>2012-09-11T06:55:38Z</time>
      </trkpt>
      <trkpt lat="44.69981" lon="3.26181">
        <ele>1075</ele>
        <time>2012-09-11T06:55:50Z</time>
      </trkpt>
      <trkpt lat="44.69988" lon="3.26163">
        <ele>1078</ele>
        <time>2012-09-11T06:56:01Z</time>
      </trkpt>
      <trkpt lat="44.69992" lon="3.2615">
        <ele>1070</ele>
        <time>2012-09-11T06:56:11Z</time>
      </trkpt>
      <trkpt lat="44.69994" lon="3.26128">
        <ele>1071</ele>
        <time>2012-09-11T06:56:24Z</time>
      </trkpt>
      <trkpt lat="44.69995" lon="3.26103">
        <ele>1068</ele>
        <time>2012-09-11T06:56:36Z</time>
      </trkpt>
      <trkpt lat="44.69993" lon="3.26084">
        <ele>1072</ele>
        <time>2012-09-11T06:56:47Z</time>
      </trkpt>
      <trkpt lat="44.69993" lon="3.26064">
        <ele>1073</ele>
        <time>2012-09-11T06:56:59Z</time>
      </trkpt>
      <trkpt lat="44.6999" lon="3.26046">
        <ele>1076</ele>
        <time>2012-09-11T06:57:10Z</time>
      </trkpt>
      <trkpt lat="44.69996" lon="3.26026">
        <ele>1077</ele>
        <time>2012-09-11T06:57:21Z</time>
      </trkpt>
      <trkpt lat="44.70002" lon="3.26012">
        <ele>1073</ele>
        <time>2012-09-11T06:57:32Z</time>
      </trkpt>
      <trkpt lat="44.70009" lon="3.25998">
        <ele>1075</ele>
        <time>2012-09-11T06:57:44Z</time>
      </trkpt>
      <trkpt lat="44.70017" lon="3.25983">
        <ele>1073</ele>
        <time>2012-09-11T06:57:54Z</time>
      </trkpt>
      <trkpt lat="44.70022" lon="3.25962">
        <ele>1071</ele>
        <time>2012-09-11T06:58:05Z</time>
      </trkpt>
      <trkpt lat="44.70027" lon="3.25938">
        <ele>1077</ele>
        <time>2012-09-11T06:58:17Z</time>
      </trkpt>
      <trkpt lat="44.70032" lon="3.25923">
        <ele>1068</ele>
        <time>2012-09-11T06:58:27Z</time>
      </trkpt>
      <trkpt lat="44.70035" lon="3.25904">
        <ele>1071</ele>
        <time>2012-09-11T06:58:39Z</time>
      </trkpt>
      <trkpt lat="44.70034" lon="3.25885">
        <ele>1077</ele>
        <time>2012-09-11T06:58:52Z</time>
      </trkpt>
      <trkpt lat="44.70037" lon="3.25863">
        <ele>1074</ele>
        <time>2012-09-11T06:59:05Z</time>
      </trkpt>
      <trkpt lat="44.70041" lon="3.25841">
        <ele>1081</ele>
        <time>2012-09-11T06:59:16Z</time>
      </trkpt>
      <trkpt lat="44.70046" lon="3.2582">
        <ele>1079</ele>
        <time>2012-09-11T06:59:28Z</time>
      </trkpt>
      <trkpt lat="44.70048" lon="3.25802">
        <ele>1073</ele>
        <time>2012-09-11T06:59:39Z</time>
      </trkpt>
      <trkpt lat="44.70051" lon="3.25782">
        <ele>1082</ele>
        <time>2012-09-11T06:59:51Z</time>
      </trkpt>
      <trkpt lat="44.70055" lon="3.25766">
        <ele>1075</ele>
        <time>2012-09-11T07:00:02Z</time>
      </trkpt>
      <trkpt lat="44.70061" lon="3.25747">
        <ele>1078</ele>
        <time>2012-09-11T07:00:13Z</time>
      </trkpt>
      <trkpt lat="44.70069" lon="3.25732">
        <ele>1078</ele>
        <time>2012-09-11T07:00:24Z</time>
      </trkpt>
      <trkpt lat="44.70078" lon="3.25716">
        <ele>1078</ele>
        <time>2012-09-11T07:00:35Z</time>
      </trkpt>
      <trkpt lat="44.70085" lon="3.25696">
        <ele>1078</ele>
        <time>2012-09-11T07:00:47Z</time>
      </trkpt>
      <trkpt lat="44.70091" lon="3.25679">
        <ele>1080</ele>
        <time>2012-09-11T07:00:57Z</time>
      </trkpt>
      <trkpt lat="44.70098" lon="3.25664">
        <ele>1079</ele>
        <time>2012-09-11T07:01:08Z</time>
      </trkpt>
      <trkpt lat="44.70104" lon="3.25648">
        <ele>1085</ele>
        <time>2012-09-11T07:01:20Z</time>
      </trkpt>
      <trkpt lat="44.70112" lon="3.25632">
        <ele>1076</ele>
        <time>2012-09-11T07:01:31Z</time>
      </trkpt>
      <trkpt lat="44.70118" lon="3.25617">
        <ele>1084</ele>
        <time>2012-09-11T07:01:43Z</time>
      </trkpt>
      <trkpt lat="44.70126" lon="3.25601">
        <ele>1081</ele>
        <time>2012-09-11T07:01:54Z</time>
      </trkpt>
      <trkpt lat="44.70134" lon="3.25587">
        <ele>1078</ele>
        <time>2012-09-11T07:02:05Z</time>
      </trkpt>
      <trkpt lat="44.70144" lon="3.2557">
        <ele>1085</ele>
        <time>2012-09-11T07:02:18Z</time>
      </trkpt>
      <trkpt lat="44.70155" lon="3.25558">
        <ele>1084</ele>
        <time>2012-09-11T07:02:29Z</time>
      </trkpt>
      <trkpt lat="44.70164" lon="3.25546">
        <ele>1083</ele>
        <time>2012-09-11T07:02:41Z</time>
      </trkpt>
      <trkpt lat="44.70172" lon="3.25536">
        <ele>1084</ele>
        <time>2012-09-11T07:02:51Z</time>
      </trkpt>
      <trkpt lat="44.70181" lon="3.25524">
        <ele>1084</ele>
        <time>2012-09-11T07:03:02Z</time>
      </trkpt>
      <trkpt lat="44.70192" lon="3.25513">
        <ele>1081</ele>
        <time>2012-09-11T07:03:13Z</time>
      </trkpt>
      <trkpt lat="44.70201" lon="3.25503">
        <ele>1090</ele>
        <time>2012-09-11T07:03:24Z</time>
      </trkpt>
      <trkpt lat="44.70213" lon="3.25489">
        <ele>1089</ele>
        <time>2012-09-11T07:03:36Z</time>
      </trkpt>
      <trkpt lat="44.70224" lon="3.25481">
        <ele>1093</ele>
        <time>2012-09-11T07:03:48Z</time>
      </trkpt>
      <trkpt lat="44.70236" lon="3.25475">
        <ele>1089</ele>
        <time>2012-09-11T07:03:59Z</time>
      </trkpt>
      <trkpt lat="44.70248" lon="3.25461">
        <ele>1086</ele>
        <time>2012-09-11T07:04:11Z</time>
      </trkpt>
      <trkpt lat="44.70258" lon="3.25447">
        <ele>1098</ele>
        <time>2012-09-11T07:04:23Z</time>
      </trkpt>
      <trkpt lat="44.70266" lon="3.2543">
        <ele>1086</ele>
        <time>2012-09-11T07:04:36Z</time>
      </trkpt>
      <trkpt lat="44.70267" lon="3.25417">
        <ele>1093</ele>
        <time>2012-09-11T07:04:46Z</time>
      </trkpt>
      <trkpt lat="44.70268" lon="3.25397">
        <ele>1092</ele>
        <time>2012-09-11T07:04:58Z</time>
      </trkpt>
      <trkpt lat="44.70263" lon="3.25379">
        <ele>1096</ele>
        <time>2012-09-11T07:05:10Z</time>
      </trkpt>
      <trkpt lat="44.70263" lon="3.25367">
        <ele>1098</ele>
        <time>2012-09-11T07:05:23Z</time>
      </trkpt>
      <trkpt lat="44.70266" lon="3.25353">
        <ele>1097</ele>
        <time>2012-09-11T07:05:34Z</time>
      </trkpt>
      <trkpt lat="44.70268" lon="3.25336">
        <ele>1091</ele>
        <time>2012-09-11T07:05:46Z</time>
      </trkpt>
      <trkpt lat="44.70273" lon="3.25319">
        <ele>1094</ele>
        <time>2012-09-11T07:05:58Z</time>
      </trkpt>
      <trkpt lat="44.70279" lon="3.25307">
        <ele>1091</ele>
        <time>2012-09-11T07:06:09Z</time>
      </trkpt>
      <trkpt lat="44.70286" lon="3.25292">
        <ele>1090</ele>
        <time>2012-09-11T07:06:20Z</time>
      </trkpt>
      <trkpt lat="44.70295" lon="3.25278">
        <ele>1102</ele>
        <time>2012-09-11T07:06:33Z</time>
      </trkpt>
      <trkpt lat="44.70307" lon="3.25271">
        <ele>1098</ele>
        <time>2012-09-11T07:06:46Z</time>
      </trkpt>
      <trkpt lat="44.70322" lon="3.25273">
        <ele>1096</ele>
        <time>2012-09-11T07:06:59Z</time>
      </trkpt>
      <trkpt lat="44.70338" lon="3.25279">
        <ele>1097</ele>
        <time>2012-09-11T07:07:12Z</time>
      </trkpt>
      <trkpt lat="44.70349" lon="3.25285">
        <ele>1100</ele>
        <time>2012-09-11T07:07:23Z</time>
      </trkpt>
      <trkpt lat="44.70362" lon="3.25286">
        <ele>1102</ele>
        <time>2012-09-11T07:07:34Z</time>
      </trkpt>
      <trkpt lat="44.70375" lon="3.25283">
        <ele>1103</ele>
        <time>2012-09-11T07:07:46Z</time>
      </trkpt>
      <trkpt lat="44.7038" lon="3.25279">
        <ele>1114</ele>
        <time>2012-09-11T07:08:11Z</time>
      </trkpt>
      <trkpt lat="44.70378" lon="3.25283">
        <ele>1113</ele>
        <time>2012-09-11T07:08:23Z</time>
      </trkpt>
      <trkpt lat="44.7039" lon="3.25277">
        <ele>1106</ele>
        <time>2012-09-11T07:08:35Z</time>
      </trkpt>
      <trkpt lat="44.70401" lon="3.25271">
        <ele>1117</ele>
        <time>2012-09-11T07:08:47Z</time>
      </trkpt>
      <trkpt lat="44.70414" lon="3.25264">
        <ele>1106</ele>
        <time>2012-09-11T07:08:57Z</time>
      </trkpt>
      <trkpt lat="44.70427" lon="3.25253">
        <ele>1102</ele>
        <time>2012-09-11T07:09:09Z</time>
      </trkpt>
      <trkpt lat="44.70441" lon="3.25238">
        <ele>1103</ele>
        <time>2012-09-11T07:09:22Z</time>
      </trkpt>
      <trkpt lat="44.70452" lon="3.25225">
        <ele>1105</ele>
        <time>2012-09-11T07:09:35Z</time>
      </trkpt>
      <trkpt lat="44.70462" lon="3.25215">
        <ele>1105</ele>
        <time>2012-09-11T07:09:46Z</time>
      </trkpt>
      <trkpt lat="44.70472" lon="3.25211">
        <ele>1102</ele>
        <time>2012-09-11T07:09:57Z</time>
      </trkpt>
      <trkpt lat="44.70488" lon="3.25205">
        <ele>1102</ele>
        <time>2012-09-11T07:10:10Z</time>
      </trkpt>
      <trkpt lat="44.70503" lon="3.25194">
        <ele>1106</ele>
        <time>2012-09-11T07:10:23Z</time>
      </trkpt>
      <trkpt lat="44.70516" lon="3.25184">
        <ele>1096</ele>
        <time>2012-09-11T07:10:35Z</time>
      </trkpt>
      <trkpt lat="44.70528" lon="3.25169">
        <ele>1098</ele>
        <time>2012-09-11T07:10:47Z</time>
      </trkpt>
      <trkpt lat="44.70539" lon="3.25157">
        <ele>1105</ele>
        <time>2012-09-11T07:10:59Z</time>
      </trkpt>
      <trkpt lat="44.70548" lon="3.25144">
        <ele>1113</ele>
        <time>2012-09-11T07:11:09Z</time>
      </trkpt>
      <trkpt lat="44.70556" lon="3.25135">
        <ele>1104</ele>
        <time>2012-09-11T07:11:19Z</time>
      </trkpt>
      <trkpt lat="44.70564" lon="3.25125">
        <ele>1110</ele>
        <time>2012-09-11T07:11:37Z</time>
      </trkpt>
      <trkpt lat="44.70575" lon="3.25111">
        <ele>1116</ele>
        <time>2012-09-11T07:11:49Z</time>
      </trkpt>
      <trkpt lat="44.70586" lon="3.25096">
        <ele>1116</ele>
        <time>2012-09-11T07:12:00Z</time>
      </trkpt>
      <trkpt lat="44.70593" lon="3.2508">
        <ele>1108</ele>
        <time>2012-09-11T07:12:11Z</time>
      </trkpt>
      <trkpt lat="44.70602" lon="3.25069">
        <ele>1115</ele>
        <time>2012-09-11T07:12:21Z</time>
      </trkpt>
      <trkpt lat="44.70609" lon="3.25058">
        <ele>1111</ele>
        <time>2012-09-11T07:12:31Z</time>
      </trkpt>
      <trkpt lat="44.7062" lon="3.25049">
        <ele>1113</ele>
        <time>2012-09-11T07:12:43Z</time>
      </trkpt>
      <trkpt lat="44.70633" lon="3.25042">
        <ele>1111</ele>
        <time>2012-09-11T07:12:55Z</time>
      </trkpt>
      <trkpt lat="44.70643" lon="3.25032">
        <ele>1112</ele>
        <time>2012-09-11T07:13:06Z</time>
      </trkpt>
      <trkpt lat="44.70653" lon="3.25019">
        <ele>1117</ele>
        <time>2012-09-11T07:13:17Z</time>
      </trkpt>
      <trkpt lat="44.70664" lon="3.25008">
        <ele>1118</ele>
        <time>2012-09-11T07:13:29Z</time>
      </trkpt>
      <trkpt lat="44.70675" lon="3.24995">
        <ele>1111</ele>
        <time>2012-09-11T07:13:41Z</time>
      </trkpt>
      <trkpt lat="44.70682" lon="3.24978">
        <ele>1114</ele>
        <time>2012-09-11T07:13:53Z</time>
      </trkpt>
      <trkpt lat="44.70692" lon="3.24966">
        <ele>1117</ele>
        <time>2012-09-11T07:14:03Z</time>
      </trkpt>
      <trkpt lat="44.70705" lon="3.24954">
        <ele>1118</ele>
        <time>2012-09-11T07:14:17Z</time>
      </trkpt>
      <trkpt lat="44.70712" lon="3.24938">
        <ele>1121</ele>
        <time>2012-09-11T07:14:28Z</time>
      </trkpt>
      <trkpt lat="44.70723" lon="3.24926">
        <ele>1115</ele>
        <time>2012-09-11T07:14:40Z</time>
      </trkpt>
      <trkpt lat="44.70731" lon="3.24913">
        <ele>1119</ele>
        <time>2012-09-11T07:14:51Z</time>
      </trkpt>
      <trkpt lat="44.70739" lon="3.24896">
        <ele>1119</ele>
        <time>2012-09-11T07:15:03Z</time>
      </trkpt>
      <trkpt lat="44.70746" lon="3.24881">
        <ele>1119</ele>
        <time>2012-09-11T07:15:13Z</time>
      </trkpt>
      <trkpt lat="44.70756" lon="3.24865">
        <ele>1124</ele>
        <time>2012-09-11T07:15:26Z</time>
      </trkpt>
      <trkpt lat="44.70763" lon="3.2485">
        <ele>1124</ele>
        <time>2012-09-11T07:15:38Z</time>
      </trkpt>
      <trkpt lat="44.7077" lon="3.24836">
        <ele>1121</ele>
        <time>2012-09-11T07:15:48Z</time>
      </trkpt>
      <trkpt lat="44.70778" lon="3.24821">
        <ele>1125</ele>
        <time>2012-09-11T07:16:00Z</time>
      </trkpt>
      <trkpt lat="44.70786" lon="3.24805">
        <ele>1124</ele>
        <time>2012-09-11T07:16:12Z</time>
      </trkpt>
      <trkpt lat="44.70794" lon="3.24791">
        <ele>1123</ele>
        <time>2012-09-11T07:16:24Z</time>
      </trkpt>
      <trkpt lat="44.70802" lon="3.24776">
        <ele>1124</ele>
        <time>2012-09-11T07:16:36Z</time>
      </trkpt>
      <trkpt lat="44.70812" lon="3.24758">
        <ele>1131</ele>
        <time>2012-09-11T07:16:48Z</time>
      </trkpt>
      <trkpt lat="44.7082" lon="3.24743">
        <ele>1132</ele>
        <time>2012-09-11T07:16:59Z</time>
      </trkpt>
      <trkpt lat="44.70823" lon="3.2474">
        <ele>1123</ele>
        <time>2012-09-11T07:17:10Z</time>
      </trkpt>
      <trkpt lat="44.70834" lon="3.24725">
        <ele>1129</ele>
        <time>2012-09-11T07:17:22Z</time>
      </trkpt>
      <trkpt lat="44.70843" lon="3.24713">
        <ele>1128</ele>
        <time>2012-09-11T07:17:33Z</time>
      </trkpt>
      <trkpt lat="44.70856" lon="3.24696">
        <ele>1128</ele>
        <time>2012-09-11T07:17:46Z</time>
      </trkpt>
      <trkpt lat="44.70866" lon="3.24686">
        <ele>1127</ele>
        <time>2012-09-11T07:17:57Z</time>
      </trkpt>
      <trkpt lat="44.70877" lon="3.24675">
        <ele>1129</ele>
        <time>2012-09-11T07:18:08Z</time>
      </trkpt>
      <trkpt lat="44.70887" lon="3.24662">
        <ele>1128</ele>
        <time>2012-09-11T07:18:18Z</time>
      </trkpt>
      <trkpt lat="44.70897" lon="3.2465">
        <ele>1120</ele>
        <time>2012-09-11T07:18:30Z</time>
      </trkpt>
      <trkpt lat="44.70911" lon="3.24638">
        <ele>1123</ele>
        <time>2012-09-11T07:18:42Z</time>
      </trkpt>
      <trkpt lat="44.70927" lon="3.24631">
        <ele>1123</ele>
        <time>2012-09-11T07:18:53Z</time>
      </trkpt>
      <trkpt lat="44.70937" lon="3.24623">
        <ele>1125</ele>
        <time>2012-09-11T07:19:04Z</time>
      </trkpt>
      <trkpt lat="44.70949" lon="3.24612">
        <ele>1122</ele>
        <time>2012-09-11T07:19:16Z</time>
      </trkpt>
      <trkpt lat="44.70959" lon="3.24601">
        <ele>1126</ele>
        <time>2012-09-11T07:19:26Z</time>
      </trkpt>
      <trkpt lat="44.70969" lon="3.24588">
        <ele>1124</ele>
        <time>2012-09-11T07:19:38Z</time>
      </trkpt>
      <trkpt lat="44.70979" lon="3.24575">
        <ele>1126</ele>
        <time>2012-09-11T07:19:49Z</time>
      </trkpt>
      <trkpt lat="44.7099" lon="3.24564">
        <ele>1124</ele>
        <time>2012-09-11T07:20:00Z</time>
      </trkpt>
      <trkpt lat="44.70998" lon="3.24546">
        <ele>1124</ele>
        <time>2012-09-11T07:20:13Z</time>
      </trkpt>
      <trkpt lat="44.71008" lon="3.24534">
        <ele>1125</ele>
        <time>2012-09-11T07:20:24Z</time>
      </trkpt>
      <trkpt lat="44.71015" lon="3.2452">
        <ele>1121</ele>
        <time>2012-09-11T07:20:35Z</time>
      </trkpt>
      <trkpt lat="44.71023" lon="3.24504">
        <ele>1123</ele>
        <time>2012-09-11T07:20:46Z</time>
      </trkpt>
      <trkpt lat="44.7103" lon="3.24495">
        <ele>1122</ele>
        <time>2012-09-11T07:20:58Z</time>
      </trkpt>
      <trkpt lat="44.71044" lon="3.24486">
        <ele>1123</ele>
        <time>2012-09-11T07:21:09Z</time>
      </trkpt>
      <trkpt lat="44.71051" lon="3.24479">
        <ele>1122</ele>
        <time>2012-09-11T07:22:04Z</time>
      </trkpt>
      <trkpt lat="44.71058" lon="3.24463">
        <ele>1127</ele>
        <time>2012-09-11T07:22:18Z</time>
      </trkpt>
      <trkpt lat="44.71062" lon="3.24451">
        <ele>1124</ele>
        <time>2012-09-11T07:22:28Z</time>
      </trkpt>
      <trkpt lat="44.71069" lon="3.24429">
        <ele>1125</ele>
        <time>2012-09-11T07:22:41Z</time>
      </trkpt>
      <trkpt lat="44.71075" lon="3.24409">
        <ele>1115</ele>
        <time>2012-09-11T07:22:55Z</time>
      </trkpt>
      <trkpt lat="44.7108" lon="3.24391">
        <ele>1122</ele>
        <time>2012-09-11T07:23:06Z</time>
      </trkpt>
      <trkpt lat="44.71086" lon="3.24371">
        <ele>1123</ele>
        <time>2012-09-11T07:23:18Z</time>
      </trkpt>
      <trkpt lat="44.71089" lon="3.24354">
        <ele>1124</ele>
        <time>2012-09-11T07:23:28Z</time>
      </trkpt>
      <trkpt lat="44.71095" lon="3.24339">
        <ele>1128</ele>
        <time>2012-09-11T07:23:39Z</time>
      </trkpt>
      <trkpt lat="44.71098" lon="3.24316">
        <ele>1130</ele>
        <time>2012-09-11T07:23:51Z</time>
      </trkpt>
      <trkpt lat="44.71103" lon="3.24293">
        <ele>1126</ele>
        <time>2012-09-11T07:24:04Z</time>
      </trkpt>
      <trkpt lat="44.71111" lon="3.24277">
        <ele>1128</ele>
        <time>2012-09-11T07:24:16Z</time>
      </trkpt>
      <trkpt lat="44.71118" lon="3.2426">
        <ele>1129</ele>
        <time>2012-09-11T07:24:27Z</time>
      </trkpt>
      <trkpt lat="44.71126" lon="3.24244">
        <ele>1131</ele>
        <time>2012-09-11T07:24:39Z</time>
      </trkpt>
      <trkpt lat="44.71131" lon="3.2423">
        <ele>1127</ele>
        <time>2012-09-11T07:24:49Z</time>
      </trkpt>
      <trkpt lat="44.71137" lon="3.24213">
        <ele>1129</ele>
        <time>2012-09-11T07:25:00Z</time>
      </trkpt>
      <trkpt lat="44.71146" lon="3.24199">
        <ele>1132</ele>
        <time>2012-09-11T07:25:10Z</time>
      </trkpt>
      <trkpt lat="44.71153" lon="3.24184">
        <ele>1131</ele>
        <time>2012-09-11T07:25:23Z</time>
      </trkpt>
      <trkpt lat="44.71159" lon="3.24167">
        <ele>1133</ele>
        <time>2012-09-11T07:25:34Z</time>
      </trkpt>
      <trkpt lat="44.71163" lon="3.2415">
        <ele>1133</ele>
        <time>2012-09-11T07:25:46Z</time>
      </trkpt>
      <trkpt lat="44.71167" lon="3.24133">
        <ele>1133</ele>
        <time>2012-09-11T07:25:57Z</time>
      </trkpt>
      <trkpt lat="44.71172" lon="3.24117">
        <ele>1133</ele>
        <time>2012-09-11T07:26:09Z</time>
      </trkpt>
      <trkpt lat="44.71177" lon="3.24095">
        <ele>1135</ele>
        <time>2012-09-11T07:26:21Z</time>
      </trkpt>
      <trkpt lat="44.71181" lon="3.24078">
        <ele>1136</ele>
        <time>2012-09-11T07:26:33Z</time>
      </trkpt>
      <trkpt lat="44.71185" lon="3.24061">
        <ele>1136</ele>
        <time>2012-09-11T07:26:44Z</time>
      </trkpt>
      <trkpt lat="44.71189" lon="3.24045">
        <ele>1135</ele>
        <time>2012-09-11T07:26:55Z</time>
      </trkpt>
      <trkpt lat="44.71193" lon="3.24029">
        <ele>1133</ele>
        <time>2012-09-11T07:27:06Z</time>
      </trkpt>
      <trkpt lat="44.71197" lon="3.24009">
        <ele>1135</ele>
        <time>2012-09-11T07:27:17Z</time>
      </trkpt>
      <trkpt lat="44.71201" lon="3.23996">
        <ele>1136</ele>
        <time>2012-09-11T07:27:27Z</time>
      </trkpt>
      <trkpt lat="44.71204" lon="3.23979">
        <ele>1137</ele>
        <time>2012-09-11T07:27:37Z</time>
      </trkpt>
      <trkpt lat="44.7121" lon="3.23963">
        <ele>1140</ele>
        <time>2012-09-11T07:27:49Z</time>
      </trkpt>
      <trkpt lat="44.71214" lon="3.23946">
        <ele>1140</ele>
        <time>2012-09-11T07:28:00Z</time>
      </trkpt>
      <trkpt lat="44.71219" lon="3.23928">
        <ele>1142</ele>
        <time>2012-09-11T07:28:12Z</time>
      </trkpt>
      <trkpt lat="44.71224" lon="3.23911">
        <ele>1141</ele>
        <time>2012-09-11T07:28:24Z</time>
      </trkpt>
      <trkpt lat="44.71228" lon="3.23894">
        <ele>1142</ele>
        <time>2012-09-11T07:28:34Z</time>
      </trkpt>
      <trkpt lat="44.71232" lon="3.23877">
        <ele>1142</ele>
        <time>2012-09-11T07:28:46Z</time>
      </trkpt>
      <trkpt lat="44.71237" lon="3.2386">
        <ele>1140</ele>
        <time>2012-09-11T07:28:57Z</time>
      </trkpt>
      <trkpt lat="44.71241" lon="3.23843">
        <ele>1144</ele>
        <time>2012-09-11T07:29:07Z</time>
      </trkpt>
      <trkpt lat="44.71247" lon="3.23828">
        <ele>1144</ele>
        <time>2012-09-11T07:29:17Z</time>
      </trkpt>
      <trkpt lat="44.71253" lon="3.2381">
        <ele>1143</ele>
        <time>2012-09-11T07:29:30Z</time>
      </trkpt>
      <trkpt lat="44.71258" lon="3.23792">
        <ele>1142</ele>
        <time>2012-09-11T07:29:42Z</time>
      </trkpt>
      <trkpt lat="44.71266" lon="3.23779">
        <ele>1141</ele>
        <time>2012-09-11T07:29:54Z</time>
      </trkpt>
      <trkpt lat="44.71279" lon="3.23773">
        <ele>1145</ele>
        <time>2012-09-11T07:30:04Z</time>
      </trkpt>
      <trkpt lat="44.71289" lon="3.2376">
        <ele>1145</ele>
        <time>2012-09-11T07:30:15Z</time>
      </trkpt>
      <trkpt lat="44.71299" lon="3.23746">
        <ele>1147</ele>
        <time>2012-09-11T07:30:26Z</time>
      </trkpt>
      <trkpt lat="44.71309" lon="3.23731">
        <ele>1145</ele>
        <time>2012-09-11T07:30:37Z</time>
      </trkpt>
      <trkpt lat="44.71315" lon="3.23715">
        <ele>1141</ele>
        <time>2012-09-11T07:30:48Z</time>
      </trkpt>
      <trkpt lat="44.71315" lon="3.23693">
        <ele>1139</ele>
        <time>2012-09-11T07:31:00Z</time>
      </trkpt>
      <trkpt lat="44.7131" lon="3.23674">
        <ele>1146</ele>
        <time>2012-09-11T07:31:10Z</time>
      </trkpt>
      <trkpt lat="44.71305" lon="3.23656">
        <ele>1144</ele>
        <time>2012-09-11T07:31:22Z</time>
      </trkpt>
      <trkpt lat="44.71299" lon="3.23637">
        <ele>1143</ele>
        <time>2012-09-11T07:31:33Z</time>
      </trkpt>
      <trkpt lat="44.71294" lon="3.2362">
        <ele>1143</ele>
        <time>2012-09-11T07:31:45Z</time>
      </trkpt>
      <trkpt lat="44.71287" lon="3.23609">
        <ele>1146</ele>
        <time>2012-09-11T07:31:55Z</time>
      </trkpt>
      <trkpt lat="44.71275" lon="3.23596">
        <ele>1140</ele>
        <time>2012-09-11T07:32:07Z</time>
      </trkpt>
      <trkpt lat="44.71268" lon="3.2358">
        <ele>1146</ele>
        <time>2012-09-11T07:32:18Z</time>
      </trkpt>
      <trkpt lat="44.71263" lon="3.23561">
        <ele>1146</ele>
        <time>2012-09-11T07:32:30Z</time>
      </trkpt>
      <trkpt lat="44.71256" lon="3.23547">
        <ele>1149</ele>
        <time>2012-09-11T07:32:41Z</time>
      </trkpt>
      <trkpt lat="44.71248" lon="3.23534">
        <ele>1149</ele>
        <time>2012-09-11T07:32:52Z</time>
      </trkpt>
      <trkpt lat="44.71244" lon="3.23514">
        <ele>1144</ele>
        <time>2012-09-11T07:33:02Z</time>
      </trkpt>
      <trkpt lat="44.71241" lon="3.23497">
        <ele>1151</ele>
        <time>2012-09-11T07:33:14Z</time>
      </trkpt>
      <trkpt lat="44.71236" lon="3.23485">
        <ele>1153</ele>
        <time>2012-09-11T07:33:42Z</time>
      </trkpt>
      <trkpt lat="44.71234" lon="3.23473">
        <ele>1152</ele>
        <time>2012-09-11T07:33:53Z</time>
      </trkpt>
      <trkpt lat="44.71234" lon="3.23461">
        <ele>1148</ele>
        <time>2012-09-11T07:34:03Z</time>
      </trkpt>
      <trkpt lat="44.71235" lon="3.23442">
        <ele>1150</ele>
        <time>2012-09-11T07:34:15Z</time>
      </trkpt>
      <trkpt lat="44.71236" lon="3.23424">
        <ele>1151</ele>
        <time>2012-09-11T07:34:26Z</time>
      </trkpt>
      <trkpt lat="44.71234" lon="3.23404">
        <ele>1145</ele>
        <time>2012-09-11T07:34:36Z</time>
      </trkpt>
      <trkpt lat="44.71232" lon="3.23387">
        <ele>1148</ele>
        <time>2012-09-11T07:34:47Z</time>
      </trkpt>
      <trkpt lat="44.71232" lon="3.2337">
        <ele>1149</ele>
        <time>2012-09-11T07:34:58Z</time>
      </trkpt>
      <trkpt lat="44.71238" lon="3.23352">
        <ele>1146</ele>
        <time>2012-09-11T07:35:08Z</time>
      </trkpt>
      <trkpt lat="44.71236" lon="3.23331">
        <ele>1151</ele>
        <time>2012-09-11T07:35:18Z</time>
      </trkpt>
      <trkpt lat="44.71237" lon="3.23314">
        <ele>1150</ele>
        <time>2012-09-11T07:35:29Z</time>
      </trkpt>
      <trkpt lat="44.7124" lon="3.23293">
        <ele>1151</ele>
        <time>2012-09-11T07:35:42Z</time>
      </trkpt>
      <trkpt lat="44.71242" lon="3.23274">
        <ele>1147</ele>
        <time>2012-09-11T07:35:53Z</time>
      </trkpt>
      <trkpt lat="44.71245" lon="3.23252">
        <ele>1143</ele>
        <time>2012-09-11T07:36:04Z</time>
      </trkpt>
      <trkpt lat="44.71246" lon="3.23234">
        <ele>1151</ele>
        <time>2012-09-11T07:36:14Z</time>
      </trkpt>
      <trkpt lat="44.71247" lon="3.23216">
        <ele>1151</ele>
        <time>2012-09-11T07:36:25Z</time>
      </trkpt>
      <trkpt lat="44.71249" lon="3.23198">
        <ele>1141</ele>
        <time>2012-09-11T07:36:35Z</time>
      </trkpt>
      <trkpt lat="44.71246" lon="3.2318">
        <ele>1140</ele>
        <time>2012-09-11T07:36:45Z</time>
      </trkpt>
      <trkpt lat="44.71241" lon="3.23163">
        <ele>1138</ele>
        <time>2012-09-11T07:36:56Z</time>
      </trkpt>
      <trkpt lat="44.71237" lon="3.23146">
        <ele>1138</ele>
        <time>2012-09-11T07:37:07Z</time>
      </trkpt>
      <trkpt lat="44.7123" lon="3.23132">
        <ele>1134</ele>
        <time>2012-09-11T07:37:18Z</time>
      </trkpt>
      <trkpt lat="44.71228" lon="3.23113">
        <ele>1138</ele>
        <time>2012-09-11T07:37:29Z</time>
      </trkpt>
      <trkpt lat="44.71223" lon="3.23096">
        <ele>1129</ele>
        <time>2012-09-11T07:37:40Z</time>
      </trkpt>
      <trkpt lat="44.71218" lon="3.23078">
        <ele>1135</ele>
        <time>2012-09-11T07:37:52Z</time>
      </trkpt>
      <trkpt lat="44.71213" lon="3.23059">
        <ele>1140</ele>
        <time>2012-09-11T07:38:04Z</time>
      </trkpt>
      <trkpt lat="44.71209" lon="3.23041">
        <ele>1137</ele>
        <time>2012-09-11T07:38:14Z</time>
      </trkpt>
      <trkpt lat="44.71204" lon="3.23029">
        <ele>1135</ele>
        <time>2012-09-11T07:38:25Z</time>
      </trkpt>
      <trkpt lat="44.71193" lon="3.23011">
        <ele>1130</ele>
        <time>2012-09-11T07:38:38Z</time>
      </trkpt>
      <trkpt lat="44.71183" lon="3.23005">
        <ele>1125</ele>
        <time>2012-09-11T07:38:48Z</time>
      </trkpt>
      <trkpt lat="44.71172" lon="3.22993">
        <ele>1127</ele>
        <time>2012-09-11T07:39:00Z</time>
      </trkpt>
      <trkpt lat="44.71161" lon="3.22976">
        <ele>1128</ele>
        <time>2012-09-11T07:39:13Z</time>
      </trkpt>
      <trkpt lat="44.71154" lon="3.22955">
        <ele>1126</ele>
        <time>2012-09-11T07:39:24Z</time>
      </trkpt>
      <trkpt lat="44.71153" lon="3.22937">
        <ele>1123</ele>
        <time>2012-09-11T07:39:36Z</time>
      </trkpt>
      <trkpt lat="44.71153" lon="3.2292">
        <ele>1127</ele>
        <time>2012-09-11T07:39:47Z</time>
      </trkpt>
      <trkpt lat="44.71155" lon="3.22908">
        <ele>1130</ele>
        <time>2012-09-11T07:39:57Z</time>
      </trkpt>
      <trkpt lat="44.71157" lon="3.22889">
        <ele>1128</ele>
        <time>2012-09-11T07:40:09Z</time>
      </trkpt>
      <trkpt lat="44.71155" lon="3.22872">
        <ele>1126</ele>
        <time>2012-09-11T07:40:21Z</time>
      </trkpt>
      <trkpt lat="44.71157" lon="3.22856">
        <ele>1131</ele>
        <time>2012-09-11T07:40:34Z</time>
      </trkpt>
      <trkpt lat="44.7116" lon="3.22843">
        <ele>1137</ele>
        <time>2012-09-11T07:40:44Z</time>
      </trkpt>
      <trkpt lat="44.71157" lon="3.22826">
        <ele>1137</ele>
        <time>2012-09-11T07:40:57Z</time>
      </trkpt>
      <trkpt lat="44.7116" lon="3.22818">
        <ele>1135</ele>
        <time>2012-09-11T07:41:08Z</time>
      </trkpt>
      <trkpt lat="44.71159" lon="3.22807">
        <ele>1142</ele>
        <time>2012-09-11T07:41:18Z</time>
      </trkpt>
      <trkpt lat="44.71154" lon="3.22795">
        <ele>1143</ele>
        <time>2012-09-11T07:41:29Z</time>
      </trkpt>
      <trkpt lat="44.71151" lon="3.22783">
        <ele>1145</ele>
        <time>2012-09-11T07:41:40Z</time>
      </trkpt>
      <trkpt lat="44.71148" lon="3.2277">
        <ele>1144</ele>
        <time>2012-09-11T07:41:51Z</time>
      </trkpt>
      <trkpt lat="44.71144" lon="3.22754">
        <ele>1149</ele>
        <time>2012-09-11T07:42:03Z</time>
      </trkpt>
      <trkpt lat="44.7114" lon="3.22742">
        <ele>1150</ele>
        <time>2012-09-11T07:42:13Z</time>
      </trkpt>
      <trkpt lat="44.71135" lon="3.22726">
        <ele>1151</ele>
        <time>2012-09-11T07:42:26Z</time>
      </trkpt>
      <trkpt lat="44.71132" lon="3.22713">
        <ele>1146</ele>
        <time>2012-09-11T07:42:36Z</time>
      </trkpt>
      <trkpt lat="44.71129" lon="3.22696">
        <ele>1154</ele>
        <time>2012-09-11T07:42:48Z</time>
      </trkpt>
      <trkpt lat="44.71125" lon="3.2268">
        <ele>1154</ele>
        <time>2012-09-11T07:43:00Z</time>
      </trkpt>
      <trkpt lat="44.7112" lon="3.22663">
        <ele>1153</ele>
        <time>2012-09-11T07:43:12Z</time>
      </trkpt>
      <trkpt lat="44.71118" lon="3.22645">
        <ele>1154</ele>
        <time>2012-09-11T07:43:25Z</time>
      </trkpt>
      <trkpt lat="44.71116" lon="3.22626">
        <ele>1155</ele>
        <time>2012-09-11T07:43:37Z</time>
      </trkpt>
      <trkpt lat="44.71115" lon="3.2263">
        <ele>1149</ele>
        <time>2012-09-11T07:46:06Z</time>
      </trkpt>
      <trkpt lat="44.71113" lon="3.22625">
        <ele>1150</ele>
        <time>2012-09-11T07:46:54Z</time>
      </trkpt>
      <trkpt lat="44.71109" lon="3.22608">
        <ele>1154</ele>
        <time>2012-09-11T07:47:06Z</time>
      </trkpt>
      <trkpt lat="44.71103" lon="3.22594">
        <ele>1151</ele>
        <time>2012-09-11T07:47:19Z</time>
      </trkpt>
      <trkpt lat="44.71098" lon="3.22576">
        <ele>1156</ele>
        <time>2012-09-11T07:47:30Z</time>
      </trkpt>
      <trkpt lat="44.71093" lon="3.22563">
        <ele>1152</ele>
        <time>2012-09-11T07:47:40Z</time>
      </trkpt>
      <trkpt lat="44.7109" lon="3.22544">
        <ele>1152</ele>
        <time>2012-09-11T07:47:53Z</time>
      </trkpt>
      <trkpt lat="44.71085" lon="3.22527">
        <ele>1157</ele>
        <time>2012-09-11T07:48:03Z</time>
      </trkpt>
      <trkpt lat="44.71083" lon="3.22507">
        <ele>1153</ele>
        <time>2012-09-11T07:48:15Z</time>
      </trkpt>
      <trkpt lat="44.71084" lon="3.22487">
        <ele>1161</ele>
        <time>2012-09-11T07:48:26Z</time>
      </trkpt>
      <trkpt lat="44.71082" lon="3.22468">
        <ele>1155</ele>
        <time>2012-09-11T07:48:38Z</time>
      </trkpt>
      <trkpt lat="44.71079" lon="3.22455">
        <ele>1155</ele>
        <time>2012-09-11T07:48:48Z</time>
      </trkpt>
      <trkpt lat="44.71081" lon="3.22436">
        <ele>1157</ele>
        <time>2012-09-11T07:49:00Z</time>
      </trkpt>
      <trkpt lat="44.71082" lon="3.22418">
        <ele>1158</ele>
        <time>2012-09-11T07:49:13Z</time>
      </trkpt>
      <trkpt lat="44.7109" lon="3.22403">
        <ele>1158</ele>
        <time>2012-09-11T07:49:24Z</time>
      </trkpt>
      <trkpt lat="44.71104" lon="3.22403">
        <ele>1156</ele>
        <time>2012-09-11T07:49:36Z</time>
      </trkpt>
      <trkpt lat="44.71115" lon="3.22398">
        <ele>1161</ele>
        <time>2012-09-11T07:49:48Z</time>
      </trkpt>
      <trkpt lat="44.71125" lon="3.22393">
        <ele>1164</ele>
        <time>2012-09-11T07:49:59Z</time>
      </trkpt>
      <trkpt lat="44.71135" lon="3.2239">
        <ele>1160</ele>
        <time>2012-09-11T07:50:10Z</time>
      </trkpt>
      <trkpt lat="44.71144" lon="3.22385">
        <ele>1163</ele>
        <time>2012-09-11T07:50:21Z</time>
      </trkpt>
      <trkpt lat="44.71156" lon="3.22381">
        <ele>1165</ele>
        <time>2012-09-11T07:50:32Z</time>
      </trkpt>
      <trkpt lat="44.7117" lon="3.22381">
        <ele>1164</ele>
        <time>2012-09-11T07:50:44Z</time>
      </trkpt>
      <trkpt lat="44.71184" lon="3.22377">
        <ele>1161</ele>
        <time>2012-09-11T07:50:54Z</time>
      </trkpt>
      <trkpt lat="44.712" lon="3.22378">
        <ele>1155</ele>
        <time>2012-09-11T07:51:06Z</time>
      </trkpt>
      <trkpt lat="44.71212" lon="3.22375">
        <ele>1161</ele>
        <time>2012-09-11T07:51:18Z</time>
      </trkpt>
      <trkpt lat="44.71225" lon="3.22369">
        <ele>1164</ele>
        <time>2012-09-11T07:51:30Z</time>
      </trkpt>
      <trkpt lat="44.71238" lon="3.22364">
        <ele>1164</ele>
        <time>2012-09-11T07:51:41Z</time>
      </trkpt>
      <trkpt lat="44.71247" lon="3.22362">
        <ele>1165</ele>
        <time>2012-09-11T07:51:53Z</time>
      </trkpt>
      <trkpt lat="44.71259" lon="3.22359">
        <ele>1163</ele>
        <time>2012-09-11T07:52:03Z</time>
      </trkpt>
      <trkpt lat="44.71273" lon="3.22353">
        <ele>1161</ele>
        <time>2012-09-11T07:52:14Z</time>
      </trkpt>
      <trkpt lat="44.71282" lon="3.2235">
        <ele>1162</ele>
        <time>2012-09-11T07:52:25Z</time>
      </trkpt>
      <trkpt lat="44.71296" lon="3.22337">
        <ele>1166</ele>
        <time>2012-09-11T07:52:36Z</time>
      </trkpt>
      <trkpt lat="44.7131" lon="3.22325">
        <ele>1163</ele>
        <time>2012-09-11T07:52:48Z</time>
      </trkpt>
      <trkpt lat="44.71324" lon="3.22313">
        <ele>1163</ele>
        <time>2012-09-11T07:53:01Z</time>
      </trkpt>
      <trkpt lat="44.71318" lon="3.22292">
        <ele>1164</ele>
        <time>2012-09-11T07:53:13Z</time>
      </trkpt>
      <trkpt lat="44.71313" lon="3.22279">
        <ele>1167</ele>
        <time>2012-09-11T07:53:23Z</time>
      </trkpt>
      <trkpt lat="44.71306" lon="3.22263">
        <ele>1170</ele>
        <time>2012-09-11T07:53:37Z</time>
      </trkpt>
      <trkpt lat="44.71302" lon="3.22247">
        <ele>1165</ele>
        <time>2012-09-11T07:53:50Z</time>
      </trkpt>
      <trkpt lat="44.71299" lon="3.2223">
        <ele>1176</ele>
        <time>2012-09-11T07:54:03Z</time>
      </trkpt>
      <trkpt lat="44.71297" lon="3.22212">
        <ele>1172</ele>
        <time>2012-09-11T07:54:14Z</time>
      </trkpt>
      <trkpt lat="44.71296" lon="3.22198">
        <ele>1173</ele>
        <time>2012-09-11T07:54:24Z</time>
      </trkpt>
      <trkpt lat="44.71297" lon="3.22182">
        <ele>1170</ele>
        <time>2012-09-11T07:54:35Z</time>
      </trkpt>
      <trkpt lat="44.71293" lon="3.22164">
        <ele>1172</ele>
        <time>2012-09-11T07:54:47Z</time>
      </trkpt>
      <trkpt lat="44.71289" lon="3.22147">
        <ele>1169</ele>
        <time>2012-09-11T07:54:59Z</time>
      </trkpt>
      <trkpt lat="44.71284" lon="3.22129">
        <ele>1173</ele>
        <time>2012-09-11T07:55:11Z</time>
      </trkpt>
      <trkpt lat="44.71278" lon="3.2211">
        <ele>1179</ele>
        <time>2012-09-11T07:55:24Z</time>
      </trkpt>
      <trkpt lat="44.71273" lon="3.2209">
        <ele>1170</ele>
        <time>2012-09-11T07:55:36Z</time>
      </trkpt>
      <trkpt lat="44.71269" lon="3.22073">
        <ele>1178</ele>
        <time>2012-09-11T07:55:48Z</time>
      </trkpt>
      <trkpt lat="44.71263" lon="3.22057">
        <ele>1181</ele>
        <time>2012-09-11T07:55:59Z</time>
      </trkpt>
      <trkpt lat="44.71258" lon="3.22039">
        <ele>1180</ele>
        <time>2012-09-11T07:56:10Z</time>
      </trkpt>
      <trkpt lat="44.71254" lon="3.22022">
        <ele>1179</ele>
        <time>2012-09-11T07:56:22Z</time>
      </trkpt>
      <trkpt lat="44.71252" lon="3.22005">
        <ele>1182</ele>
        <time>2012-09-11T07:56:32Z</time>
      </trkpt>
      <trkpt lat="44.71244" lon="3.21989">
        <ele>1180</ele>
        <time>2012-09-11T07:56:44Z</time>
      </trkpt>
      <trkpt lat="44.71241" lon="3.21973">
        <ele>1182</ele>
        <time>2012-09-11T07:56:55Z</time>
      </trkpt>
      <trkpt lat="44.71239" lon="3.21961">
        <ele>1183</ele>
        <time>2012-09-11T07:57:05Z</time>
      </trkpt>
      <trkpt lat="44.71235" lon="3.21944">
        <ele>1182</ele>
        <time>2012-09-11T07:57:17Z</time>
      </trkpt>
      <trkpt lat="44.7123" lon="3.21926">
        <ele>1182</ele>
        <time>2012-09-11T07:57:30Z</time>
      </trkpt>
      <trkpt lat="44.71225" lon="3.21909">
        <ele>1178</ele>
        <time>2012-09-11T07:57:43Z</time>
      </trkpt>
      <trkpt lat="44.71216" lon="3.21892">
        <ele>1174</ele>
        <time>2012-09-11T07:57:55Z</time>
      </trkpt>
      <trkpt lat="44.71212" lon="3.21876">
        <ele>1183</ele>
        <time>2012-09-11T07:58:05Z</time>
      </trkpt>
      <trkpt lat="44.71207" lon="3.21863">
        <ele>1185</ele>
        <time>2012-09-11T07:58:15Z</time>
      </trkpt>
      <trkpt lat="44.71196" lon="3.21852">
        <ele>1187</ele>
        <time>2012-09-11T07:58:26Z</time>
      </trkpt>
      <trkpt lat="44.71186" lon="3.21839">
        <ele>1190</ele>
        <time>2012-09-11T07:58:37Z</time>
      </trkpt>
      <trkpt lat="44.71178" lon="3.21824">
        <ele>1189</ele>
        <time>2012-09-11T07:58:48Z</time>
      </trkpt>
      <trkpt lat="44.71175" lon="3.21822">
        <ele>1178</ele>
        <time>2012-09-11T07:59:05Z</time>
      </trkpt>
      <trkpt lat="44.71178" lon="3.21822">
        <ele>1188</ele>
        <time>2012-09-11T07:59:23Z</time>
      </trkpt>
      <trkpt lat="44.71184" lon="3.21805">
        <ele>1190</ele>
        <time>2012-09-11T07:59:34Z</time>
      </trkpt>
      <trkpt lat="44.71185" lon="3.21785">
        <ele>1188</ele>
        <time>2012-09-11T07:59:46Z</time>
      </trkpt>
      <trkpt lat="44.71185" lon="3.21766">
        <ele>1187</ele>
        <time>2012-09-11T07:59:57Z</time>
      </trkpt>
      <trkpt lat="44.71188" lon="3.21747">
        <ele>1187</ele>
        <time>2012-09-11T08:00:09Z</time>
      </trkpt>
      <trkpt lat="44.71191" lon="3.21734">
        <ele>1188</ele>
        <time>2012-09-11T08:00:19Z</time>
      </trkpt>
      <trkpt lat="44.7119" lon="3.21712">
        <ele>1188</ele>
        <time>2012-09-11T08:00:31Z</time>
      </trkpt>
      <trkpt lat="44.71193" lon="3.21693">
        <ele>1192</ele>
        <time>2012-09-11T08:00:43Z</time>
      </trkpt>
      <trkpt lat="44.71193" lon="3.21675">
        <ele>1189</ele>
        <time>2012-09-11T08:00:55Z</time>
      </trkpt>
      <trkpt lat="44.71193" lon="3.21659">
        <ele>1197</ele>
        <time>2012-09-11T08:01:05Z</time>
      </trkpt>
      <trkpt lat="44.71185" lon="3.21639">
        <ele>1194</ele>
        <time>2012-09-11T08:01:17Z</time>
      </trkpt>
      <trkpt lat="44.71179" lon="3.21623">
        <ele>1201</ele>
        <time>2012-09-11T08:01:29Z</time>
      </trkpt>
      <trkpt lat="44.71174" lon="3.21612">
        <ele>1193</ele>
        <time>2012-09-11T08:01:39Z</time>
      </trkpt>
      <trkpt lat="44.71172" lon="3.21594">
        <ele>1194</ele>
        <time>2012-09-11T08:01:51Z</time>
      </trkpt>
      <trkpt lat="44.71171" lon="3.21575">
        <ele>1196</ele>
        <time>2012-09-11T08:02:03Z</time>
      </trkpt>
      <trkpt lat="44.71159" lon="3.21561">
        <ele>1197</ele>
        <time>2012-09-11T08:02:15Z</time>
      </trkpt>
      <trkpt lat="44.71152" lon="3.21545">
        <ele>1191</ele>
        <time>2012-09-11T08:02:25Z</time>
      </trkpt>
      <trkpt lat="44.71146" lon="3.21533">
        <ele>1193</ele>
        <time>2012-09-11T08:02:35Z</time>
      </trkpt>
      <trkpt lat="44.71136" lon="3.21522">
        <ele>1198</ele>
        <time>2012-09-11T08:02:53Z</time>
      </trkpt>
      <trkpt lat="44.71132" lon="3.21519">
        <ele>1192</ele>
        <time>2012-09-11T08:03:29Z</time>
      </trkpt>
      <trkpt lat="44.71129" lon="3.21507">
        <ele>1194</ele>
        <time>2012-09-11T08:03:39Z</time>
      </trkpt>
      <trkpt lat="44.71115" lon="3.2149">
        <ele>1196</ele>
        <time>2012-09-11T08:03:50Z</time>
      </trkpt>
      <trkpt lat="44.71107" lon="3.21474">
        <ele>1197</ele>
        <time>2012-09-11T08:04:02Z</time>
      </trkpt>
      <trkpt lat="44.71101" lon="3.21463">
        <ele>1198</ele>
        <time>2012-09-11T08:04:13Z</time>
      </trkpt>
      <trkpt lat="44.71093" lon="3.21451">
        <ele>1197</ele>
        <time>2012-09-11T08:04:24Z</time>
      </trkpt>
      <trkpt lat="44.71085" lon="3.21439">
        <ele>1195</ele>
        <time>2012-09-11T08:04:35Z</time>
      </trkpt>
      <trkpt lat="44.71078" lon="3.21425">
        <ele>1196</ele>
        <time>2012-09-11T08:04:48Z</time>
      </trkpt>
      <trkpt lat="44.71072" lon="3.21411">
        <ele>1189</ele>
        <time>2012-09-11T08:04:59Z</time>
      </trkpt>
      <trkpt lat="44.71066" lon="3.21399">
        <ele>1194</ele>
        <time>2012-09-11T08:05:09Z</time>
      </trkpt>
      <trkpt lat="44.71054" lon="3.21386">
        <ele>1192</ele>
        <time>2012-09-11T08:05:20Z</time>
      </trkpt>
      <trkpt lat="44.7105" lon="3.21369">
        <ele>1197</ele>
        <time>2012-09-11T08:05:30Z</time>
      </trkpt>
      <trkpt lat="44.71043" lon="3.2135">
        <ele>1192</ele>
        <time>2012-09-11T08:05:41Z</time>
      </trkpt>
      <trkpt lat="44.71037" lon="3.21329">
        <ele>1197</ele>
        <time>2012-09-11T08:05:52Z</time>
      </trkpt>
      <trkpt lat="44.71035" lon="3.21311">
        <ele>1194</ele>
        <time>2012-09-11T08:06:03Z</time>
      </trkpt>
      <trkpt lat="44.71036" lon="3.21292">
        <ele>1189</ele>
        <time>2012-09-11T08:06:14Z</time>
      </trkpt>
      <trkpt lat="44.71032" lon="3.21271">
        <ele>1200</ele>
        <time>2012-09-11T08:06:25Z</time>
      </trkpt>
      <trkpt lat="44.71029" lon="3.21258">
        <ele>1199</ele>
        <time>2012-09-11T08:06:35Z</time>
      </trkpt>
      <trkpt lat="44.71024" lon="3.21242">
        <ele>1195</ele>
        <time>2012-09-11T08:06:46Z</time>
      </trkpt>
      <trkpt lat="44.71019" lon="3.21226">
        <ele>1192</ele>
        <time>2012-09-11T08:06:57Z</time>
      </trkpt>
      <trkpt lat="44.71011" lon="3.21207">
        <ele>1198</ele>
        <time>2012-09-11T08:07:10Z</time>
      </trkpt>
      <trkpt lat="44.71" lon="3.21188">
        <ele>1193</ele>
        <time>2012-09-11T08:07:22Z</time>
      </trkpt>
      <trkpt lat="44.70997" lon="3.21171">
        <ele>1190</ele>
        <time>2012-09-11T08:07:33Z</time>
      </trkpt>
      <trkpt lat="44.70998" lon="3.21152">
        <ele>1189</ele>
        <time>2012-09-11T08:07:45Z</time>
      </trkpt>
      <trkpt lat="44.70998" lon="3.21137">
        <ele>1191</ele>
        <time>2012-09-11T08:07:55Z</time>
      </trkpt>
      <trkpt lat="44.70995" lon="3.21122">
        <ele>1192</ele>
        <time>2012-09-11T08:08:06Z</time>
      </trkpt>
      <trkpt lat="44.70988" lon="3.211">
        <ele>1192</ele>
        <time>2012-09-11T08:08:19Z</time>
      </trkpt>
      <trkpt lat="44.70985" lon="3.21077">
        <ele>1193</ele>
        <time>2012-09-11T08:08:31Z</time>
      </trkpt>
      <trkpt lat="44.70983" lon="3.21058">
        <ele>1197</ele>
        <time>2012-09-11T08:08:42Z</time>
      </trkpt>
      <trkpt lat="44.70973" lon="3.21045">
        <ele>1193</ele>
        <time>2012-09-11T08:08:52Z</time>
      </trkpt>
      <trkpt lat="44.70963" lon="3.21028">
        <ele>1193</ele>
        <time>2012-09-11T08:09:02Z</time>
      </trkpt>
      <trkpt lat="44.70956" lon="3.21008">
        <ele>1196</ele>
        <time>2012-09-11T08:09:16Z</time>
      </trkpt>
      <trkpt lat="44.70957" lon="3.20995">
        <ele>1189</ele>
        <time>2012-09-11T08:09:26Z</time>
      </trkpt>
      <trkpt lat="44.70954" lon="3.20978">
        <ele>1192</ele>
        <time>2012-09-11T08:09:38Z</time>
      </trkpt>
      <trkpt lat="44.70956" lon="3.20961">
        <ele>1192</ele>
        <time>2012-09-11T08:09:50Z</time>
      </trkpt>
      <trkpt lat="44.70951" lon="3.20939">
        <ele>1197</ele>
        <time>2012-09-11T08:10:01Z</time>
      </trkpt>
      <trkpt lat="44.7095" lon="3.20926">
        <ele>1186</ele>
        <time>2012-09-11T08:10:11Z</time>
      </trkpt>
      <trkpt lat="44.70953" lon="3.2091">
        <ele>1194</ele>
        <time>2012-09-11T08:10:23Z</time>
      </trkpt>
      <trkpt lat="44.70949" lon="3.20895">
        <ele>1186</ele>
        <time>2012-09-11T08:10:39Z</time>
      </trkpt>
      <trkpt lat="44.7095" lon="3.20886">
        <ele>1195</ele>
        <time>2012-09-11T08:10:52Z</time>
      </trkpt>
      <trkpt lat="44.7095" lon="3.20865">
        <ele>1185</ele>
        <time>2012-09-11T08:11:04Z</time>
      </trkpt>
      <trkpt lat="44.7095" lon="3.20851">
        <ele>1192</ele>
        <time>2012-09-11T08:11:14Z</time>
      </trkpt>
      <trkpt lat="44.70949" lon="3.20833">
        <ele>1188</ele>
        <time>2012-09-11T08:11:25Z</time>
      </trkpt>
      <trkpt lat="44.70946" lon="3.2081">
        <ele>1185</ele>
        <time>2012-09-11T08:11:37Z</time>
      </trkpt>
      <trkpt lat="44.70942" lon="3.20793">
        <ele>1186</ele>
        <time>2012-09-11T08:11:48Z</time>
      </trkpt>
      <trkpt lat="44.7094" lon="3.20771">
        <ele>1184</ele>
        <time>2012-09-11T08:12:00Z</time>
      </trkpt>
      <trkpt lat="44.70934" lon="3.20751">
        <ele>1184</ele>
        <time>2012-09-11T08:12:11Z</time>
      </trkpt>
      <trkpt lat="44.70931" lon="3.20734">
        <ele>1180</ele>
        <time>2012-09-11T08:12:22Z</time>
      </trkpt>
      <trkpt lat="44.70929" lon="3.20714">
        <ele>1182</ele>
        <time>2012-09-11T08:12:33Z</time>
      </trkpt>
      <trkpt lat="44.70926" lon="3.20698">
        <ele>1185</ele>
        <time>2012-09-11T08:12:43Z</time>
      </trkpt>
      <trkpt lat="44.70921" lon="3.20678">
        <ele>1178</ele>
        <time>2012-09-11T08:12:55Z</time>
      </trkpt>
      <trkpt lat="44.70921" lon="3.20656">
        <ele>1179</ele>
        <time>2012-09-11T08:13:06Z</time>
      </trkpt>
      <trkpt lat="44.70914" lon="3.20638">
        <ele>1181</ele>
        <time>2012-09-11T08:13:17Z</time>
      </trkpt>
      <trkpt lat="44.70906" lon="3.20621">
        <ele>1190</ele>
        <time>2012-09-11T08:13:29Z</time>
      </trkpt>
      <trkpt lat="44.70896" lon="3.20607">
        <ele>1182</ele>
        <time>2012-09-11T08:13:42Z</time>
      </trkpt>
      <trkpt lat="44.70889" lon="3.20593">
        <ele>1173</ele>
        <time>2012-09-11T08:13:53Z</time>
      </trkpt>
      <trkpt lat="44.70879" lon="3.20575">
        <ele>1174</ele>
        <time>2012-09-11T08:14:05Z</time>
      </trkpt>
      <trkpt lat="44.70867" lon="3.20557">
        <ele>1174</ele>
        <time>2012-09-11T08:14:16Z</time>
      </trkpt>
      <trkpt lat="44.7086" lon="3.20539">
        <ele>1177</ele>
        <time>2012-09-11T08:14:27Z</time>
      </trkpt>
      <trkpt lat="44.70856" lon="3.20522">
        <ele>1181</ele>
        <time>2012-09-11T08:14:38Z</time>
      </trkpt>
      <trkpt lat="44.70856" lon="3.20505">
        <ele>1175</ele>
        <time>2012-09-11T08:14:48Z</time>
      </trkpt>
      <trkpt lat="44.70859" lon="3.20487">
        <ele>1169</ele>
        <time>2012-09-11T08:14:59Z</time>
      </trkpt>
      <trkpt lat="44.70861" lon="3.20471">
        <ele>1179</ele>
        <time>2012-09-11T08:15:10Z</time>
      </trkpt>
      <trkpt lat="44.70862" lon="3.20451">
        <ele>1175</ele>
        <time>2012-09-11T08:15:21Z</time>
      </trkpt>
      <trkpt lat="44.70858" lon="3.20434">
        <ele>1176</ele>
        <time>2012-09-11T08:15:33Z</time>
      </trkpt>
      <trkpt lat="44.70852" lon="3.20417">
        <ele>1178</ele>
        <time>2012-09-11T08:15:43Z</time>
      </trkpt>
      <trkpt lat="44.70845" lon="3.20399">
        <ele>1185</ele>
        <time>2012-09-11T08:15:54Z</time>
      </trkpt>
      <trkpt lat="44.70841" lon="3.20395">
        <ele>1197</ele>
        <time>2012-09-11T08:17:41Z</time>
      </trkpt>
      <trkpt lat="44.7084" lon="3.20391">
        <ele>1185</ele>
        <time>2012-09-11T08:17:55Z</time>
      </trkpt>
      <trkpt lat="44.70831" lon="3.20377">
        <ele>1188</ele>
        <time>2012-09-11T08:18:07Z</time>
      </trkpt>
      <trkpt lat="44.70827" lon="3.20364">
        <ele>1184</ele>
        <time>2012-09-11T08:18:18Z</time>
      </trkpt>
      <trkpt lat="44.70818" lon="3.20345">
        <ele>1188</ele>
        <time>2012-09-11T08:18:30Z</time>
      </trkpt>
      <trkpt lat="44.70811" lon="3.20329">
        <ele>1180</ele>
        <time>2012-09-11T08:18:43Z</time>
      </trkpt>
      <trkpt lat="44.70802" lon="3.20318">
        <ele>1182</ele>
        <time>2012-09-11T08:18:55Z</time>
      </trkpt>
      <trkpt lat="44.70792" lon="3.20305">
        <ele>1184</ele>
        <time>2012-09-11T08:19:07Z</time>
      </trkpt>
      <trkpt lat="44.70782" lon="3.20294">
        <ele>1185</ele>
        <time>2012-09-11T08:19:18Z</time>
      </trkpt>
      <trkpt lat="44.7077" lon="3.20281">
        <ele>1186</ele>
        <time>2012-09-11T08:19:30Z</time>
      </trkpt>
      <trkpt lat="44.70758" lon="3.20271">
        <ele>1190</ele>
        <time>2012-09-11T08:19:40Z</time>
      </trkpt>
      <trkpt lat="44.70749" lon="3.20261">
        <ele>1188</ele>
        <time>2012-09-11T08:19:50Z</time>
      </trkpt>
      <trkpt lat="44.70738" lon="3.20247">
        <ele>1188</ele>
        <time>2012-09-11T08:20:01Z</time>
      </trkpt>
      <trkpt lat="44.70736" lon="3.2023">
        <ele>1184</ele>
        <time>2012-09-11T08:20:12Z</time>
      </trkpt>
      <trkpt lat="44.70736" lon="3.20214">
        <ele>1187</ele>
        <time>2012-09-11T08:20:23Z</time>
      </trkpt>
      <trkpt lat="44.70737" lon="3.20196">
        <ele>1193</ele>
        <time>2012-09-11T08:20:36Z</time>
      </trkpt>
      <trkpt lat="44.7074" lon="3.2018">
        <ele>1197</ele>
        <time>2012-09-11T08:20:47Z</time>
      </trkpt>
      <trkpt lat="44.70739" lon="3.20161">
        <ele>1197</ele>
        <time>2012-09-11T08:20:57Z</time>
      </trkpt>
      <trkpt lat="44.70737" lon="3.20145">
        <ele>1191</ele>
        <time>2012-09-11T08:21:08Z</time>
      </trkpt>
      <trkpt lat="44.70732" lon="3.2013">
        <ele>1191</ele>
        <time>2012-09-11T08:21:18Z</time>
      </trkpt>
      <trkpt lat="44.70726" lon="3.20114">
        <ele>1198</ele>
        <time>2012-09-11T08:21:30Z</time>
      </trkpt>
      <trkpt lat="44.70715" lon="3.20098">
        <ele>1201</ele>
        <time>2012-09-11T08:21:43Z</time>
      </trkpt>
      <trkpt lat="44.70713" lon="3.20085">
        <ele>1202</ele>
        <time>2012-09-11T08:21:53Z</time>
      </trkpt>
      <trkpt lat="44.70714" lon="3.20068">
        <ele>1191</ele>
        <time>2012-09-11T08:22:07Z</time>
      </trkpt>
      <trkpt lat="44.70717" lon="3.20051">
        <ele>1193</ele>
        <time>2012-09-11T08:22:18Z</time>
      </trkpt>
      <trkpt lat="44.70708" lon="3.20033">
        <ele>1199</ele>
        <time>2012-09-11T08:22:31Z</time>
      </trkpt>
      <trkpt lat="44.70705" lon="3.20016">
        <ele>1199</ele>
        <time>2012-09-11T08:22:44Z</time>
      </trkpt>
      <trkpt lat="44.70694" lon="3.19997">
        <ele>1202</ele>
        <time>2012-09-11T08:22:56Z</time>
      </trkpt>
      <trkpt lat="44.7069" lon="3.19989">
        <ele>1198</ele>
        <time>2012-09-11T08:23:37Z</time>
      </trkpt>
      <trkpt lat="44.70683" lon="3.19976">
        <ele>1197</ele>
        <time>2012-09-11T08:23:48Z</time>
      </trkpt>
      <trkpt lat="44.7068" lon="3.19965">
        <ele>1199</ele>
        <time>2012-09-11T08:24:01Z</time>
      </trkpt>
      <trkpt lat="44.70681" lon="3.19953">
        <ele>1205</ele>
        <time>2012-09-11T08:24:12Z</time>
      </trkpt>
      <trkpt lat="44.70679" lon="3.19934">
        <ele>1212</ele>
        <time>2012-09-11T08:24:25Z</time>
      </trkpt>
      <trkpt lat="44.70672" lon="3.19919">
        <ele>1209</ele>
        <time>2012-09-11T08:24:36Z</time>
      </trkpt>
      <trkpt lat="44.70665" lon="3.19902">
        <ele>1206</ele>
        <time>2012-09-11T08:24:47Z</time>
      </trkpt>
      <trkpt lat="44.70663" lon="3.19883">
        <ele>1212</ele>
        <time>2012-09-11T08:24:59Z</time>
      </trkpt>
      <trkpt lat="44.7066" lon="3.19866">
        <ele>1219</ele>
        <time>2012-09-11T08:25:11Z</time>
      </trkpt>
      <trkpt lat="44.70664" lon="3.19855">
        <ele>1217</ele>
        <time>2012-09-11T08:25:22Z</time>
      </trkpt>
      <trkpt lat="44.70661" lon="3.1984">
        <ele>1217</ele>
        <time>2012-09-11T08:25:33Z</time>
      </trkpt>
      <trkpt lat="44.70667" lon="3.19824">
        <ele>1214</ele>
        <time>2012-09-11T08:25:45Z</time>
      </trkpt>
      <trkpt lat="44.70665" lon="3.19808">
        <ele>1210</ele>
        <time>2012-09-11T08:25:55Z</time>
      </trkpt>
      <trkpt lat="44.70673" lon="3.19793">
        <ele>1211</ele>
        <time>2012-09-11T08:26:08Z</time>
      </trkpt>
      <trkpt lat="44.7068" lon="3.1978">
        <ele>1213</ele>
        <time>2012-09-11T08:26:19Z</time>
      </trkpt>
      <trkpt lat="44.70683" lon="3.19774">
        <ele>1216</ele>
        <time>2012-09-11T08:27:21Z</time>
      </trkpt>
      <trkpt lat="44.70684" lon="3.19758">
        <ele>1209</ele>
        <time>2012-09-11T08:27:32Z</time>
      </trkpt>
      <trkpt lat="44.70687" lon="3.19745">
        <ele>1213</ele>
        <time>2012-09-11T08:27:42Z</time>
      </trkpt>
      <trkpt lat="44.70689" lon="3.19727">
        <ele>1212</ele>
        <time>2012-09-11T08:27:54Z</time>
      </trkpt>
      <trkpt lat="44.70691" lon="3.19709">
        <ele>1218</ele>
        <time>2012-09-11T08:28:06Z</time>
      </trkpt>
      <trkpt lat="44.70695" lon="3.19692">
        <ele>1214</ele>
        <time>2012-09-11T08:28:18Z</time>
      </trkpt>
      <trkpt lat="44.70699" lon="3.19679">
        <ele>1216</ele>
        <time>2012-09-11T08:28:28Z</time>
      </trkpt>
      <trkpt lat="44.70702" lon="3.19663">
        <ele>1219</ele>
        <time>2012-09-11T08:28:39Z</time>
      </trkpt>
      <trkpt lat="44.70705" lon="3.19647">
        <ele>1213</ele>
        <time>2012-09-11T08:28:51Z</time>
      </trkpt>
      <trkpt lat="44.7071" lon="3.19632">
        <ele>1219</ele>
        <time>2012-09-11T08:29:02Z</time>
      </trkpt>
      <trkpt lat="44.7071" lon="3.19614">
        <ele>1227</ele>
        <time>2012-09-11T08:29:13Z</time>
      </trkpt>
      <trkpt lat="44.70699" lon="3.19592">
        <ele>1219</ele>
        <time>2012-09-11T08:29:24Z</time>
      </trkpt>
      <trkpt lat="44.70697" lon="3.19573">
        <ele>1216</ele>
        <time>2012-09-11T08:29:35Z</time>
      </trkpt>
      <trkpt lat="44.70694" lon="3.19555">
        <ele>1226</ele>
        <time>2012-09-11T08:29:46Z</time>
      </trkpt>
      <trkpt lat="44.70695" lon="3.19535">
        <ele>1226</ele>
        <time>2012-09-11T08:29:58Z</time>
      </trkpt>
      <trkpt lat="44.70697" lon="3.19516">
        <ele>1229</ele>
        <time>2012-09-11T08:30:10Z</time>
      </trkpt>
      <trkpt lat="44.70698" lon="3.195">
        <ele>1229</ele>
        <time>2012-09-11T08:30:21Z</time>
      </trkpt>
      <trkpt lat="44.70702" lon="3.19483">
        <ele>1226</ele>
        <time>2012-09-11T08:30:33Z</time>
      </trkpt>
      <trkpt lat="44.70701" lon="3.19466">
        <ele>1225</ele>
        <time>2012-09-11T08:30:43Z</time>
      </trkpt>
      <trkpt lat="44.70701" lon="3.19448">
        <ele>1230</ele>
        <time>2012-09-11T08:30:55Z</time>
      </trkpt>
      <trkpt lat="44.70695" lon="3.1943">
        <ele>1228</ele>
        <time>2012-09-11T08:31:05Z</time>
      </trkpt>
      <trkpt lat="44.70696" lon="3.19425">
        <ele>1224</ele>
        <time>2012-09-11T08:31:19Z</time>
      </trkpt>
      <trkpt lat="44.70699" lon="3.19407">
        <ele>1224</ele>
        <time>2012-09-11T08:31:30Z</time>
      </trkpt>
      <trkpt lat="44.70698" lon="3.19397">
        <ele>1219</ele>
        <time>2012-09-11T08:31:42Z</time>
      </trkpt>
      <trkpt lat="44.70691" lon="3.19381">
        <ele>1221</ele>
        <time>2012-09-11T08:31:53Z</time>
      </trkpt>
      <trkpt lat="44.70686" lon="3.19364">
        <ele>1227</ele>
        <time>2012-09-11T08:32:06Z</time>
      </trkpt>
      <trkpt lat="44.70686" lon="3.19345">
        <ele>1226</ele>
        <time>2012-09-11T08:32:18Z</time>
      </trkpt>
      <trkpt lat="44.70688" lon="3.19329">
        <ele>1237</ele>
        <time>2012-09-11T08:32:30Z</time>
      </trkpt>
      <trkpt lat="44.70686" lon="3.19311">
        <ele>1234</ele>
        <time>2012-09-11T08:32:41Z</time>
      </trkpt>
      <trkpt lat="44.70688" lon="3.19293">
        <ele>1227</ele>
        <time>2012-09-11T08:32:53Z</time>
      </trkpt>
      <trkpt lat="44.70685" lon="3.19272">
        <ele>1228</ele>
        <time>2012-09-11T08:33:06Z</time>
      </trkpt>
      <trkpt lat="44.70673" lon="3.19268">
        <ele>1231</ele>
        <time>2012-09-11T08:33:19Z</time>
      </trkpt>
      <trkpt lat="44.70676" lon="3.19269">
        <ele>1224</ele>
        <time>2012-09-11T08:33:32Z</time>
      </trkpt>
      <trkpt lat="44.70687" lon="3.19281">
        <ele>1233</ele>
        <time>2012-09-11T08:34:44Z</time>
      </trkpt>
      <trkpt lat="44.70676" lon="3.19283">
        <ele>1222</ele>
        <time>2012-09-11T08:34:55Z</time>
      </trkpt>
      <trkpt lat="44.7067" lon="3.19278">
        <ele>1217</ele>
        <time>2012-09-11T08:35:07Z</time>
      </trkpt>
      <trkpt lat="44.70676" lon="3.19286">
        <ele>1221</ele>
        <time>2012-09-11T08:35:25Z</time>
      </trkpt>
      <trkpt lat="44.70682" lon="3.19275">
        <ele>1221</ele>
        <time>2012-09-11T08:35:35Z</time>
      </trkpt>
      <trkpt lat="44.7068" lon="3.19274">
        <ele>1217</ele>
        <time>2012-09-11T08:35:54Z</time>
      </trkpt>
      <trkpt lat="44.70676" lon="3.19271">
        <ele>1229</ele>
        <time>2012-09-11T08:36:29Z</time>
      </trkpt>
      <trkpt lat="44.7067" lon="3.1927">
        <ele>1230</ele>
        <time>2012-09-11T08:37:04Z</time>
      </trkpt>
      <trkpt lat="44.70669" lon="3.19274">
        <ele>1238</ele>
        <time>2012-09-11T08:38:58Z</time>
      </trkpt>
      <trkpt lat="44.7067" lon="3.19273">
        <ele>1233</ele>
        <time>2012-09-11T08:39:53Z</time>
      </trkpt>
      <trkpt lat="44.70673" lon="3.19271">
        <ele>1241</ele>
        <time>2012-09-11T08:40:08Z</time>
      </trkpt>
      <trkpt lat="44.70676" lon="3.19269">
        <ele>1240</ele>
        <time>2012-09-11T08:40:19Z</time>
      </trkpt>
      <trkpt lat="44.70682" lon="3.19264">
        <ele>1247</ele>
        <time>2012-09-11T08:40:33Z</time>
      </trkpt>
      <trkpt lat="44.70679" lon="3.19262">
        <ele>1260</ele>
        <time>2012-09-11T08:41:03Z</time>
      </trkpt>
      <trkpt lat="44.70682" lon="3.19261">
        <ele>1250</ele>
        <time>2012-09-11T08:41:19Z</time>
      </trkpt>
      <trkpt lat="44.70679" lon="3.19263">
        <ele>1257</ele>
        <time>2012-09-11T08:41:59Z</time>
      </trkpt>
      <trkpt lat="44.70675" lon="3.19262">
        <ele>1253</ele>
        <time>2012-09-11T08:42:24Z</time>
      </trkpt>
      <trkpt lat="44.70678" lon="3.19261">
        <ele>1240</ele>
        <time>2012-09-11T08:43:20Z</time>
      </trkpt>
      <trkpt lat="44.7068" lon="3.19264">
        <ele>1236</ele>
        <time>2012-09-11T08:43:38Z</time>
      </trkpt>
      <trkpt lat="44.70679" lon="3.1926">
        <ele>1238</ele>
        <time>2012-09-11T08:45:19Z</time>
      </trkpt>
      <trkpt lat="44.7068" lon="3.19265">
        <ele>1230</ele>
        <time>2012-09-11T08:45:49Z</time>
      </trkpt>
      <trkpt lat="44.70677" lon="3.19266">
        <ele>1243</ele>
        <time>2012-09-11T08:47:38Z</time>
      </trkpt>
      <trkpt lat="44.70675" lon="3.19267">
        <ele>1239</ele>
        <time>2012-09-11T08:49:57Z</time>
      </trkpt>
      <trkpt lat="44.70675" lon="3.19272">
        <ele>1231</ele>
        <time>2012-09-11T08:51:28Z</time>
      </trkpt>
      <trkpt lat="44.70676" lon="3.19275">
        <ele>1249</ele>
        <time>2012-09-11T08:53:42Z</time>
      </trkpt>
      <trkpt lat="44.70675" lon="3.19274">
        <ele>1228</ele>
        <time>2012-09-11T08:55:17Z</time>
      </trkpt>
      <trkpt lat="44.70673" lon="3.19272">
        <ele>1231</ele>
        <time>2012-09-11T08:55:42Z</time>
      </trkpt>
      <trkpt lat="44.70675" lon="3.19269">
        <ele>1225</ele>
        <time>2012-09-11T08:56:13Z</time>
      </trkpt>
      <trkpt lat="44.70672" lon="3.1927">
        <ele>1231</ele>
        <time>2012-09-11T09:02:50Z</time>
      </trkpt>
      <trkpt lat="44.70675" lon="3.19273">
        <ele>1234</ele>
        <time>2012-09-11T09:03:19Z</time>
      </trkpt>
      <trkpt lat="44.70678" lon="3.19271">
        <ele>1230</ele>
        <time>2012-09-11T09:03:32Z</time>
      </trkpt>
      <trkpt lat="44.70683" lon="3.19272">
        <ele>1233</ele>
        <time>2012-09-11T09:03:55Z</time>
      </trkpt>
      <trkpt lat="44.70679" lon="3.19273">
        <ele>1228</ele>
        <time>2012-09-11T09:04:14Z</time>
      </trkpt>
      <trkpt lat="44.70675" lon="3.19263">
        <ele>1235</ele>
        <time>2012-09-11T09:04:25Z</time>
      </trkpt>
      <trkpt lat="44.70671" lon="3.19256">
        <ele>1234</ele>
        <time>2012-09-11T09:04:35Z</time>
      </trkpt>
      <trkpt lat="44.70675" lon="3.19262">
        <ele>1227</ele>
        <time>2012-09-11T09:04:54Z</time>
      </trkpt>
      <trkpt lat="44.70678" lon="3.19261">
        <ele>1222</ele>
        <time>2012-09-11T09:05:45Z</time>
      </trkpt>
      <trkpt lat="44.70686" lon="3.19248">
        <ele>1226</ele>
        <time>2012-09-11T09:05:57Z</time>
      </trkpt>
      <trkpt lat="44.70686" lon="3.19233">
        <ele>1220</ele>
        <time>2012-09-11T09:06:07Z</time>
      </trkpt>
      <trkpt lat="44.70686" lon="3.19214">
        <ele>1220</ele>
        <time>2012-09-11T09:06:20Z</time>
      </trkpt>
      <trkpt lat="44.70687" lon="3.19198">
        <ele>1225</ele>
        <time>2012-09-11T09:06:32Z</time>
      </trkpt>
      <trkpt lat="44.70686" lon="3.19182">
        <ele>1221</ele>
        <time>2012-09-11T09:06:42Z</time>
      </trkpt>
      <trkpt lat="44.70687" lon="3.19163">
        <ele>1224</ele>
        <time>2012-09-11T09:06:55Z</time>
      </trkpt>
      <trkpt lat="44.70686" lon="3.19144">
        <ele>1224</ele>
        <time>2012-09-11T09:07:08Z</time>
      </trkpt>
      <trkpt lat="44.70687" lon="3.19126">
        <ele>1220</ele>
        <time>2012-09-11T09:07:19Z</time>
      </trkpt>
      <trkpt lat="44.70687" lon="3.19106">
        <ele>1222</ele>
        <time>2012-09-11T09:07:31Z</time>
      </trkpt>
      <trkpt lat="44.70688" lon="3.19088">
        <ele>1222</ele>
        <time>2012-09-11T09:07:42Z</time>
      </trkpt>
      <trkpt lat="44.70687" lon="3.19068">
        <ele>1220</ele>
        <time>2012-09-11T09:07:54Z</time>
      </trkpt>
      <trkpt lat="44.70687" lon="3.19048">
        <ele>1221</ele>
        <time>2012-09-11T09:08:06Z</time>
      </trkpt>
      <trkpt lat="44.70688" lon="3.1903">
        <ele>1223</ele>
        <time>2012-09-11T09:08:18Z</time>
      </trkpt>
      <trkpt lat="44.70688" lon="3.19014">
        <ele>1223</ele>
        <time>2012-09-11T09:08:31Z</time>
      </trkpt>
      <trkpt lat="44.70689" lon="3.18997">
        <ele>1224</ele>
        <time>2012-09-11T09:08:42Z</time>
      </trkpt>
      <trkpt lat="44.7069" lon="3.18979">
        <ele>1227</ele>
        <time>2012-09-11T09:08:52Z</time>
      </trkpt>
      <trkpt lat="44.70691" lon="3.1896">
        <ele>1228</ele>
        <time>2012-09-11T09:09:04Z</time>
      </trkpt>
      <trkpt lat="44.70691" lon="3.1894">
        <ele>1225</ele>
        <time>2012-09-11T09:09:15Z</time>
      </trkpt>
      <trkpt lat="44.70691" lon="3.1892">
        <ele>1227</ele>
        <time>2012-09-11T09:09:27Z</time>
      </trkpt>
      <trkpt lat="44.70693" lon="3.189">
        <ele>1222</ele>
        <time>2012-09-11T09:09:38Z</time>
      </trkpt>
      <trkpt lat="44.70697" lon="3.18883">
        <ele>1224</ele>
        <time>2012-09-11T09:09:49Z</time>
      </trkpt>
      <trkpt lat="44.70694" lon="3.18878">
        <ele>1220</ele>
        <time>2012-09-11T09:10:10Z</time>
      </trkpt>
      <trkpt lat="44.70689" lon="3.18861">
        <ele>1225</ele>
        <time>2012-09-11T09:10:22Z</time>
      </trkpt>
      <trkpt lat="44.70683" lon="3.18848">
        <ele>1225</ele>
        <time>2012-09-11T09:10:33Z</time>
      </trkpt>
      <trkpt lat="44.70676" lon="3.18836">
        <ele>1224</ele>
        <time>2012-09-11T09:10:43Z</time>
      </trkpt>
      <trkpt lat="44.70672" lon="3.18824">
        <ele>1228</ele>
        <time>2012-09-11T09:10:54Z</time>
      </trkpt>
      <trkpt lat="44.70666" lon="3.18809">
        <ele>1231</ele>
        <time>2012-09-11T09:11:06Z</time>
      </trkpt>
      <trkpt lat="44.70657" lon="3.18796">
        <ele>1226</ele>
        <time>2012-09-11T09:11:18Z</time>
      </trkpt>
      <trkpt lat="44.70649" lon="3.18787">
        <ele>1227</ele>
        <time>2012-09-11T09:11:31Z</time>
      </trkpt>
      <trkpt lat="44.70644" lon="3.18776">
        <ele>1227</ele>
        <time>2012-09-11T09:12:03Z</time>
      </trkpt>
      <trkpt lat="44.70637" lon="3.18763">
        <ele>1228</ele>
        <time>2012-09-11T09:12:15Z</time>
      </trkpt>
      <trkpt lat="44.7063" lon="3.18746">
        <ele>1222</ele>
        <time>2012-09-11T09:12:26Z</time>
      </trkpt>
      <trkpt lat="44.70627" lon="3.18735">
        <ele>1225</ele>
        <time>2012-09-11T09:12:41Z</time>
      </trkpt>
      <trkpt lat="44.70625" lon="3.18731">
        <ele>1226</ele>
        <time>2012-09-11T09:12:55Z</time>
      </trkpt>
      <trkpt lat="44.7062" lon="3.18719">
        <ele>1223</ele>
        <time>2012-09-11T09:13:05Z</time>
      </trkpt>
      <trkpt lat="44.70616" lon="3.18701">
        <ele>1224</ele>
        <time>2012-09-11T09:13:17Z</time>
      </trkpt>
      <trkpt lat="44.7061" lon="3.18684">
        <ele>1222</ele>
        <time>2012-09-11T09:13:29Z</time>
      </trkpt>
      <trkpt lat="44.70606" lon="3.18669">
        <ele>1225</ele>
        <time>2012-09-11T09:13:41Z</time>
      </trkpt>
      <trkpt lat="44.70601" lon="3.18652">
        <ele>1218</ele>
        <time>2012-09-11T09:13:52Z</time>
      </trkpt>
      <trkpt lat="44.70594" lon="3.18637">
        <ele>1223</ele>
        <time>2012-09-11T09:14:03Z</time>
      </trkpt>
      <trkpt lat="44.70588" lon="3.1862">
        <ele>1221</ele>
        <time>2012-09-11T09:14:15Z</time>
      </trkpt>
      <trkpt lat="44.70584" lon="3.18615">
        <ele>1223</ele>
        <time>2012-09-11T09:15:02Z</time>
      </trkpt>
      <trkpt lat="44.70585" lon="3.18619">
        <ele>1216</ele>
        <time>2012-09-11T09:15:20Z</time>
      </trkpt>
      <trkpt lat="44.70585" lon="3.18615">
        <ele>1221</ele>
        <time>2012-09-11T09:15:44Z</time>
      </trkpt>
      <trkpt lat="44.70584" lon="3.18606">
        <ele>1223</ele>
        <time>2012-09-11T09:15:56Z</time>
      </trkpt>
      <trkpt lat="44.70578" lon="3.1859">
        <ele>1222</ele>
        <time>2012-09-11T09:16:08Z</time>
      </trkpt>
      <trkpt lat="44.70571" lon="3.18574">
        <ele>1219</ele>
        <time>2012-09-11T09:16:19Z</time>
      </trkpt>
      <trkpt lat="44.70566" lon="3.18558">
        <ele>1219</ele>
        <time>2012-09-11T09:16:31Z</time>
      </trkpt>
      <trkpt lat="44.7056" lon="3.18541">
        <ele>1221</ele>
        <time>2012-09-11T09:16:44Z</time>
      </trkpt>
      <trkpt lat="44.70554" lon="3.18524">
        <ele>1220</ele>
        <time>2012-09-11T09:16:56Z</time>
      </trkpt>
      <trkpt lat="44.70549" lon="3.18509">
        <ele>1220</ele>
        <time>2012-09-11T09:17:08Z</time>
      </trkpt>
      <trkpt lat="44.70544" lon="3.18495">
        <ele>1217</ele>
        <time>2012-09-11T09:17:18Z</time>
      </trkpt>
      <trkpt lat="44.70538" lon="3.18479">
        <ele>1216</ele>
        <time>2012-09-11T09:17:28Z</time>
      </trkpt>
      <trkpt lat="44.70532" lon="3.18462">
        <ele>1217</ele>
        <time>2012-09-11T09:17:40Z</time>
      </trkpt>
      <trkpt lat="44.70526" lon="3.18445">
        <ele>1218</ele>
        <time>2012-09-11T09:17:51Z</time>
      </trkpt>
      <trkpt lat="44.7052" lon="3.18429">
        <ele>1220</ele>
        <time>2012-09-11T09:18:04Z</time>
      </trkpt>
      <trkpt lat="44.70514" lon="3.18413">
        <ele>1218</ele>
        <time>2012-09-11T09:18:15Z</time>
      </trkpt>
      <trkpt lat="44.7051" lon="3.184">
        <ele>1219</ele>
        <time>2012-09-11T09:18:26Z</time>
      </trkpt>
      <trkpt lat="44.70504" lon="3.18384">
        <ele>1218</ele>
        <time>2012-09-11T09:18:38Z</time>
      </trkpt>
      <trkpt lat="44.70499" lon="3.18368">
        <ele>1216</ele>
        <time>2012-09-11T09:18:50Z</time>
      </trkpt>
      <trkpt lat="44.70494" lon="3.18353">
        <ele>1213</ele>
        <time>2012-09-11T09:19:02Z</time>
      </trkpt>
      <trkpt lat="44.70487" lon="3.18337">
        <ele>1216</ele>
        <time>2012-09-11T09:19:15Z</time>
      </trkpt>
      <trkpt lat="44.70483" lon="3.1832">
        <ele>1216</ele>
        <time>2012-09-11T09:19:27Z</time>
      </trkpt>
      <trkpt lat="44.70478" lon="3.18308">
        <ele>1214</ele>
        <time>2012-09-11T09:19:38Z</time>
      </trkpt>
      <trkpt lat="44.70476" lon="3.18305">
        <ele>1218</ele>
        <time>2012-09-11T09:19:53Z</time>
      </trkpt>
      <trkpt lat="44.70472" lon="3.18289">
        <ele>1220</ele>
        <time>2012-09-11T09:20:05Z</time>
      </trkpt>
      <trkpt lat="44.70467" lon="3.18272">
        <ele>1212</ele>
        <time>2012-09-11T09:20:17Z</time>
      </trkpt>
      <trkpt lat="44.70462" lon="3.18256">
        <ele>1213</ele>
        <time>2012-09-11T09:20:29Z</time>
      </trkpt>
      <trkpt lat="44.70458" lon="3.18244">
        <ele>1209</ele>
        <time>2012-09-11T09:20:40Z</time>
      </trkpt>
      <trkpt lat="44.70453" lon="3.18225">
        <ele>1211</ele>
        <time>2012-09-11T09:20:51Z</time>
      </trkpt>
      <trkpt lat="44.70446" lon="3.18208">
        <ele>1214</ele>
        <time>2012-09-11T09:21:05Z</time>
      </trkpt>
      <trkpt lat="44.70441" lon="3.18191">
        <ele>1215</ele>
        <time>2012-09-11T09:21:16Z</time>
      </trkpt>
      <trkpt lat="44.70438" lon="3.18179">
        <ele>1213</ele>
        <time>2012-09-11T09:21:27Z</time>
      </trkpt>
      <trkpt lat="44.70433" lon="3.18167">
        <ele>1215</ele>
        <time>2012-09-11T09:21:37Z</time>
      </trkpt>
      <trkpt lat="44.70429" lon="3.18156">
        <ele>1211</ele>
        <time>2012-09-11T09:21:48Z</time>
      </trkpt>
      <trkpt lat="44.70425" lon="3.18139">
        <ele>1220</ele>
        <time>2012-09-11T09:22:00Z</time>
      </trkpt>
      <trkpt lat="44.70421" lon="3.18123">
        <ele>1215</ele>
        <time>2012-09-11T09:22:13Z</time>
      </trkpt>
      <trkpt lat="44.7042" lon="3.18111">
        <ele>1215</ele>
        <time>2012-09-11T09:22:24Z</time>
      </trkpt>
      <trkpt lat="44.70419" lon="3.18102">
        <ele>1207</ele>
        <time>2012-09-11T09:22:38Z</time>
      </trkpt>
      <trkpt lat="44.70417" lon="3.18088">
        <ele>1209</ele>
        <time>2012-09-11T09:22:49Z</time>
      </trkpt>
      <trkpt lat="44.70416" lon="3.18071">
        <ele>1208</ele>
        <time>2012-09-11T09:23:01Z</time>
      </trkpt>
      <trkpt lat="44.70416" lon="3.18055">
        <ele>1210</ele>
        <time>2012-09-11T09:23:12Z</time>
      </trkpt>
      <trkpt lat="44.70415" lon="3.18041">
        <ele>1211</ele>
        <time>2012-09-11T09:23:23Z</time>
      </trkpt>
      <trkpt lat="44.70412" lon="3.18028">
        <ele>1209</ele>
        <time>2012-09-11T09:23:36Z</time>
      </trkpt>
      <trkpt lat="44.70411" lon="3.18009">
        <ele>1207</ele>
        <time>2012-09-11T09:23:47Z</time>
      </trkpt>
      <trkpt lat="44.70409" lon="3.17996">
        <ele>1206</ele>
        <time>2012-09-11T09:23:57Z</time>
      </trkpt>
      <trkpt lat="44.70408" lon="3.17979">
        <ele>1206</ele>
        <time>2012-09-11T09:24:08Z</time>
      </trkpt>
      <trkpt lat="44.70407" lon="3.1796">
        <ele>1207</ele>
        <time>2012-09-11T09:24:21Z</time>
      </trkpt>
      <trkpt lat="44.70404" lon="3.17942">
        <ele>1208</ele>
        <time>2012-09-11T09:24:33Z</time>
      </trkpt>
      <trkpt lat="44.70404" lon="3.1793">
        <ele>1207</ele>
        <time>2012-09-11T09:24:43Z</time>
      </trkpt>
      <trkpt lat="44.70403" lon="3.17917">
        <ele>1204</ele>
        <time>2012-09-11T09:24:54Z</time>
      </trkpt>
      <trkpt lat="44.70399" lon="3.17903">
        <ele>1204</ele>
        <time>2012-09-11T09:25:04Z</time>
      </trkpt>
      <trkpt lat="44.70392" lon="3.17892">
        <ele>1205</ele>
        <time>2012-09-11T09:25:15Z</time>
      </trkpt>
      <trkpt lat="44.70384" lon="3.17877">
        <ele>1206</ele>
        <time>2012-09-11T09:25:28Z</time>
      </trkpt>
      <trkpt lat="44.70377" lon="3.17863">
        <ele>1203</ele>
        <time>2012-09-11T09:25:40Z</time>
      </trkpt>
      <trkpt lat="44.70371" lon="3.17853">
        <ele>1204</ele>
        <time>2012-09-11T09:25:51Z</time>
      </trkpt>
      <trkpt lat="44.70364" lon="3.17844">
        <ele>1202</ele>
        <time>2012-09-11T09:26:02Z</time>
      </trkpt>
      <trkpt lat="44.70358" lon="3.17834">
        <ele>1207</ele>
        <time>2012-09-11T09:26:14Z</time>
      </trkpt>
      <trkpt lat="44.70353" lon="3.17821">
        <ele>1209</ele>
        <time>2012-09-11T09:26:25Z</time>
      </trkpt>
      <trkpt lat="44.70349" lon="3.17811">
        <ele>1208</ele>
        <time>2012-09-11T09:27:01Z</time>
      </trkpt>
      <trkpt lat="44.70342" lon="3.17794">
        <ele>1204</ele>
        <time>2012-09-11T09:27:13Z</time>
      </trkpt>
      <trkpt lat="44.70337" lon="3.17782">
        <ele>1205</ele>
        <time>2012-09-11T09:27:24Z</time>
      </trkpt>
      <trkpt lat="44.7033" lon="3.17772">
        <ele>1209</ele>
        <time>2012-09-11T09:27:35Z</time>
      </trkpt>
      <trkpt lat="44.70322" lon="3.17758">
        <ele>1209</ele>
        <time>2012-09-11T09:27:46Z</time>
      </trkpt>
      <trkpt lat="44.70317" lon="3.17742">
        <ele>1208</ele>
        <time>2012-09-11T09:27:58Z</time>
      </trkpt>
      <trkpt lat="44.70311" lon="3.1773">
        <ele>1205</ele>
        <time>2012-09-11T09:28:09Z</time>
      </trkpt>
      <trkpt lat="44.70304" lon="3.17715">
        <ele>1209</ele>
        <time>2012-09-11T09:28:22Z</time>
      </trkpt>
      <trkpt lat="44.70297" lon="3.17701">
        <ele>1211</ele>
        <time>2012-09-11T09:28:34Z</time>
      </trkpt>
      <trkpt lat="44.70291" lon="3.17686">
        <ele>1212</ele>
        <time>2012-09-11T09:28:46Z</time>
      </trkpt>
      <trkpt lat="44.70287" lon="3.17668">
        <ele>1208</ele>
        <time>2012-09-11T09:28:59Z</time>
      </trkpt>
      <trkpt lat="44.7028" lon="3.17652">
        <ele>1211</ele>
        <time>2012-09-11T09:29:11Z</time>
      </trkpt>
      <trkpt lat="44.70276" lon="3.1764">
        <ele>1214</ele>
        <time>2012-09-11T09:29:22Z</time>
      </trkpt>
      <trkpt lat="44.70271" lon="3.17621">
        <ele>1223</ele>
        <time>2012-09-11T09:29:34Z</time>
      </trkpt>
      <trkpt lat="44.70264" lon="3.17604">
        <ele>1218</ele>
        <time>2012-09-11T09:29:46Z</time>
      </trkpt>
      <trkpt lat="44.70258" lon="3.1759">
        <ele>1219</ele>
        <time>2012-09-11T09:29:58Z</time>
      </trkpt>
      <trkpt lat="44.70252" lon="3.17575">
        <ele>1221</ele>
        <time>2012-09-11T09:30:09Z</time>
      </trkpt>
      <trkpt lat="44.70247" lon="3.1756">
        <ele>1218</ele>
        <time>2012-09-11T09:30:21Z</time>
      </trkpt>
      <trkpt lat="44.70243" lon="3.17546">
        <ele>1217</ele>
        <time>2012-09-11T09:30:31Z</time>
      </trkpt>
      <trkpt lat="44.70241" lon="3.17527">
        <ele>1218</ele>
        <time>2012-09-11T09:30:44Z</time>
      </trkpt>
      <trkpt lat="44.70238" lon="3.17508">
        <ele>1218</ele>
        <time>2012-09-11T09:30:56Z</time>
      </trkpt>
      <trkpt lat="44.70234" lon="3.1749">
        <ele>1217</ele>
        <time>2012-09-11T09:31:08Z</time>
      </trkpt>
      <trkpt lat="44.70234" lon="3.17471">
        <ele>1217</ele>
        <time>2012-09-11T09:31:20Z</time>
      </trkpt>
      <trkpt lat="44.70234" lon="3.1745">
        <ele>1216</ele>
        <time>2012-09-11T09:31:32Z</time>
      </trkpt>
      <trkpt lat="44.70235" lon="3.17432">
        <ele>1217</ele>
        <time>2012-09-11T09:31:44Z</time>
      </trkpt>
      <trkpt lat="44.70236" lon="3.17413">
        <ele>1209</ele>
        <time>2012-09-11T09:31:56Z</time>
      </trkpt>
      <trkpt lat="44.70237" lon="3.17395">
        <ele>1212</ele>
        <time>2012-09-11T09:32:08Z</time>
      </trkpt>
      <trkpt lat="44.70238" lon="3.17377">
        <ele>1216</ele>
        <time>2012-09-11T09:32:18Z</time>
      </trkpt>
      <trkpt lat="44.70239" lon="3.17358">
        <ele>1212</ele>
        <time>2012-09-11T09:32:30Z</time>
      </trkpt>
      <trkpt lat="44.70243" lon="3.17339">
        <ele>1212</ele>
        <time>2012-09-11T09:32:43Z</time>
      </trkpt>
      <trkpt lat="44.70249" lon="3.17322">
        <ele>1211</ele>
        <time>2012-09-11T09:32:54Z</time>
      </trkpt>
      <trkpt lat="44.70255" lon="3.17304">
        <ele>1211</ele>
        <time>2012-09-11T09:33:07Z</time>
      </trkpt>
      <trkpt lat="44.70256" lon="3.17285">
        <ele>1208</ele>
        <time>2012-09-11T09:33:19Z</time>
      </trkpt>
      <trkpt lat="44.70256" lon="3.17266">
        <ele>1209</ele>
        <time>2012-09-11T09:33:31Z</time>
      </trkpt>
      <trkpt lat="44.70262" lon="3.17249">
        <ele>1210</ele>
        <time>2012-09-11T09:33:42Z</time>
      </trkpt>
      <trkpt lat="44.70269" lon="3.17233">
        <ele>1211</ele>
        <time>2012-09-11T09:33:54Z</time>
      </trkpt>
      <trkpt lat="44.70277" lon="3.17217">
        <ele>1212</ele>
        <time>2012-09-11T09:34:06Z</time>
      </trkpt>
      <trkpt lat="44.70284" lon="3.172">
        <ele>1212</ele>
        <time>2012-09-11T09:34:17Z</time>
      </trkpt>
      <trkpt lat="44.7029" lon="3.17184">
        <ele>1210</ele>
        <time>2012-09-11T09:34:28Z</time>
      </trkpt>
      <trkpt lat="44.70296" lon="3.1717">
        <ele>1212</ele>
        <time>2012-09-11T09:34:39Z</time>
      </trkpt>
      <trkpt lat="44.70302" lon="3.17153">
        <ele>1212</ele>
        <time>2012-09-11T09:34:50Z</time>
      </trkpt>
      <trkpt lat="44.70306" lon="3.17134">
        <ele>1208</ele>
        <time>2012-09-11T09:35:02Z</time>
      </trkpt>
      <trkpt lat="44.70312" lon="3.17116">
        <ele>1210</ele>
        <time>2012-09-11T09:35:14Z</time>
      </trkpt>
      <trkpt lat="44.70317" lon="3.17098">
        <ele>1212</ele>
        <time>2012-09-11T09:35:26Z</time>
      </trkpt>
      <trkpt lat="44.70321" lon="3.17081">
        <ele>1214</ele>
        <time>2012-09-11T09:35:36Z</time>
      </trkpt>
      <trkpt lat="44.70323" lon="3.17063">
        <ele>1214</ele>
        <time>2012-09-11T09:35:47Z</time>
      </trkpt>
      <trkpt lat="44.70324" lon="3.17045">
        <ele>1211</ele>
        <time>2012-09-11T09:35:58Z</time>
      </trkpt>
      <trkpt lat="44.70327" lon="3.17028">
        <ele>1210</ele>
        <time>2012-09-11T09:36:09Z</time>
      </trkpt>
      <trkpt lat="44.70331" lon="3.1701">
        <ele>1212</ele>
        <time>2012-09-11T09:36:20Z</time>
      </trkpt>
      <trkpt lat="44.70333" lon="3.16997">
        <ele>1204</ele>
        <time>2012-09-11T09:37:06Z</time>
      </trkpt>
      <trkpt lat="44.70334" lon="3.16993">
        <ele>1211</ele>
        <time>2012-09-11T09:38:06Z</time>
      </trkpt>
      <trkpt lat="44.7034" lon="3.16975">
        <ele>1208</ele>
        <time>2012-09-11T09:38:18Z</time>
      </trkpt>
      <trkpt lat="44.70344" lon="3.16957">
        <ele>1209</ele>
        <time>2012-09-11T09:38:30Z</time>
      </trkpt>
      <trkpt lat="44.70346" lon="3.16938">
        <ele>1212</ele>
        <time>2012-09-11T09:38:41Z</time>
      </trkpt>
      <trkpt lat="44.70348" lon="3.16917">
        <ele>1209</ele>
        <time>2012-09-11T09:38:53Z</time>
      </trkpt>
      <trkpt lat="44.70348" lon="3.16897">
        <ele>1205</ele>
        <time>2012-09-11T09:39:05Z</time>
      </trkpt>
      <trkpt lat="44.70348" lon="3.16877">
        <ele>1208</ele>
        <time>2012-09-11T09:39:16Z</time>
      </trkpt>
      <trkpt lat="44.70348" lon="3.16859">
        <ele>1207</ele>
        <time>2012-09-11T09:39:27Z</time>
      </trkpt>
      <trkpt lat="44.70348" lon="3.1684">
        <ele>1209</ele>
        <time>2012-09-11T09:39:37Z</time>
      </trkpt>
      <trkpt lat="44.70346" lon="3.16822">
        <ele>1211</ele>
        <time>2012-09-11T09:39:48Z</time>
      </trkpt>
      <trkpt lat="44.70344" lon="3.16806">
        <ele>1211</ele>
        <time>2012-09-11T09:39:58Z</time>
      </trkpt>
      <trkpt lat="44.70337" lon="3.16785">
        <ele>1208</ele>
        <time>2012-09-11T09:40:09Z</time>
      </trkpt>
      <trkpt lat="44.70332" lon="3.16767">
        <ele>1207</ele>
        <time>2012-09-11T09:40:21Z</time>
      </trkpt>
      <trkpt lat="44.70326" lon="3.16751">
        <ele>1211</ele>
        <time>2012-09-11T09:40:33Z</time>
      </trkpt>
      <trkpt lat="44.70319" lon="3.16736">
        <ele>1213</ele>
        <time>2012-09-11T09:41:24Z</time>
      </trkpt>
      <trkpt lat="44.70313" lon="3.16718">
        <ele>1210</ele>
        <time>2012-09-11T09:41:35Z</time>
      </trkpt>
      <trkpt lat="44.70305" lon="3.16702">
        <ele>1209</ele>
        <time>2012-09-11T09:41:47Z</time>
      </trkpt>
      <trkpt lat="44.70296" lon="3.16688">
        <ele>1210</ele>
        <time>2012-09-11T09:41:59Z</time>
      </trkpt>
      <trkpt lat="44.70287" lon="3.16682">
        <ele>1211</ele>
        <time>2012-09-11T09:42:09Z</time>
      </trkpt>
      <trkpt lat="44.70276" lon="3.1667">
        <ele>1210</ele>
        <time>2012-09-11T09:42:21Z</time>
      </trkpt>
      <trkpt lat="44.70265" lon="3.16662">
        <ele>1209</ele>
        <time>2012-09-11T09:42:31Z</time>
      </trkpt>
      <trkpt lat="44.70254" lon="3.16651">
        <ele>1207</ele>
        <time>2012-09-11T09:42:42Z</time>
      </trkpt>
      <trkpt lat="44.70246" lon="3.16637">
        <ele>1208</ele>
        <time>2012-09-11T09:42:54Z</time>
      </trkpt>
      <trkpt lat="44.70237" lon="3.16619">
        <ele>1212</ele>
        <time>2012-09-11T09:43:06Z</time>
      </trkpt>
      <trkpt lat="44.70233" lon="3.166">
        <ele>1209</ele>
        <time>2012-09-11T09:43:18Z</time>
      </trkpt>
      <trkpt lat="44.70234" lon="3.16582">
        <ele>1208</ele>
        <time>2012-09-11T09:43:30Z</time>
      </trkpt>
      <trkpt lat="44.70227" lon="3.16572">
        <ele>1212</ele>
        <time>2012-09-11T09:43:43Z</time>
      </trkpt>
      <trkpt lat="44.70221" lon="3.1656">
        <ele>1210</ele>
        <time>2012-09-11T09:44:27Z</time>
      </trkpt>
      <trkpt lat="44.70214" lon="3.16544">
        <ele>1212</ele>
        <time>2012-09-11T09:44:39Z</time>
      </trkpt>
      <trkpt lat="44.70206" lon="3.16531">
        <ele>1209</ele>
        <time>2012-09-11T09:44:51Z</time>
      </trkpt>
      <trkpt lat="44.702" lon="3.16516">
        <ele>1210</ele>
        <time>2012-09-11T09:45:04Z</time>
      </trkpt>
      <trkpt lat="44.70189" lon="3.16503">
        <ele>1212</ele>
        <time>2012-09-11T09:45:15Z</time>
      </trkpt>
      <trkpt lat="44.70178" lon="3.16489">
        <ele>1211</ele>
        <time>2012-09-11T09:45:27Z</time>
      </trkpt>
      <trkpt lat="44.70171" lon="3.16473">
        <ele>1207</ele>
        <time>2012-09-11T09:45:39Z</time>
      </trkpt>
      <trkpt lat="44.70165" lon="3.16451">
        <ele>1208</ele>
        <time>2012-09-11T09:45:52Z</time>
      </trkpt>
      <trkpt lat="44.70159" lon="3.1643">
        <ele>1209</ele>
        <time>2012-09-11T09:46:05Z</time>
      </trkpt>
      <trkpt lat="44.70154" lon="3.16412">
        <ele>1211</ele>
        <time>2012-09-11T09:46:17Z</time>
      </trkpt>
      <trkpt lat="44.70151" lon="3.16396">
        <ele>1211</ele>
        <time>2012-09-11T09:46:27Z</time>
      </trkpt>
      <trkpt lat="44.70147" lon="3.16378">
        <ele>1214</ele>
        <time>2012-09-11T09:46:39Z</time>
      </trkpt>
      <trkpt lat="44.70143" lon="3.16371">
        <ele>1211</ele>
        <time>2012-09-11T09:46:56Z</time>
      </trkpt>
      <trkpt lat="44.70135" lon="3.16361">
        <ele>1211</ele>
        <time>2012-09-11T09:47:06Z</time>
      </trkpt>
      <trkpt lat="44.70133" lon="3.16358">
        <ele>1214</ele>
        <time>2012-09-11T09:47:27Z</time>
      </trkpt>
      <trkpt lat="44.70129" lon="3.16352">
        <ele>1212</ele>
        <time>2012-09-11T09:47:45Z</time>
      </trkpt>
      <trkpt lat="44.70121" lon="3.16339">
        <ele>1217</ele>
        <time>2012-09-11T09:47:57Z</time>
      </trkpt>
      <trkpt lat="44.70118" lon="3.16334">
        <ele>1216</ele>
        <time>2012-09-11T09:48:35Z</time>
      </trkpt>
      <trkpt lat="44.70107" lon="3.16322">
        <ele>1216</ele>
        <time>2012-09-11T09:48:47Z</time>
      </trkpt>
      <trkpt lat="44.70098" lon="3.16308">
        <ele>1213</ele>
        <time>2012-09-11T09:48:59Z</time>
      </trkpt>
      <trkpt lat="44.70089" lon="3.16294">
        <ele>1215</ele>
        <time>2012-09-11T09:49:11Z</time>
      </trkpt>
      <trkpt lat="44.70081" lon="3.16278">
        <ele>1213</ele>
        <time>2012-09-11T09:49:22Z</time>
      </trkpt>
      <trkpt lat="44.70078" lon="3.16271">
        <ele>1213</ele>
        <time>2012-09-11T09:49:49Z</time>
      </trkpt>
      <trkpt lat="44.70075" lon="3.16267">
        <ele>1214</ele>
        <time>2012-09-11T09:51:27Z</time>
      </trkpt>
      <trkpt lat="44.70069" lon="3.16256">
        <ele>1218</ele>
        <time>2012-09-11T09:51:37Z</time>
      </trkpt>
      <trkpt lat="44.70062" lon="3.16238">
        <ele>1217</ele>
        <time>2012-09-11T09:51:49Z</time>
      </trkpt>
      <trkpt lat="44.70051" lon="3.16219">
        <ele>1218</ele>
        <time>2012-09-11T09:52:02Z</time>
      </trkpt>
      <trkpt lat="44.70049" lon="3.16212">
        <ele>1219</ele>
        <time>2012-09-11T09:52:33Z</time>
      </trkpt>
      <trkpt lat="44.70041" lon="3.16198">
        <ele>1220</ele>
        <time>2012-09-11T09:52:44Z</time>
      </trkpt>
      <trkpt lat="44.70033" lon="3.16183">
        <ele>1217</ele>
        <time>2012-09-11T09:52:57Z</time>
      </trkpt>
      <trkpt lat="44.70025" lon="3.1617">
        <ele>1219</ele>
        <time>2012-09-11T09:53:08Z</time>
      </trkpt>
      <trkpt lat="44.70015" lon="3.16157">
        <ele>1216</ele>
        <time>2012-09-11T09:53:20Z</time>
      </trkpt>
      <trkpt lat="44.70004" lon="3.16151">
        <ele>1210</ele>
        <time>2012-09-11T09:55:02Z</time>
      </trkpt>
      <trkpt lat="44.70003" lon="3.16147">
        <ele>1217</ele>
        <time>2012-09-11T09:56:43Z</time>
      </trkpt>
      <trkpt lat="44.69994" lon="3.16139">
        <ele>1215</ele>
        <time>2012-09-11T09:56:53Z</time>
      </trkpt>
      <trkpt lat="44.69984" lon="3.16129">
        <ele>1217</ele>
        <time>2012-09-11T09:57:05Z</time>
      </trkpt>
      <trkpt lat="44.69971" lon="3.1612">
        <ele>1217</ele>
        <time>2012-09-11T09:57:17Z</time>
      </trkpt>
      <trkpt lat="44.69958" lon="3.16113">
        <ele>1218</ele>
        <time>2012-09-11T09:57:29Z</time>
      </trkpt>
      <trkpt lat="44.69946" lon="3.16103">
        <ele>1220</ele>
        <time>2012-09-11T09:57:41Z</time>
      </trkpt>
      <trkpt lat="44.69933" lon="3.16093">
        <ele>1220</ele>
        <time>2012-09-11T09:57:53Z</time>
      </trkpt>
      <trkpt lat="44.6992" lon="3.16083">
        <ele>1217</ele>
        <time>2012-09-11T09:58:05Z</time>
      </trkpt>
      <trkpt lat="44.69907" lon="3.16075">
        <ele>1219</ele>
        <time>2012-09-11T09:58:16Z</time>
      </trkpt>
      <trkpt lat="44.69896" lon="3.16069">
        <ele>1217</ele>
        <time>2012-09-11T09:58:26Z</time>
      </trkpt>
      <trkpt lat="44.69883" lon="3.16061">
        <ele>1218</ele>
        <time>2012-09-11T09:58:38Z</time>
      </trkpt>
      <trkpt lat="44.6987" lon="3.16052">
        <ele>1216</ele>
        <time>2012-09-11T09:58:50Z</time>
      </trkpt>
      <trkpt lat="44.69856" lon="3.16045">
        <ele>1217</ele>
        <time>2012-09-11T09:59:02Z</time>
      </trkpt>
      <trkpt lat="44.69841" lon="3.16039">
        <ele>1218</ele>
        <time>2012-09-11T09:59:14Z</time>
      </trkpt>
      <trkpt lat="44.69827" lon="3.16036">
        <ele>1218</ele>
        <time>2012-09-11T09:59:25Z</time>
      </trkpt>
      <trkpt lat="44.69815" lon="3.16031">
        <ele>1218</ele>
        <time>2012-09-11T09:59:35Z</time>
      </trkpt>
      <trkpt lat="44.69801" lon="3.1603">
        <ele>1216</ele>
        <time>2012-09-11T09:59:47Z</time>
      </trkpt>
      <trkpt lat="44.69786" lon="3.16035">
        <ele>1216</ele>
        <time>2012-09-11T09:59:59Z</time>
      </trkpt>
      <trkpt lat="44.69774" lon="3.16043">
        <ele>1215</ele>
        <time>2012-09-11T10:00:10Z</time>
      </trkpt>
      <trkpt lat="44.69761" lon="3.16048">
        <ele>1215</ele>
        <time>2012-09-11T10:00:21Z</time>
      </trkpt>
      <trkpt lat="44.69746" lon="3.16048">
        <ele>1215</ele>
        <time>2012-09-11T10:00:32Z</time>
      </trkpt>
      <trkpt lat="44.69734" lon="3.1604">
        <ele>1215</ele>
        <time>2012-09-11T10:00:44Z</time>
      </trkpt>
      <trkpt lat="44.69729" lon="3.16034">
        <ele>1219</ele>
        <time>2012-09-11T10:01:10Z</time>
      </trkpt>
      <trkpt lat="44.69727" lon="3.16032">
        <ele>1222</ele>
        <time>2012-09-11T10:01:53Z</time>
      </trkpt>
      <trkpt lat="44.69721" lon="3.16022">
        <ele>1219</ele>
        <time>2012-09-11T10:02:03Z</time>
      </trkpt>
      <trkpt lat="44.6971" lon="3.16011">
        <ele>1222</ele>
        <time>2012-09-11T10:02:14Z</time>
      </trkpt>
      <trkpt lat="44.697" lon="3.15999">
        <ele>1222</ele>
        <time>2012-09-11T10:02:25Z</time>
      </trkpt>
      <trkpt lat="44.69689" lon="3.15986">
        <ele>1220</ele>
        <time>2012-09-11T10:02:37Z</time>
      </trkpt>
      <trkpt lat="44.69677" lon="3.15976">
        <ele>1219</ele>
        <time>2012-09-11T10:02:48Z</time>
      </trkpt>
      <trkpt lat="44.69666" lon="3.15966">
        <ele>1218</ele>
        <time>2012-09-11T10:02:59Z</time>
      </trkpt>
      <trkpt lat="44.69656" lon="3.15951">
        <ele>1218</ele>
        <time>2012-09-11T10:03:10Z</time>
      </trkpt>
      <trkpt lat="44.6965" lon="3.15936">
        <ele>1219</ele>
        <time>2012-09-11T10:03:20Z</time>
      </trkpt>
      <trkpt lat="44.69643" lon="3.15919">
        <ele>1219</ele>
        <time>2012-09-11T10:03:31Z</time>
      </trkpt>
      <trkpt lat="44.69633" lon="3.15903">
        <ele>1218</ele>
        <time>2012-09-11T10:03:42Z</time>
      </trkpt>
      <trkpt lat="44.69627" lon="3.15892">
        <ele>1219</ele>
        <time>2012-09-11T10:03:52Z</time>
      </trkpt>
      <trkpt lat="44.69614" lon="3.15877">
        <ele>1219</ele>
        <time>2012-09-11T10:04:05Z</time>
      </trkpt>
      <trkpt lat="44.69601" lon="3.15862">
        <ele>1216</ele>
        <time>2012-09-11T10:04:17Z</time>
      </trkpt>
      <trkpt lat="44.69591" lon="3.15847">
        <ele>1215</ele>
        <time>2012-09-11T10:04:29Z</time>
      </trkpt>
      <trkpt lat="44.6958" lon="3.15838">
        <ele>1214</ele>
        <time>2012-09-11T10:04:39Z</time>
      </trkpt>
      <trkpt lat="44.69566" lon="3.15832">
        <ele>1213</ele>
        <time>2012-09-11T10:04:50Z</time>
      </trkpt>
      <trkpt lat="44.69554" lon="3.15826">
        <ele>1211</ele>
        <time>2012-09-11T10:05:01Z</time>
      </trkpt>
      <trkpt lat="44.69546" lon="3.15821">
        <ele>1215</ele>
        <time>2012-09-11T10:05:15Z</time>
      </trkpt>
      <trkpt lat="44.69543" lon="3.1582">
        <ele>1215</ele>
        <time>2012-09-11T10:06:07Z</time>
      </trkpt>
      <trkpt lat="44.69543" lon="3.15816">
        <ele>1214</ele>
        <time>2012-09-11T10:06:43Z</time>
      </trkpt>
      <trkpt lat="44.69533" lon="3.15806">
        <ele>1215</ele>
        <time>2012-09-11T10:06:54Z</time>
      </trkpt>
      <trkpt lat="44.69522" lon="3.15795">
        <ele>1214</ele>
        <time>2012-09-11T10:07:06Z</time>
      </trkpt>
      <trkpt lat="44.6951" lon="3.15784">
        <ele>1214</ele>
        <time>2012-09-11T10:07:18Z</time>
      </trkpt>
      <trkpt lat="44.69499" lon="3.15772">
        <ele>1213</ele>
        <time>2012-09-11T10:07:30Z</time>
      </trkpt>
      <trkpt lat="44.69487" lon="3.1576">
        <ele>1214</ele>
        <time>2012-09-11T10:07:42Z</time>
      </trkpt>
      <trkpt lat="44.69475" lon="3.15748">
        <ele>1216</ele>
        <time>2012-09-11T10:07:54Z</time>
      </trkpt>
      <trkpt lat="44.69464" lon="3.15737">
        <ele>1213</ele>
        <time>2012-09-11T10:08:06Z</time>
      </trkpt>
      <trkpt lat="44.69453" lon="3.15725">
        <ele>1214</ele>
        <time>2012-09-11T10:08:17Z</time>
      </trkpt>
      <trkpt lat="44.69443" lon="3.15712">
        <ele>1215</ele>
        <time>2012-09-11T10:08:29Z</time>
      </trkpt>
      <trkpt lat="44.69432" lon="3.15698">
        <ele>1215</ele>
        <time>2012-09-11T10:08:41Z</time>
      </trkpt>
      <trkpt lat="44.69422" lon="3.15684">
        <ele>1215</ele>
        <time>2012-09-11T10:08:52Z</time>
      </trkpt>
      <trkpt lat="44.69412" lon="3.15673">
        <ele>1215</ele>
        <time>2012-09-11T10:09:02Z</time>
      </trkpt>
      <trkpt lat="44.69399" lon="3.15661">
        <ele>1217</ele>
        <time>2012-09-11T10:09:14Z</time>
      </trkpt>
      <trkpt lat="44.69387" lon="3.1565">
        <ele>1216</ele>
        <time>2012-09-11T10:09:26Z</time>
      </trkpt>
      <trkpt lat="44.69373" lon="3.15643">
        <ele>1215</ele>
        <time>2012-09-11T10:09:38Z</time>
      </trkpt>
      <trkpt lat="44.6936" lon="3.1564">
        <ele>1214</ele>
        <time>2012-09-11T10:09:48Z</time>
      </trkpt>
      <trkpt lat="44.69349" lon="3.15633">
        <ele>1215</ele>
        <time>2012-09-11T10:10:18Z</time>
      </trkpt>
      <trkpt lat="44.69338" lon="3.15621">
        <ele>1216</ele>
        <time>2012-09-11T10:10:29Z</time>
      </trkpt>
      <trkpt lat="44.69333" lon="3.15609">
        <ele>1216</ele>
        <time>2012-09-11T10:10:39Z</time>
      </trkpt>
      <trkpt lat="44.69327" lon="3.15594">
        <ele>1214</ele>
        <time>2012-09-11T10:10:52Z</time>
      </trkpt>
      <trkpt lat="44.69322" lon="3.15576">
        <ele>1214</ele>
        <time>2012-09-11T10:11:04Z</time>
      </trkpt>
      <trkpt lat="44.69314" lon="3.1556">
        <ele>1216</ele>
        <time>2012-09-11T10:11:14Z</time>
      </trkpt>
      <trkpt lat="44.69308" lon="3.15543">
        <ele>1216</ele>
        <time>2012-09-11T10:11:27Z</time>
      </trkpt>
      <trkpt lat="44.693" lon="3.15528">
        <ele>1218</ele>
        <time>2012-09-11T10:11:38Z</time>
      </trkpt>
      <trkpt lat="44.69293" lon="3.15518">
        <ele>1220</ele>
        <time>2012-09-11T10:11:49Z</time>
      </trkpt>
      <trkpt lat="44.69282" lon="3.15506">
        <ele>1219</ele>
        <time>2012-09-11T10:12:00Z</time>
      </trkpt>
      <trkpt lat="44.69273" lon="3.15496">
        <ele>1222</ele>
        <time>2012-09-11T10:12:10Z</time>
      </trkpt>
      <trkpt lat="44.69264" lon="3.15481">
        <ele>1222</ele>
        <time>2012-09-11T10:12:22Z</time>
      </trkpt>
      <trkpt lat="44.69252" lon="3.15471">
        <ele>1226</ele>
        <time>2012-09-11T10:12:33Z</time>
      </trkpt>
      <trkpt lat="44.69242" lon="3.1546">
        <ele>1226</ele>
        <time>2012-09-11T10:12:44Z</time>
      </trkpt>
      <trkpt lat="44.69232" lon="3.15446">
        <ele>1225</ele>
        <time>2012-09-11T10:12:56Z</time>
      </trkpt>
      <trkpt lat="44.6922" lon="3.15439">
        <ele>1224</ele>
        <time>2012-09-11T10:13:07Z</time>
      </trkpt>
      <trkpt lat="44.69209" lon="3.15428">
        <ele>1228</ele>
        <time>2012-09-11T10:13:18Z</time>
      </trkpt>
      <trkpt lat="44.69196" lon="3.15422">
        <ele>1228</ele>
        <time>2012-09-11T10:13:30Z</time>
      </trkpt>
      <trkpt lat="44.69181" lon="3.15423">
        <ele>1224</ele>
        <time>2012-09-11T10:13:42Z</time>
      </trkpt>
      <trkpt lat="44.69172" lon="3.15421">
        <ele>1229</ele>
        <time>2012-09-11T10:15:04Z</time>
      </trkpt>
      <trkpt lat="44.69167" lon="3.1542">
        <ele>1226</ele>
        <time>2012-09-11T10:16:58Z</time>
      </trkpt>
      <trkpt lat="44.69154" lon="3.15421">
        <ele>1224</ele>
        <time>2012-09-11T10:17:09Z</time>
      </trkpt>
      <trkpt lat="44.6914" lon="3.15421">
        <ele>1224</ele>
        <time>2012-09-11T10:17:21Z</time>
      </trkpt>
      <trkpt lat="44.69126" lon="3.15419">
        <ele>1224</ele>
        <time>2012-09-11T10:17:33Z</time>
      </trkpt>
      <trkpt lat="44.69112" lon="3.15416">
        <ele>1223</ele>
        <time>2012-09-11T10:17:45Z</time>
      </trkpt>
      <trkpt lat="44.69098" lon="3.15414">
        <ele>1226</ele>
        <time>2012-09-11T10:17:57Z</time>
      </trkpt>
      <trkpt lat="44.69083" lon="3.15413">
        <ele>1224</ele>
        <time>2012-09-11T10:18:09Z</time>
      </trkpt>
      <trkpt lat="44.69069" lon="3.15412">
        <ele>1224</ele>
        <time>2012-09-11T10:18:20Z</time>
      </trkpt>
      <trkpt lat="44.69055" lon="3.15412">
        <ele>1223</ele>
        <time>2012-09-11T10:18:32Z</time>
      </trkpt>
      <trkpt lat="44.6904" lon="3.1541">
        <ele>1225</ele>
        <time>2012-09-11T10:18:44Z</time>
      </trkpt>
      <trkpt lat="44.69026" lon="3.1541">
        <ele>1223</ele>
        <time>2012-09-11T10:18:56Z</time>
      </trkpt>
      <trkpt lat="44.69012" lon="3.15407">
        <ele>1224</ele>
        <time>2012-09-11T10:19:08Z</time>
      </trkpt>
      <trkpt lat="44.68998" lon="3.15405">
        <ele>1225</ele>
        <time>2012-09-11T10:19:19Z</time>
      </trkpt>
      <trkpt lat="44.68985" lon="3.15403">
        <ele>1225</ele>
        <time>2012-09-11T10:19:31Z</time>
      </trkpt>
      <trkpt lat="44.68971" lon="3.154">
        <ele>1226</ele>
        <time>2012-09-11T10:19:43Z</time>
      </trkpt>
      <trkpt lat="44.68957" lon="3.15401">
        <ele>1227</ele>
        <time>2012-09-11T10:19:55Z</time>
      </trkpt>
      <trkpt lat="44.68942" lon="3.15398">
        <ele>1228</ele>
        <time>2012-09-11T10:20:07Z</time>
      </trkpt>
      <trkpt lat="44.68932" lon="3.15386">
        <ele>1233</ele>
        <time>2012-09-11T10:20:18Z</time>
      </trkpt>
      <trkpt lat="44.68926" lon="3.15369">
        <ele>1233</ele>
        <time>2012-09-11T10:20:30Z</time>
      </trkpt>
      <trkpt lat="44.68919" lon="3.15353">
        <ele>1232</ele>
        <time>2012-09-11T10:20:40Z</time>
      </trkpt>
      <trkpt lat="44.6891" lon="3.15335">
        <ele>1231</ele>
        <time>2012-09-11T10:20:52Z</time>
      </trkpt>
      <trkpt lat="44.68903" lon="3.15318">
        <ele>1233</ele>
        <time>2012-09-11T10:21:04Z</time>
      </trkpt>
      <trkpt lat="44.68896" lon="3.15299">
        <ele>1231</ele>
        <time>2012-09-11T10:21:16Z</time>
      </trkpt>
      <trkpt lat="44.68894" lon="3.15283">
        <ele>1233</ele>
        <time>2012-09-11T10:21:26Z</time>
      </trkpt>
      <trkpt lat="44.68894" lon="3.15262">
        <ele>1232</ele>
        <time>2012-09-11T10:21:38Z</time>
      </trkpt>
      <trkpt lat="44.68898" lon="3.15241">
        <ele>1232</ele>
        <time>2012-09-11T10:21:50Z</time>
      </trkpt>
      <trkpt lat="44.68897" lon="3.15221">
        <ele>1233</ele>
        <time>2012-09-11T10:22:02Z</time>
      </trkpt>
      <trkpt lat="44.68893" lon="3.15204">
        <ele>1232</ele>
        <time>2012-09-11T10:22:13Z</time>
      </trkpt>
      <trkpt lat="44.68882" lon="3.15185">
        <ele>1236</ele>
        <time>2012-09-11T10:22:26Z</time>
      </trkpt>
      <trkpt lat="44.68874" lon="3.15172">
        <ele>1235</ele>
        <time>2012-09-11T10:22:36Z</time>
      </trkpt>
      <trkpt lat="44.68864" lon="3.15159">
        <ele>1235</ele>
        <time>2012-09-11T10:22:48Z</time>
      </trkpt>
      <trkpt lat="44.68849" lon="3.1515">
        <ele>1234</ele>
        <time>2012-09-11T10:23:00Z</time>
      </trkpt>
      <trkpt lat="44.68844" lon="3.15145">
        <ele>1236</ele>
        <time>2012-09-11T10:23:13Z</time>
      </trkpt>
      <trkpt lat="44.68835" lon="3.15135">
        <ele>1235</ele>
        <time>2012-09-11T10:23:23Z</time>
      </trkpt>
      <trkpt lat="44.68823" lon="3.1512">
        <ele>1235</ele>
        <time>2012-09-11T10:23:35Z</time>
      </trkpt>
      <trkpt lat="44.68813" lon="3.15103">
        <ele>1235</ele>
        <time>2012-09-11T10:23:47Z</time>
      </trkpt>
      <trkpt lat="44.68803" lon="3.15087">
        <ele>1236</ele>
        <time>2012-09-11T10:23:59Z</time>
      </trkpt>
      <trkpt lat="44.68794" lon="3.15074">
        <ele>1235</ele>
        <time>2012-09-11T10:24:10Z</time>
      </trkpt>
      <trkpt lat="44.68784" lon="3.15059">
        <ele>1235</ele>
        <time>2012-09-11T10:24:24Z</time>
      </trkpt>
      <trkpt lat="44.68776" lon="3.15044">
        <ele>1242</ele>
        <time>2012-09-11T10:24:36Z</time>
      </trkpt>
      <trkpt lat="44.68769" lon="3.15029">
        <ele>1243</ele>
        <time>2012-09-11T10:24:47Z</time>
      </trkpt>
      <trkpt lat="44.68766" lon="3.15011">
        <ele>1241</ele>
        <time>2012-09-11T10:24:59Z</time>
      </trkpt>
      <trkpt lat="44.68767" lon="3.14989">
        <ele>1242</ele>
        <time>2012-09-11T10:25:12Z</time>
      </trkpt>
      <trkpt lat="44.68769" lon="3.14969">
        <ele>1242</ele>
        <time>2012-09-11T10:25:24Z</time>
      </trkpt>
      <trkpt lat="44.68769" lon="3.14949">
        <ele>1239</ele>
        <time>2012-09-11T10:25:36Z</time>
      </trkpt>
      <trkpt lat="44.68769" lon="3.14929">
        <ele>1240</ele>
        <time>2012-09-11T10:25:48Z</time>
      </trkpt>
      <trkpt lat="44.68769" lon="3.1491">
        <ele>1241</ele>
        <time>2012-09-11T10:25:59Z</time>
      </trkpt>
      <trkpt lat="44.68765" lon="3.14892">
        <ele>1243</ele>
        <time>2012-09-11T10:26:10Z</time>
      </trkpt>
      <trkpt lat="44.68759" lon="3.14873">
        <ele>1244</ele>
        <time>2012-09-11T10:26:22Z</time>
      </trkpt>
      <trkpt lat="44.68755" lon="3.14857">
        <ele>1248</ele>
        <time>2012-09-11T10:26:33Z</time>
      </trkpt>
      <trkpt lat="44.68755" lon="3.14838">
        <ele>1245</ele>
        <time>2012-09-11T10:26:44Z</time>
      </trkpt>
      <trkpt lat="44.68754" lon="3.1482">
        <ele>1249</ele>
        <time>2012-09-11T10:26:56Z</time>
      </trkpt>
      <trkpt lat="44.68749" lon="3.14804">
        <ele>1246</ele>
        <time>2012-09-11T10:27:08Z</time>
      </trkpt>
      <trkpt lat="44.68748" lon="3.14786">
        <ele>1243</ele>
        <time>2012-09-11T10:27:20Z</time>
      </trkpt>
      <trkpt lat="44.68744" lon="3.14769">
        <ele>1247</ele>
        <time>2012-09-11T10:27:33Z</time>
      </trkpt>
      <trkpt lat="44.6874" lon="3.14757">
        <ele>1248</ele>
        <time>2012-09-11T10:27:43Z</time>
      </trkpt>
      <trkpt lat="44.68738" lon="3.14751">
        <ele>1247</ele>
        <time>2012-09-11T10:32:24Z</time>
      </trkpt>
      <trkpt lat="44.68731" lon="3.14737">
        <ele>1248</ele>
        <time>2012-09-11T10:32:37Z</time>
      </trkpt>
      <trkpt lat="44.68724" lon="3.14718">
        <ele>1245</ele>
        <time>2012-09-11T10:32:50Z</time>
      </trkpt>
      <trkpt lat="44.68718" lon="3.14702">
        <ele>1247</ele>
        <time>2012-09-11T10:33:02Z</time>
      </trkpt>
      <trkpt lat="44.68711" lon="3.14687">
        <ele>1248</ele>
        <time>2012-09-11T10:33:14Z</time>
      </trkpt>
      <trkpt lat="44.68702" lon="3.14674">
        <ele>1248</ele>
        <time>2012-09-11T10:33:25Z</time>
      </trkpt>
      <trkpt lat="44.6869" lon="3.14658">
        <ele>1245</ele>
        <time>2012-09-11T10:33:38Z</time>
      </trkpt>
      <trkpt lat="44.6868" lon="3.14646">
        <ele>1246</ele>
        <time>2012-09-11T10:33:50Z</time>
      </trkpt>
      <trkpt lat="44.68671" lon="3.14634">
        <ele>1247</ele>
        <time>2012-09-11T10:34:01Z</time>
      </trkpt>
      <trkpt lat="44.68662" lon="3.1462">
        <ele>1249</ele>
        <time>2012-09-11T10:34:11Z</time>
      </trkpt>
      <trkpt lat="44.68652" lon="3.14604">
        <ele>1246</ele>
        <time>2012-09-11T10:34:23Z</time>
      </trkpt>
      <trkpt lat="44.68643" lon="3.14588">
        <ele>1245</ele>
        <time>2012-09-11T10:34:35Z</time>
      </trkpt>
      <trkpt lat="44.68635" lon="3.14573">
        <ele>1245</ele>
        <time>2012-09-11T10:34:46Z</time>
      </trkpt>
      <trkpt lat="44.68628" lon="3.14557">
        <ele>1244</ele>
        <time>2012-09-11T10:34:58Z</time>
      </trkpt>
      <trkpt lat="44.68625" lon="3.1454">
        <ele>1247</ele>
        <time>2012-09-11T10:35:09Z</time>
      </trkpt>
      <trkpt lat="44.68629" lon="3.14523">
        <ele>1243</ele>
        <time>2012-09-11T10:35:21Z</time>
      </trkpt>
      <trkpt lat="44.68631" lon="3.14515">
        <ele>1240</ele>
        <time>2012-09-11T10:35:59Z</time>
      </trkpt>
      <trkpt lat="44.68628" lon="3.14516">
        <ele>1243</ele>
        <time>2012-09-11T10:36:42Z</time>
      </trkpt>
      <trkpt lat="44.68623" lon="3.14503">
        <ele>1240</ele>
        <time>2012-09-11T10:36:54Z</time>
      </trkpt>
      <trkpt lat="44.68621" lon="3.14485">
        <ele>1239</ele>
        <time>2012-09-11T10:37:06Z</time>
      </trkpt>
      <trkpt lat="44.68623" lon="3.14467">
        <ele>1239</ele>
        <time>2012-09-11T10:37:18Z</time>
      </trkpt>
      <trkpt lat="44.68624" lon="3.14447">
        <ele>1239</ele>
        <time>2012-09-11T10:37:30Z</time>
      </trkpt>
      <trkpt lat="44.68628" lon="3.14428">
        <ele>1241</ele>
        <time>2012-09-11T10:37:42Z</time>
      </trkpt>
      <trkpt lat="44.6863" lon="3.14409">
        <ele>1239</ele>
        <time>2012-09-11T10:37:54Z</time>
      </trkpt>
      <trkpt lat="44.6863" lon="3.14389">
        <ele>1236</ele>
        <time>2012-09-11T10:38:06Z</time>
      </trkpt>
      <trkpt lat="44.68631" lon="3.14368">
        <ele>1235</ele>
        <time>2012-09-11T10:38:18Z</time>
      </trkpt>
      <trkpt lat="44.68632" lon="3.14348">
        <ele>1237</ele>
        <time>2012-09-11T10:38:30Z</time>
      </trkpt>
      <trkpt lat="44.68631" lon="3.14328">
        <ele>1235</ele>
        <time>2012-09-11T10:38:42Z</time>
      </trkpt>
      <trkpt lat="44.6863" lon="3.1431">
        <ele>1237</ele>
        <time>2012-09-11T10:38:53Z</time>
      </trkpt>
      <trkpt lat="44.68629" lon="3.1429">
        <ele>1237</ele>
        <time>2012-09-11T10:39:05Z</time>
      </trkpt>
      <trkpt lat="44.68627" lon="3.14272">
        <ele>1237</ele>
        <time>2012-09-11T10:39:16Z</time>
      </trkpt>
      <trkpt lat="44.68624" lon="3.14253">
        <ele>1239</ele>
        <time>2012-09-11T10:39:27Z</time>
      </trkpt>
      <trkpt lat="44.68621" lon="3.14234">
        <ele>1239</ele>
        <time>2012-09-11T10:39:38Z</time>
      </trkpt>
      <trkpt lat="44.68617" lon="3.14215">
        <ele>1237</ele>
        <time>2012-09-11T10:39:50Z</time>
      </trkpt>
      <trkpt lat="44.68614" lon="3.14197">
        <ele>1236</ele>
        <time>2012-09-11T10:40:02Z</time>
      </trkpt>
      <trkpt lat="44.68608" lon="3.14182">
        <ele>1239</ele>
        <time>2012-09-11T10:40:14Z</time>
      </trkpt>
      <trkpt lat="44.68596" lon="3.14172">
        <ele>1242</ele>
        <time>2012-09-11T10:40:25Z</time>
      </trkpt>
      <trkpt lat="44.68583" lon="3.14163">
        <ele>1244</ele>
        <time>2012-09-11T10:40:38Z</time>
      </trkpt>
      <trkpt lat="44.68571" lon="3.14155">
        <ele>1247</ele>
        <time>2012-09-11T10:40:50Z</time>
      </trkpt>
      <trkpt lat="44.68559" lon="3.14142">
        <ele>1246</ele>
        <time>2012-09-11T10:41:02Z</time>
      </trkpt>
      <trkpt lat="44.68549" lon="3.14131">
        <ele>1251</ele>
        <time>2012-09-11T10:41:14Z</time>
      </trkpt>
      <trkpt lat="44.68541" lon="3.14122">
        <ele>1251</ele>
        <time>2012-09-11T10:41:24Z</time>
      </trkpt>
      <trkpt lat="44.68531" lon="3.14111">
        <ele>1252</ele>
        <time>2012-09-11T10:41:36Z</time>
      </trkpt>
      <trkpt lat="44.68517" lon="3.14098">
        <ele>1251</ele>
        <time>2012-09-11T10:41:48Z</time>
      </trkpt>
      <trkpt lat="44.6852" lon="3.14096">
        <ele>1260</ele>
        <time>2012-09-11T10:42:10Z</time>
      </trkpt>
      <trkpt lat="44.68517" lon="3.14098">
        <ele>1258</ele>
        <time>2012-09-11T10:42:25Z</time>
      </trkpt>
      <trkpt lat="44.68514" lon="3.14099">
        <ele>1250</ele>
        <time>2012-09-11T10:42:43Z</time>
      </trkpt>
      <trkpt lat="44.68504" lon="3.14088">
        <ele>1249</ele>
        <time>2012-09-11T10:42:53Z</time>
      </trkpt>
      <trkpt lat="44.68492" lon="3.14078">
        <ele>1250</ele>
        <time>2012-09-11T10:43:03Z</time>
      </trkpt>
      <trkpt lat="44.68482" lon="3.14066">
        <ele>1250</ele>
        <time>2012-09-11T10:43:15Z</time>
      </trkpt>
      <trkpt lat="44.68471" lon="3.14056">
        <ele>1247</ele>
        <time>2012-09-11T10:43:27Z</time>
      </trkpt>
      <trkpt lat="44.68461" lon="3.14046">
        <ele>1250</ele>
        <time>2012-09-11T10:43:39Z</time>
      </trkpt>
      <trkpt lat="44.68449" lon="3.14029">
        <ele>1249</ele>
        <time>2012-09-11T10:43:52Z</time>
      </trkpt>
      <trkpt lat="44.68447" lon="3.14012">
        <ele>1251</ele>
        <time>2012-09-11T10:44:03Z</time>
      </trkpt>
      <trkpt lat="44.68446" lon="3.14002">
        <ele>1252</ele>
        <time>2012-09-11T10:44:16Z</time>
      </trkpt>
      <trkpt lat="44.68439" lon="3.13987">
        <ele>1249</ele>
        <time>2012-09-11T10:44:27Z</time>
      </trkpt>
      <trkpt lat="44.68433" lon="3.1397">
        <ele>1251</ele>
        <time>2012-09-11T10:44:39Z</time>
      </trkpt>
      <trkpt lat="44.68428" lon="3.13954">
        <ele>1254</ele>
        <time>2012-09-11T10:44:51Z</time>
      </trkpt>
      <trkpt lat="44.68422" lon="3.13944">
        <ele>1254</ele>
        <time>2012-09-11T10:45:01Z</time>
      </trkpt>
      <trkpt lat="44.68416" lon="3.13927">
        <ele>1256</ele>
        <time>2012-09-11T10:45:12Z</time>
      </trkpt>
      <trkpt lat="44.68415" lon="3.13911">
        <ele>1260</ele>
        <time>2012-09-11T10:45:22Z</time>
      </trkpt>
      <trkpt lat="44.68417" lon="3.13892">
        <ele>1253</ele>
        <time>2012-09-11T10:45:48Z</time>
      </trkpt>
      <trkpt lat="44.68426" lon="3.13879">
        <ele>1255</ele>
        <time>2012-09-11T10:45:59Z</time>
      </trkpt>
      <trkpt lat="44.6843" lon="3.13867">
        <ele>1260</ele>
        <time>2012-09-11T10:46:10Z</time>
      </trkpt>
      <trkpt lat="44.68433" lon="3.13848">
        <ele>1260</ele>
        <time>2012-09-11T10:46:21Z</time>
      </trkpt>
      <trkpt lat="44.68436" lon="3.1383">
        <ele>1259</ele>
        <time>2012-09-11T10:46:33Z</time>
      </trkpt>
      <trkpt lat="44.68436" lon="3.13816">
        <ele>1259</ele>
        <time>2012-09-11T10:46:44Z</time>
      </trkpt>
      <trkpt lat="44.68439" lon="3.13798">
        <ele>1260</ele>
        <time>2012-09-11T10:46:55Z</time>
      </trkpt>
      <trkpt lat="44.68435" lon="3.13781">
        <ele>1260</ele>
        <time>2012-09-11T10:47:07Z</time>
      </trkpt>
      <trkpt lat="44.68429" lon="3.13766">
        <ele>1263</ele>
        <time>2012-09-11T10:47:19Z</time>
      </trkpt>
      <trkpt lat="44.68428" lon="3.13749">
        <ele>1265</ele>
        <time>2012-09-11T10:47:32Z</time>
      </trkpt>
      <trkpt lat="44.68423" lon="3.13734">
        <ele>1269</ele>
        <time>2012-09-11T10:47:43Z</time>
      </trkpt>
      <trkpt lat="44.68419" lon="3.13718">
        <ele>1269</ele>
        <time>2012-09-11T10:47:56Z</time>
      </trkpt>
      <trkpt lat="44.68416" lon="3.13704">
        <ele>1270</ele>
        <time>2012-09-11T10:48:07Z</time>
      </trkpt>
      <trkpt lat="44.68407" lon="3.13687">
        <ele>1274</ele>
        <time>2012-09-11T10:48:20Z</time>
      </trkpt>
      <trkpt lat="44.68401" lon="3.13672">
        <ele>1272</ele>
        <time>2012-09-11T10:48:32Z</time>
      </trkpt>
      <trkpt lat="44.68397" lon="3.13654">
        <ele>1274</ele>
        <time>2012-09-11T10:48:43Z</time>
      </trkpt>
      <trkpt lat="44.68393" lon="3.13633">
        <ele>1275</ele>
        <time>2012-09-11T10:48:56Z</time>
      </trkpt>
      <trkpt lat="44.6839" lon="3.13615">
        <ele>1273</ele>
        <time>2012-09-11T10:49:07Z</time>
      </trkpt>
      <trkpt lat="44.68387" lon="3.13595">
        <ele>1272</ele>
        <time>2012-09-11T10:49:19Z</time>
      </trkpt>
      <trkpt lat="44.68386" lon="3.13577">
        <ele>1275</ele>
        <time>2012-09-11T10:49:35Z</time>
      </trkpt>
      <trkpt lat="44.68386" lon="3.13564">
        <ele>1273</ele>
        <time>2012-09-11T10:49:46Z</time>
      </trkpt>
      <trkpt lat="44.68383" lon="3.13544">
        <ele>1268</ele>
        <time>2012-09-11T10:49:58Z</time>
      </trkpt>
      <trkpt lat="44.68382" lon="3.13525">
        <ele>1268</ele>
        <time>2012-09-11T10:50:09Z</time>
      </trkpt>
      <trkpt lat="44.68383" lon="3.13506">
        <ele>1269</ele>
        <time>2012-09-11T10:50:20Z</time>
      </trkpt>
      <trkpt lat="44.68382" lon="3.13487">
        <ele>1264</ele>
        <time>2012-09-11T10:50:31Z</time>
      </trkpt>
      <trkpt lat="44.68381" lon="3.13467">
        <ele>1263</ele>
        <time>2012-09-11T10:50:43Z</time>
      </trkpt>
      <trkpt lat="44.68382" lon="3.13445">
        <ele>1263</ele>
        <time>2012-09-11T10:50:56Z</time>
      </trkpt>
      <trkpt lat="44.68383" lon="3.13425">
        <ele>1264</ele>
        <time>2012-09-11T10:51:07Z</time>
      </trkpt>
      <trkpt lat="44.68385" lon="3.13408">
        <ele>1261</ele>
        <time>2012-09-11T10:51:19Z</time>
      </trkpt>
      <trkpt lat="44.68386" lon="3.13389">
        <ele>1259</ele>
        <time>2012-09-11T10:51:30Z</time>
      </trkpt>
      <trkpt lat="44.68386" lon="3.13368">
        <ele>1260</ele>
        <time>2012-09-11T10:51:42Z</time>
      </trkpt>
      <trkpt lat="44.68383" lon="3.13356">
        <ele>1261</ele>
        <time>2012-09-11T10:52:05Z</time>
      </trkpt>
      <trkpt lat="44.6838" lon="3.13343">
        <ele>1261</ele>
        <time>2012-09-11T10:52:16Z</time>
      </trkpt>
      <trkpt lat="44.68378" lon="3.13331">
        <ele>1261</ele>
        <time>2012-09-11T10:52:37Z</time>
      </trkpt>
      <trkpt lat="44.68376" lon="3.13328">
        <ele>1260</ele>
        <time>2012-09-11T10:52:57Z</time>
      </trkpt>
      <trkpt lat="44.68375" lon="3.13308">
        <ele>1261</ele>
        <time>2012-09-11T10:53:09Z</time>
      </trkpt>
      <trkpt lat="44.68377" lon="3.1329">
        <ele>1260</ele>
        <time>2012-09-11T10:53:21Z</time>
      </trkpt>
      <trkpt lat="44.68382" lon="3.13273">
        <ele>1260</ele>
        <time>2012-09-11T10:53:32Z</time>
      </trkpt>
      <trkpt lat="44.68383" lon="3.13254">
        <ele>1253</ele>
        <time>2012-09-11T10:53:44Z</time>
      </trkpt>
      <trkpt lat="44.68382" lon="3.13235">
        <ele>1251</ele>
        <time>2012-09-11T10:53:56Z</time>
      </trkpt>
      <trkpt lat="44.68374" lon="3.1322">
        <ele>1253</ele>
        <time>2012-09-11T10:54:08Z</time>
      </trkpt>
      <trkpt lat="44.68363" lon="3.13209">
        <ele>1250</ele>
        <time>2012-09-11T10:54:19Z</time>
      </trkpt>
      <trkpt lat="44.68353" lon="3.13197">
        <ele>1249</ele>
        <time>2012-09-11T10:54:31Z</time>
      </trkpt>
      <trkpt lat="44.68341" lon="3.13186">
        <ele>1254</ele>
        <time>2012-09-11T10:54:42Z</time>
      </trkpt>
      <trkpt lat="44.68332" lon="3.13173">
        <ele>1250</ele>
        <time>2012-09-11T10:54:53Z</time>
      </trkpt>
      <trkpt lat="44.68327" lon="3.13155">
        <ele>1248</ele>
        <time>2012-09-11T10:55:05Z</time>
      </trkpt>
      <trkpt lat="44.68325" lon="3.13136">
        <ele>1246</ele>
        <time>2012-09-11T10:55:17Z</time>
      </trkpt>
      <trkpt lat="44.68323" lon="3.13116">
        <ele>1247</ele>
        <time>2012-09-11T10:55:29Z</time>
      </trkpt>
      <trkpt lat="44.68323" lon="3.13097">
        <ele>1245</ele>
        <time>2012-09-11T10:55:41Z</time>
      </trkpt>
      <trkpt lat="44.68323" lon="3.13078">
        <ele>1246</ele>
        <time>2012-09-11T10:55:53Z</time>
      </trkpt>
      <trkpt lat="44.68328" lon="3.13065">
        <ele>1250</ele>
        <time>2012-09-11T10:56:03Z</time>
      </trkpt>
      <trkpt lat="44.68332" lon="3.13052">
        <ele>1251</ele>
        <time>2012-09-11T10:56:14Z</time>
      </trkpt>
      <trkpt lat="44.68333" lon="3.13038">
        <ele>1256</ele>
        <time>2012-09-11T10:56:24Z</time>
      </trkpt>
      <trkpt lat="44.68329" lon="3.13026">
        <ele>1255</ele>
        <time>2012-09-11T10:56:35Z</time>
      </trkpt>
      <trkpt lat="44.68327" lon="3.13009">
        <ele>1258</ele>
        <time>2012-09-11T10:56:48Z</time>
      </trkpt>
      <trkpt lat="44.68325" lon="3.12992">
        <ele>1260</ele>
        <time>2012-09-11T10:57:00Z</time>
      </trkpt>
      <trkpt lat="44.68327" lon="3.12974">
        <ele>1256</ele>
        <time>2012-09-11T10:57:12Z</time>
      </trkpt>
      <trkpt lat="44.68331" lon="3.12956">
        <ele>1260</ele>
        <time>2012-09-11T10:57:24Z</time>
      </trkpt>
      <trkpt lat="44.68334" lon="3.12942">
        <ele>1260</ele>
        <time>2012-09-11T10:57:35Z</time>
      </trkpt>
      <trkpt lat="44.68335" lon="3.12924">
        <ele>1261</ele>
        <time>2012-09-11T10:57:45Z</time>
      </trkpt>
      <trkpt lat="44.68332" lon="3.12907">
        <ele>1260</ele>
        <time>2012-09-11T10:57:56Z</time>
      </trkpt>
      <trkpt lat="44.68332" lon="3.12892">
        <ele>1262</ele>
        <time>2012-09-11T10:58:07Z</time>
      </trkpt>
      <trkpt lat="44.68331" lon="3.1288">
        <ele>1266</ele>
        <time>2012-09-11T10:58:17Z</time>
      </trkpt>
      <trkpt lat="44.6833" lon="3.12876">
        <ele>1266</ele>
        <time>2012-09-11T10:58:47Z</time>
      </trkpt>
      <trkpt lat="44.68326" lon="3.12864">
        <ele>1267</ele>
        <time>2012-09-11T10:58:58Z</time>
      </trkpt>
      <trkpt lat="44.68324" lon="3.12851">
        <ele>1275</ele>
        <time>2012-09-11T10:59:11Z</time>
      </trkpt>
      <trkpt lat="44.6832" lon="3.12838">
        <ele>1274</ele>
        <time>2012-09-11T10:59:21Z</time>
      </trkpt>
      <trkpt lat="44.68311" lon="3.12827">
        <ele>1275</ele>
        <time>2012-09-11T10:59:32Z</time>
      </trkpt>
      <trkpt lat="44.68304" lon="3.1281">
        <ele>1276</ele>
        <time>2012-09-11T10:59:45Z</time>
      </trkpt>
      <trkpt lat="44.68296" lon="3.12795">
        <ele>1277</ele>
        <time>2012-09-11T10:59:58Z</time>
      </trkpt>
      <trkpt lat="44.68287" lon="3.12782">
        <ele>1282</ele>
        <time>2012-09-11T11:00:12Z</time>
      </trkpt>
      <trkpt lat="44.68282" lon="3.12766">
        <ele>1280</ele>
        <time>2012-09-11T11:00:26Z</time>
      </trkpt>
      <trkpt lat="44.68279" lon="3.1275">
        <ele>1282</ele>
        <time>2012-09-11T11:00:38Z</time>
      </trkpt>
      <trkpt lat="44.68276" lon="3.12734">
        <ele>1283</ele>
        <time>2012-09-11T11:00:51Z</time>
      </trkpt>
      <trkpt lat="44.68272" lon="3.12717">
        <ele>1286</ele>
        <time>2012-09-11T11:01:03Z</time>
      </trkpt>
      <trkpt lat="44.6827" lon="3.12703">
        <ele>1286</ele>
        <time>2012-09-11T11:01:13Z</time>
      </trkpt>
      <trkpt lat="44.68266" lon="3.1269">
        <ele>1287</ele>
        <time>2012-09-11T11:01:25Z</time>
      </trkpt>
      <trkpt lat="44.68258" lon="3.12678">
        <ele>1294</ele>
        <time>2012-09-11T11:01:36Z</time>
      </trkpt>
      <trkpt lat="44.68257" lon="3.12674">
        <ele>1290</ele>
        <time>2012-09-11T11:01:57Z</time>
      </trkpt>
      <trkpt lat="44.68255" lon="3.12669">
        <ele>1289</ele>
        <time>2012-09-11T11:02:33Z</time>
      </trkpt>
      <trkpt lat="44.68251" lon="3.12657">
        <ele>1291</ele>
        <time>2012-09-11T11:02:45Z</time>
      </trkpt>
      <trkpt lat="44.68248" lon="3.12639">
        <ele>1292</ele>
        <time>2012-09-11T11:02:57Z</time>
      </trkpt>
      <trkpt lat="44.68246" lon="3.12625">
        <ele>1293</ele>
        <time>2012-09-11T11:03:07Z</time>
      </trkpt>
      <trkpt lat="44.68244" lon="3.12608">
        <ele>1291</ele>
        <time>2012-09-11T11:03:19Z</time>
      </trkpt>
      <trkpt lat="44.68241" lon="3.12591">
        <ele>1289</ele>
        <time>2012-09-11T11:03:31Z</time>
      </trkpt>
      <trkpt lat="44.68236" lon="3.12573">
        <ele>1296</ele>
        <time>2012-09-11T11:03:42Z</time>
      </trkpt>
      <trkpt lat="44.68235" lon="3.12554">
        <ele>1292</ele>
        <time>2012-09-11T11:03:54Z</time>
      </trkpt>
      <trkpt lat="44.68233" lon="3.12535">
        <ele>1294</ele>
        <time>2012-09-11T11:04:06Z</time>
      </trkpt>
      <trkpt lat="44.68233" lon="3.12515">
        <ele>1299</ele>
        <time>2012-09-11T11:04:18Z</time>
      </trkpt>
      <trkpt lat="44.68233" lon="3.12497">
        <ele>1297</ele>
        <time>2012-09-11T11:04:30Z</time>
      </trkpt>
      <trkpt lat="44.6823" lon="3.12478">
        <ele>1301</ele>
        <time>2012-09-11T11:04:42Z</time>
      </trkpt>
      <trkpt lat="44.68224" lon="3.12461">
        <ele>1303</ele>
        <time>2012-09-11T11:04:53Z</time>
      </trkpt>
      <trkpt lat="44.68218" lon="3.12443">
        <ele>1302</ele>
        <time>2012-09-11T11:05:04Z</time>
      </trkpt>
      <trkpt lat="44.68212" lon="3.12427">
        <ele>1301</ele>
        <time>2012-09-11T11:05:16Z</time>
      </trkpt>
      <trkpt lat="44.68204" lon="3.1241">
        <ele>1306</ele>
        <time>2012-09-11T11:05:27Z</time>
      </trkpt>
      <trkpt lat="44.68198" lon="3.12395">
        <ele>1309</ele>
        <time>2012-09-11T11:05:38Z</time>
      </trkpt>
      <trkpt lat="44.68186" lon="3.1238">
        <ele>1310</ele>
        <time>2012-09-11T11:05:50Z</time>
      </trkpt>
      <trkpt lat="44.68176" lon="3.12369">
        <ele>1310</ele>
        <time>2012-09-11T11:06:02Z</time>
      </trkpt>
      <trkpt lat="44.68163" lon="3.12361">
        <ele>1302</ele>
        <time>2012-09-11T11:06:14Z</time>
      </trkpt>
      <trkpt lat="44.6816" lon="3.12361">
        <ele>1309</ele>
        <time>2012-09-11T11:06:28Z</time>
      </trkpt>
      <trkpt lat="44.68146" lon="3.12361">
        <ele>1308</ele>
        <time>2012-09-11T11:06:41Z</time>
      </trkpt>
      <trkpt lat="44.68134" lon="3.12361">
        <ele>1306</ele>
        <time>2012-09-11T11:06:53Z</time>
      </trkpt>
      <trkpt lat="44.68125" lon="3.12361">
        <ele>1305</ele>
        <time>2012-09-11T11:07:04Z</time>
      </trkpt>
      <trkpt lat="44.68121" lon="3.12361">
        <ele>1308</ele>
        <time>2012-09-11T11:07:17Z</time>
      </trkpt>
      <trkpt lat="44.68117" lon="3.12356">
        <ele>1309</ele>
        <time>2012-09-11T11:07:32Z</time>
      </trkpt>
      <trkpt lat="44.68118" lon="3.12352">
        <ele>1305</ele>
        <time>2012-09-11T11:09:05Z</time>
      </trkpt>
      <trkpt lat="44.68116" lon="3.1235">
        <ele>1304</ele>
        <time>2012-09-11T11:16:12Z</time>
      </trkpt>
      <trkpt lat="44.68113" lon="3.12351">
        <ele>1305</ele>
        <time>2012-09-11T11:16:34Z</time>
      </trkpt>
      <trkpt lat="44.68114" lon="3.12348">
        <ele>1299</ele>
        <time>2012-09-11T11:26:21Z</time>
      </trkpt>
      <trkpt lat="44.68118" lon="3.12347">
        <ele>1291</ele>
        <time>2012-09-11T11:29:00Z</time>
      </trkpt>
      <trkpt lat="44.6812" lon="3.12344">
        <ele>1292</ele>
        <time>2012-09-11T11:29:16Z</time>
      </trkpt>
      <trkpt lat="44.68116" lon="3.12343">
        <ele>1296</ele>
        <time>2012-09-11T11:29:30Z</time>
      </trkpt>
      <trkpt lat="44.68114" lon="3.12346">
        <ele>1300</ele>
        <time>2012-09-11T11:29:44Z</time>
      </trkpt>
      <trkpt lat="44.68116" lon="3.12348">
        <ele>1307</ele>
        <time>2012-09-11T11:31:14Z</time>
      </trkpt>
      <trkpt lat="44.68119" lon="3.1235">
        <ele>1299</ele>
        <time>2012-09-11T11:36:33Z</time>
      </trkpt>
      <trkpt lat="44.68122" lon="3.12353">
        <ele>1305</ele>
        <time>2012-09-11T11:38:10Z</time>
      </trkpt>
      <trkpt lat="44.68124" lon="3.1235">
        <ele>1301</ele>
        <time>2012-09-11T11:39:16Z</time>
      </trkpt>
      <trkpt lat="44.68121" lon="3.12349">
        <ele>1301</ele>
        <time>2012-09-11T11:39:29Z</time>
      </trkpt>
      <trkpt lat="44.68119" lon="3.12347">
        <ele>1300</ele>
        <time>2012-09-11T11:41:12Z</time>
      </trkpt>
      <trkpt lat="44.68116" lon="3.1235">
        <ele>1308</ele>
        <time>2012-09-11T11:42:47Z</time>
      </trkpt>
      <trkpt lat="44.68113" lon="3.1235">
        <ele>1309</ele>
        <time>2012-09-11T11:45:17Z</time>
      </trkpt>
      <trkpt lat="44.68118" lon="3.12353">
        <ele>1308</ele>
        <time>2012-09-11T11:48:07Z</time>
      </trkpt>
      <trkpt lat="44.68114" lon="3.12353">
        <ele>1306</ele>
        <time>2012-09-11T11:49:35Z</time>
      </trkpt>
      <trkpt lat="44.68113" lon="3.12356">
        <ele>1308</ele>
        <time>2012-09-11T11:54:08Z</time>
      </trkpt>
      <trkpt lat="44.6811" lon="3.12358">
        <ele>1307</ele>
        <time>2012-09-11T11:57:12Z</time>
      </trkpt>
      <trkpt lat="44.68113" lon="3.12359">
        <ele>1304</ele>
        <time>2012-09-11T11:57:44Z</time>
      </trkpt>
      <trkpt lat="44.68114" lon="3.12355">
        <ele>1310</ele>
        <time>2012-09-11T11:57:58Z</time>
      </trkpt>
      <trkpt lat="44.68115" lon="3.12358">
        <ele>1306</ele>
        <time>2012-09-11T11:58:22Z</time>
      </trkpt>
      <trkpt lat="44.68112" lon="3.12357">
        <ele>1307</ele>
        <time>2012-09-11T11:58:54Z</time>
      </trkpt>
      <trkpt lat="44.68108" lon="3.12351">
        <ele>1308</ele>
        <time>2012-09-11T11:59:05Z</time>
      </trkpt>
      <trkpt lat="44.681" lon="3.12339">
        <ele>1308</ele>
        <time>2012-09-11T11:59:18Z</time>
      </trkpt>
      <trkpt lat="44.68093" lon="3.12329">
        <ele>1308</ele>
        <time>2012-09-11T11:59:29Z</time>
      </trkpt>
      <trkpt lat="44.68086" lon="3.1232">
        <ele>1308</ele>
        <time>2012-09-11T11:59:39Z</time>
      </trkpt>
      <trkpt lat="44.68075" lon="3.12311">
        <ele>1307</ele>
        <time>2012-09-11T11:59:51Z</time>
      </trkpt>
      <trkpt lat="44.68068" lon="3.123">
        <ele>1307</ele>
        <time>2012-09-11T12:00:02Z</time>
      </trkpt>
      <trkpt lat="44.68058" lon="3.1229">
        <ele>1304</ele>
        <time>2012-09-11T12:00:15Z</time>
      </trkpt>
      <trkpt lat="44.68048" lon="3.12279">
        <ele>1304</ele>
        <time>2012-09-11T12:00:29Z</time>
      </trkpt>
      <trkpt lat="44.68041" lon="3.12264">
        <ele>1304</ele>
        <time>2012-09-11T12:00:41Z</time>
      </trkpt>
      <trkpt lat="44.68032" lon="3.12251">
        <ele>1302</ele>
        <time>2012-09-11T12:00:53Z</time>
      </trkpt>
      <trkpt lat="44.68028" lon="3.12239">
        <ele>1310</ele>
        <time>2012-09-11T12:01:05Z</time>
      </trkpt>
      <trkpt lat="44.68019" lon="3.12221">
        <ele>1304</ele>
        <time>2012-09-11T12:01:17Z</time>
      </trkpt>
      <trkpt lat="44.68009" lon="3.12211">
        <ele>1300</ele>
        <time>2012-09-11T12:01:29Z</time>
      </trkpt>
      <trkpt lat="44.67999" lon="3.12199">
        <ele>1299</ele>
        <time>2012-09-11T12:01:41Z</time>
      </trkpt>
      <trkpt lat="44.67994" lon="3.12187">
        <ele>1304</ele>
        <time>2012-09-11T12:01:53Z</time>
      </trkpt>
      <trkpt lat="44.6799" lon="3.12181">
        <ele>1291</ele>
        <time>2012-09-11T12:02:21Z</time>
      </trkpt>
      <trkpt lat="44.6799" lon="3.12163">
        <ele>1297</ele>
        <time>2012-09-11T12:02:34Z</time>
      </trkpt>
      <trkpt lat="44.6799" lon="3.12145">
        <ele>1296</ele>
        <time>2012-09-11T12:02:46Z</time>
      </trkpt>
      <trkpt lat="44.67986" lon="3.12127">
        <ele>1290</ele>
        <time>2012-09-11T12:02:58Z</time>
      </trkpt>
      <trkpt lat="44.67986" lon="3.12108">
        <ele>1287</ele>
        <time>2012-09-11T12:03:11Z</time>
      </trkpt>
      <trkpt lat="44.67986" lon="3.12086">
        <ele>1293</ele>
        <time>2012-09-11T12:03:25Z</time>
      </trkpt>
      <trkpt lat="44.67989" lon="3.12067">
        <ele>1297</ele>
        <time>2012-09-11T12:03:37Z</time>
      </trkpt>
      <trkpt lat="44.67999" lon="3.12056">
        <ele>1285</ele>
        <time>2012-09-11T12:03:51Z</time>
      </trkpt>
      <trkpt lat="44.68007" lon="3.12049">
        <ele>1285</ele>
        <time>2012-09-11T12:04:05Z</time>
      </trkpt>
      <trkpt lat="44.68016" lon="3.12042">
        <ele>1284</ele>
        <time>2012-09-11T12:04:16Z</time>
      </trkpt>
      <trkpt lat="44.68027" lon="3.12031">
        <ele>1282</ele>
        <time>2012-09-11T12:04:28Z</time>
      </trkpt>
      <trkpt lat="44.68038" lon="3.12022">
        <ele>1280</ele>
        <time>2012-09-11T12:04:40Z</time>
      </trkpt>
      <trkpt lat="44.68047" lon="3.12009">
        <ele>1279</ele>
        <time>2012-09-11T12:04:51Z</time>
      </trkpt>
      <trkpt lat="44.68047" lon="3.12005">
        <ele>1282</ele>
        <time>2012-09-11T12:05:02Z</time>
      </trkpt>
      <trkpt lat="44.6804" lon="3.11988">
        <ele>1283</ele>
        <time>2012-09-11T12:05:14Z</time>
      </trkpt>
      <trkpt lat="44.68034" lon="3.11972">
        <ele>1282</ele>
        <time>2012-09-11T12:05:26Z</time>
      </trkpt>
      <trkpt lat="44.68025" lon="3.11958">
        <ele>1279</ele>
        <time>2012-09-11T12:05:37Z</time>
      </trkpt>
      <trkpt lat="44.68015" lon="3.11943">
        <ele>1280</ele>
        <time>2012-09-11T12:05:49Z</time>
      </trkpt>
      <trkpt lat="44.68005" lon="3.11933">
        <ele>1273</ele>
        <time>2012-09-11T12:06:00Z</time>
      </trkpt>
      <trkpt lat="44.67995" lon="3.11924">
        <ele>1281</ele>
        <time>2012-09-11T12:06:10Z</time>
      </trkpt>
      <trkpt lat="44.67984" lon="3.11914">
        <ele>1281</ele>
        <time>2012-09-11T12:06:20Z</time>
      </trkpt>
      <trkpt lat="44.67971" lon="3.11905">
        <ele>1274</ele>
        <time>2012-09-11T12:06:32Z</time>
      </trkpt>
      <trkpt lat="44.67959" lon="3.11897">
        <ele>1276</ele>
        <time>2012-09-11T12:06:43Z</time>
      </trkpt>
      <trkpt lat="44.67947" lon="3.11886">
        <ele>1278</ele>
        <time>2012-09-11T12:06:54Z</time>
      </trkpt>
      <trkpt lat="44.67937" lon="3.11875">
        <ele>1279</ele>
        <time>2012-09-11T12:07:05Z</time>
      </trkpt>
      <trkpt lat="44.67925" lon="3.11865">
        <ele>1277</ele>
        <time>2012-09-11T12:07:16Z</time>
      </trkpt>
      <trkpt lat="44.67915" lon="3.11851">
        <ele>1275</ele>
        <time>2012-09-11T12:07:28Z</time>
      </trkpt>
      <trkpt lat="44.67905" lon="3.11839">
        <ele>1275</ele>
        <time>2012-09-11T12:07:40Z</time>
      </trkpt>
      <trkpt lat="44.67894" lon="3.1183">
        <ele>1272</ele>
        <time>2012-09-11T12:07:53Z</time>
      </trkpt>
      <trkpt lat="44.67883" lon="3.11819">
        <ele>1272</ele>
        <time>2012-09-11T12:08:04Z</time>
      </trkpt>
      <trkpt lat="44.67874" lon="3.11811">
        <ele>1276</ele>
        <time>2012-09-11T12:08:17Z</time>
      </trkpt>
      <trkpt lat="44.67865" lon="3.11792">
        <ele>1270</ele>
        <time>2012-09-11T12:08:30Z</time>
      </trkpt>
      <trkpt lat="44.6786" lon="3.11776">
        <ele>1271</ele>
        <time>2012-09-11T12:08:42Z</time>
      </trkpt>
      <trkpt lat="44.67857" lon="3.11761">
        <ele>1271</ele>
        <time>2012-09-11T12:08:52Z</time>
      </trkpt>
      <trkpt lat="44.67848" lon="3.11743">
        <ele>1262</ele>
        <time>2012-09-11T12:09:03Z</time>
      </trkpt>
      <trkpt lat="44.6784" lon="3.11726">
        <ele>1259</ele>
        <time>2012-09-11T12:09:15Z</time>
      </trkpt>
      <trkpt lat="44.67836" lon="3.1171">
        <ele>1259</ele>
        <time>2012-09-11T12:09:26Z</time>
      </trkpt>
      <trkpt lat="44.67829" lon="3.1169">
        <ele>1256</ele>
        <time>2012-09-11T12:09:37Z</time>
      </trkpt>
      <trkpt lat="44.67825" lon="3.11674">
        <ele>1254</ele>
        <time>2012-09-11T12:09:48Z</time>
      </trkpt>
      <trkpt lat="44.67826" lon="3.1167">
        <ele>1256</ele>
        <time>2012-09-11T12:10:32Z</time>
      </trkpt>
      <trkpt lat="44.67831" lon="3.11648">
        <ele>1253</ele>
        <time>2012-09-11T12:10:45Z</time>
      </trkpt>
      <trkpt lat="44.67835" lon="3.11631">
        <ele>1252</ele>
        <time>2012-09-11T12:10:56Z</time>
      </trkpt>
      <trkpt lat="44.67841" lon="3.1161">
        <ele>1257</ele>
        <time>2012-09-11T12:11:08Z</time>
      </trkpt>
      <trkpt lat="44.67846" lon="3.11588">
        <ele>1258</ele>
        <time>2012-09-11T12:11:21Z</time>
      </trkpt>
      <trkpt lat="44.67847" lon="3.11569">
        <ele>1257</ele>
        <time>2012-09-11T12:11:32Z</time>
      </trkpt>
      <trkpt lat="44.67849" lon="3.1155">
        <ele>1255</ele>
        <time>2012-09-11T12:11:44Z</time>
      </trkpt>
      <trkpt lat="44.6785" lon="3.1153">
        <ele>1254</ele>
        <time>2012-09-11T12:11:55Z</time>
      </trkpt>
      <trkpt lat="44.67844" lon="3.11506">
        <ele>1251</ele>
        <time>2012-09-11T12:12:08Z</time>
      </trkpt>
      <trkpt lat="44.67838" lon="3.11485">
        <ele>1248</ele>
        <time>2012-09-11T12:12:20Z</time>
      </trkpt>
      <trkpt lat="44.67835" lon="3.11467">
        <ele>1248</ele>
        <time>2012-09-11T12:12:31Z</time>
      </trkpt>
      <trkpt lat="44.67832" lon="3.11448">
        <ele>1247</ele>
        <time>2012-09-11T12:12:42Z</time>
      </trkpt>
      <trkpt lat="44.67826" lon="3.11428">
        <ele>1245</ele>
        <time>2012-09-11T12:12:53Z</time>
      </trkpt>
      <trkpt lat="44.6782" lon="3.11406">
        <ele>1245</ele>
        <time>2012-09-11T12:13:06Z</time>
      </trkpt>
      <trkpt lat="44.67816" lon="3.11387">
        <ele>1243</ele>
        <time>2012-09-11T12:13:17Z</time>
      </trkpt>
      <trkpt lat="44.67812" lon="3.11367">
        <ele>1245</ele>
        <time>2012-09-11T12:13:29Z</time>
      </trkpt>
      <trkpt lat="44.67807" lon="3.1135">
        <ele>1243</ele>
        <time>2012-09-11T12:13:39Z</time>
      </trkpt>
      <trkpt lat="44.67801" lon="3.11332">
        <ele>1243</ele>
        <time>2012-09-11T12:13:51Z</time>
      </trkpt>
      <trkpt lat="44.67795" lon="3.1131">
        <ele>1241</ele>
        <time>2012-09-11T12:14:03Z</time>
      </trkpt>
      <trkpt lat="44.67792" lon="3.11293">
        <ele>1240</ele>
        <time>2012-09-11T12:14:13Z</time>
      </trkpt>
      <trkpt lat="44.67789" lon="3.11271">
        <ele>1236</ele>
        <time>2012-09-11T12:14:25Z</time>
      </trkpt>
      <trkpt lat="44.67785" lon="3.11249">
        <ele>1234</ele>
        <time>2012-09-11T12:14:37Z</time>
      </trkpt>
      <trkpt lat="44.67783" lon="3.1123">
        <ele>1235</ele>
        <time>2012-09-11T12:14:48Z</time>
      </trkpt>
      <trkpt lat="44.67781" lon="3.11211">
        <ele>1235</ele>
        <time>2012-09-11T12:15:00Z</time>
      </trkpt>
      <trkpt lat="44.67779" lon="3.11187">
        <ele>1234</ele>
        <time>2012-09-11T12:15:13Z</time>
      </trkpt>
      <trkpt lat="44.67779" lon="3.11168">
        <ele>1239</ele>
        <time>2012-09-11T12:15:23Z</time>
      </trkpt>
      <trkpt lat="44.67776" lon="3.11149">
        <ele>1233</ele>
        <time>2012-09-11T12:15:34Z</time>
      </trkpt>
      <trkpt lat="44.67774" lon="3.11128">
        <ele>1239</ele>
        <time>2012-09-11T12:15:45Z</time>
      </trkpt>
      <trkpt lat="44.67768" lon="3.1111">
        <ele>1236</ele>
        <time>2012-09-11T12:15:57Z</time>
      </trkpt>
      <trkpt lat="44.6776" lon="3.11092">
        <ele>1236</ele>
        <time>2012-09-11T12:16:08Z</time>
      </trkpt>
      <trkpt lat="44.67753" lon="3.11075">
        <ele>1235</ele>
        <time>2012-09-11T12:16:19Z</time>
      </trkpt>
      <trkpt lat="44.67743" lon="3.11055">
        <ele>1235</ele>
        <time>2012-09-11T12:16:31Z</time>
      </trkpt>
      <trkpt lat="44.67735" lon="3.11035">
        <ele>1235</ele>
        <time>2012-09-11T12:16:43Z</time>
      </trkpt>
      <trkpt lat="44.67729" lon="3.1102">
        <ele>1235</ele>
        <time>2012-09-11T12:16:53Z</time>
      </trkpt>
      <trkpt lat="44.67716" lon="3.11016">
        <ele>1234</ele>
        <time>2012-09-11T12:17:04Z</time>
      </trkpt>
      <trkpt lat="44.677" lon="3.11007">
        <ele>1233</ele>
        <time>2012-09-11T12:17:17Z</time>
      </trkpt>
      <trkpt lat="44.67686" lon="3.10999">
        <ele>1236</ele>
        <time>2012-09-11T12:17:28Z</time>
      </trkpt>
      <trkpt lat="44.6767" lon="3.10991">
        <ele>1234</ele>
        <time>2012-09-11T12:17:40Z</time>
      </trkpt>
      <trkpt lat="44.67655" lon="3.10983">
        <ele>1236</ele>
        <time>2012-09-11T12:17:51Z</time>
      </trkpt>
      <trkpt lat="44.6764" lon="3.10976">
        <ele>1237</ele>
        <time>2012-09-11T12:18:03Z</time>
      </trkpt>
      <trkpt lat="44.67625" lon="3.1097">
        <ele>1238</ele>
        <time>2012-09-11T12:18:14Z</time>
      </trkpt>
      <trkpt lat="44.67612" lon="3.10965">
        <ele>1238</ele>
        <time>2012-09-11T12:18:25Z</time>
      </trkpt>
      <trkpt lat="44.67599" lon="3.10962">
        <ele>1241</ele>
        <time>2012-09-11T12:18:37Z</time>
      </trkpt>
      <trkpt lat="44.67585" lon="3.1096">
        <ele>1242</ele>
        <time>2012-09-11T12:18:49Z</time>
      </trkpt>
      <trkpt lat="44.67568" lon="3.1096">
        <ele>1240</ele>
        <time>2012-09-11T12:19:01Z</time>
      </trkpt>
      <trkpt lat="44.67555" lon="3.10957">
        <ele>1246</ele>
        <time>2012-09-11T12:19:13Z</time>
      </trkpt>
      <trkpt lat="44.67543" lon="3.10956">
        <ele>1248</ele>
        <time>2012-09-11T12:19:23Z</time>
      </trkpt>
      <trkpt lat="44.67528" lon="3.10951">
        <ele>1246</ele>
        <time>2012-09-11T12:19:35Z</time>
      </trkpt>
      <trkpt lat="44.67514" lon="3.10944">
        <ele>1247</ele>
        <time>2012-09-11T12:19:47Z</time>
      </trkpt>
      <trkpt lat="44.67501" lon="3.10935">
        <ele>1248</ele>
        <time>2012-09-11T12:19:58Z</time>
      </trkpt>
      <trkpt lat="44.67489" lon="3.10923">
        <ele>1248</ele>
        <time>2012-09-11T12:20:10Z</time>
      </trkpt>
      <trkpt lat="44.67479" lon="3.10913">
        <ele>1246</ele>
        <time>2012-09-11T12:20:20Z</time>
      </trkpt>
      <trkpt lat="44.67464" lon="3.10902">
        <ele>1249</ele>
        <time>2012-09-11T12:20:32Z</time>
      </trkpt>
      <trkpt lat="44.67456" lon="3.10887">
        <ele>1249</ele>
        <time>2012-09-11T12:20:43Z</time>
      </trkpt>
      <trkpt lat="44.67453" lon="3.10873">
        <ele>1241</ele>
        <time>2012-09-11T12:21:00Z</time>
      </trkpt>
      <trkpt lat="44.67451" lon="3.10876">
        <ele>1250</ele>
        <time>2012-09-11T12:21:43Z</time>
      </trkpt>
      <trkpt lat="44.6745" lon="3.10882">
        <ele>1248</ele>
        <time>2012-09-11T12:22:44Z</time>
      </trkpt>
      <trkpt lat="44.67437" lon="3.10873">
        <ele>1248</ele>
        <time>2012-09-11T12:22:55Z</time>
      </trkpt>
      <trkpt lat="44.67424" lon="3.10862">
        <ele>1249</ele>
        <time>2012-09-11T12:23:07Z</time>
      </trkpt>
      <trkpt lat="44.67414" lon="3.10853">
        <ele>1249</ele>
        <time>2012-09-11T12:23:18Z</time>
      </trkpt>
      <trkpt lat="44.67402" lon="3.10843">
        <ele>1250</ele>
        <time>2012-09-11T12:23:29Z</time>
      </trkpt>
      <trkpt lat="44.6739" lon="3.10833">
        <ele>1249</ele>
        <time>2012-09-11T12:23:41Z</time>
      </trkpt>
      <trkpt lat="44.67377" lon="3.10823">
        <ele>1248</ele>
        <time>2012-09-11T12:23:53Z</time>
      </trkpt>
      <trkpt lat="44.67364" lon="3.10812">
        <ele>1249</ele>
        <time>2012-09-11T12:24:05Z</time>
      </trkpt>
      <trkpt lat="44.67352" lon="3.10803">
        <ele>1248</ele>
        <time>2012-09-11T12:24:17Z</time>
      </trkpt>
      <trkpt lat="44.67339" lon="3.10795">
        <ele>1247</ele>
        <time>2012-09-11T12:24:27Z</time>
      </trkpt>
      <trkpt lat="44.67328" lon="3.10784">
        <ele>1247</ele>
        <time>2012-09-11T12:24:39Z</time>
      </trkpt>
      <trkpt lat="44.67314" lon="3.10769">
        <ele>1247</ele>
        <time>2012-09-11T12:24:54Z</time>
      </trkpt>
      <trkpt lat="44.673" lon="3.1076">
        <ele>1247</ele>
        <time>2012-09-11T12:25:05Z</time>
      </trkpt>
      <trkpt lat="44.67292" lon="3.10751">
        <ele>1245</ele>
        <time>2012-09-11T12:25:15Z</time>
      </trkpt>
      <trkpt lat="44.67278" lon="3.10739">
        <ele>1245</ele>
        <time>2012-09-11T12:25:28Z</time>
      </trkpt>
      <trkpt lat="44.67269" lon="3.10732">
        <ele>1243</ele>
        <time>2012-09-11T12:25:40Z</time>
      </trkpt>
      <trkpt lat="44.67259" lon="3.10721">
        <ele>1244</ele>
        <time>2012-09-11T12:25:51Z</time>
      </trkpt>
      <trkpt lat="44.67252" lon="3.10713">
        <ele>1240</ele>
        <time>2012-09-11T12:26:08Z</time>
      </trkpt>
      <trkpt lat="44.67241" lon="3.10703">
        <ele>1244</ele>
        <time>2012-09-11T12:26:20Z</time>
      </trkpt>
      <trkpt lat="44.67229" lon="3.10693">
        <ele>1242</ele>
        <time>2012-09-11T12:26:32Z</time>
      </trkpt>
      <trkpt lat="44.67215" lon="3.1068">
        <ele>1244</ele>
        <time>2012-09-11T12:26:45Z</time>
      </trkpt>
      <trkpt lat="44.67203" lon="3.1067">
        <ele>1244</ele>
        <time>2012-09-11T12:26:57Z</time>
      </trkpt>
      <trkpt lat="44.67191" lon="3.10661">
        <ele>1243</ele>
        <time>2012-09-11T12:27:07Z</time>
      </trkpt>
      <trkpt lat="44.6718" lon="3.1065">
        <ele>1244</ele>
        <time>2012-09-11T12:27:19Z</time>
      </trkpt>
      <trkpt lat="44.67168" lon="3.1064">
        <ele>1243</ele>
        <time>2012-09-11T12:27:31Z</time>
      </trkpt>
      <trkpt lat="44.67155" lon="3.10629">
        <ele>1244</ele>
        <time>2012-09-11T12:27:43Z</time>
      </trkpt>
      <trkpt lat="44.67144" lon="3.10617">
        <ele>1244</ele>
        <time>2012-09-11T12:27:54Z</time>
      </trkpt>
      <trkpt lat="44.67134" lon="3.10605">
        <ele>1245</ele>
        <time>2012-09-11T12:28:06Z</time>
      </trkpt>
      <trkpt lat="44.67123" lon="3.10592">
        <ele>1244</ele>
        <time>2012-09-11T12:28:17Z</time>
      </trkpt>
      <trkpt lat="44.67114" lon="3.10578">
        <ele>1245</ele>
        <time>2012-09-11T12:28:29Z</time>
      </trkpt>
      <trkpt lat="44.67105" lon="3.10562">
        <ele>1245</ele>
        <time>2012-09-11T12:28:41Z</time>
      </trkpt>
      <trkpt lat="44.67096" lon="3.10546">
        <ele>1244</ele>
        <time>2012-09-11T12:28:53Z</time>
      </trkpt>
      <trkpt lat="44.67086" lon="3.10532">
        <ele>1245</ele>
        <time>2012-09-11T12:29:05Z</time>
      </trkpt>
      <trkpt lat="44.67076" lon="3.10519">
        <ele>1245</ele>
        <time>2012-09-11T12:29:16Z</time>
      </trkpt>
      <trkpt lat="44.67064" lon="3.10507">
        <ele>1245</ele>
        <time>2012-09-11T12:29:28Z</time>
      </trkpt>
      <trkpt lat="44.67059" lon="3.10501">
        <ele>1248</ele>
        <time>2012-09-11T12:29:38Z</time>
      </trkpt>
      <trkpt lat="44.67048" lon="3.10491">
        <ele>1245</ele>
        <time>2012-09-11T12:29:50Z</time>
      </trkpt>
      <trkpt lat="44.67038" lon="3.10481">
        <ele>1245</ele>
        <time>2012-09-11T12:30:00Z</time>
      </trkpt>
      <trkpt lat="44.67026" lon="3.10469">
        <ele>1245</ele>
        <time>2012-09-11T12:30:12Z</time>
      </trkpt>
      <trkpt lat="44.67015" lon="3.10457">
        <ele>1239</ele>
        <time>2012-09-11T12:30:24Z</time>
      </trkpt>
      <trkpt lat="44.67001" lon="3.10444">
        <ele>1241</ele>
        <time>2012-09-11T12:30:37Z</time>
      </trkpt>
      <trkpt lat="44.66996" lon="3.10435">
        <ele>1242</ele>
        <time>2012-09-11T12:30:58Z</time>
      </trkpt>
      <trkpt lat="44.6698" lon="3.10431">
        <ele>1241</ele>
        <time>2012-09-11T12:31:10Z</time>
      </trkpt>
      <trkpt lat="44.66966" lon="3.10431">
        <ele>1241</ele>
        <time>2012-09-11T12:31:22Z</time>
      </trkpt>
      <trkpt lat="44.66954" lon="3.10428">
        <ele>1245</ele>
        <time>2012-09-11T12:31:32Z</time>
      </trkpt>
      <trkpt lat="44.66942" lon="3.10424">
        <ele>1241</ele>
        <time>2012-09-11T12:31:43Z</time>
      </trkpt>
      <trkpt lat="44.66939" lon="3.10423">
        <ele>1236</ele>
        <time>2012-09-11T12:32:28Z</time>
      </trkpt>
      <trkpt lat="44.66925" lon="3.10421">
        <ele>1238</ele>
        <time>2012-09-11T12:32:39Z</time>
      </trkpt>
      <trkpt lat="44.66911" lon="3.10417">
        <ele>1238</ele>
        <time>2012-09-11T12:32:51Z</time>
      </trkpt>
      <trkpt lat="44.66898" lon="3.10413">
        <ele>1236</ele>
        <time>2012-09-11T12:33:03Z</time>
      </trkpt>
      <trkpt lat="44.66885" lon="3.10411">
        <ele>1237</ele>
        <time>2012-09-11T12:33:15Z</time>
      </trkpt>
      <trkpt lat="44.66872" lon="3.10404">
        <ele>1237</ele>
        <time>2012-09-11T12:33:31Z</time>
      </trkpt>
      <trkpt lat="44.66871" lon="3.10406">
        <ele>1236</ele>
        <time>2012-09-11T12:33:49Z</time>
      </trkpt>
      <trkpt lat="44.66872" lon="3.1041">
        <ele>1234</ele>
        <time>2012-09-11T12:34:25Z</time>
      </trkpt>
      <trkpt lat="44.66871" lon="3.10406">
        <ele>1231</ele>
        <time>2012-09-11T12:35:21Z</time>
      </trkpt>
      <trkpt lat="44.66869" lon="3.10397">
        <ele>1237</ele>
        <time>2012-09-11T12:35:33Z</time>
      </trkpt>
      <trkpt lat="44.66866" lon="3.1038">
        <ele>1234</ele>
        <time>2012-09-11T12:35:45Z</time>
      </trkpt>
      <trkpt lat="44.66867" lon="3.10363">
        <ele>1235</ele>
        <time>2012-09-11T12:35:56Z</time>
      </trkpt>
      <trkpt lat="44.66867" lon="3.10351">
        <ele>1239</ele>
        <time>2012-09-11T12:36:11Z</time>
      </trkpt>
      <trkpt lat="44.66864" lon="3.10328">
        <ele>1238</ele>
        <time>2012-09-11T12:36:23Z</time>
      </trkpt>
      <trkpt lat="44.66861" lon="3.10312">
        <ele>1234</ele>
        <time>2012-09-11T12:36:35Z</time>
      </trkpt>
      <trkpt lat="44.66857" lon="3.1029">
        <ele>1233</ele>
        <time>2012-09-11T12:36:47Z</time>
      </trkpt>
      <trkpt lat="44.66856" lon="3.1027">
        <ele>1237</ele>
        <time>2012-09-11T12:36:59Z</time>
      </trkpt>
      <trkpt lat="44.66856" lon="3.10253">
        <ele>1234</ele>
        <time>2012-09-11T12:37:11Z</time>
      </trkpt>
      <trkpt lat="44.66853" lon="3.10234">
        <ele>1238</ele>
        <time>2012-09-11T12:37:22Z</time>
      </trkpt>
      <trkpt lat="44.66851" lon="3.10211">
        <ele>1233</ele>
        <time>2012-09-11T12:37:33Z</time>
      </trkpt>
      <trkpt lat="44.66853" lon="3.10194">
        <ele>1233</ele>
        <time>2012-09-11T12:37:44Z</time>
      </trkpt>
      <trkpt lat="44.66851" lon="3.10173">
        <ele>1235</ele>
        <time>2012-09-11T12:37:56Z</time>
      </trkpt>
      <trkpt lat="44.6685" lon="3.10155">
        <ele>1234</ele>
        <time>2012-09-11T12:38:06Z</time>
      </trkpt>
      <trkpt lat="44.66845" lon="3.10138">
        <ele>1233</ele>
        <time>2012-09-11T12:38:17Z</time>
      </trkpt>
      <trkpt lat="44.66838" lon="3.1012">
        <ele>1232</ele>
        <time>2012-09-11T12:38:29Z</time>
      </trkpt>
      <trkpt lat="44.6683" lon="3.10108">
        <ele>1231</ele>
        <time>2012-09-11T12:38:40Z</time>
      </trkpt>
      <trkpt lat="44.66819" lon="3.10096">
        <ele>1229</ele>
        <time>2012-09-11T12:38:52Z</time>
      </trkpt>
      <trkpt lat="44.6681" lon="3.10085">
        <ele>1227</ele>
        <time>2012-09-11T12:39:04Z</time>
      </trkpt>
      <trkpt lat="44.66798" lon="3.10076">
        <ele>1226</ele>
        <time>2012-09-11T12:39:15Z</time>
      </trkpt>
      <trkpt lat="44.66785" lon="3.10068">
        <ele>1225</ele>
        <time>2012-09-11T12:39:26Z</time>
      </trkpt>
      <trkpt lat="44.6677" lon="3.10064">
        <ele>1223</ele>
        <time>2012-09-11T12:39:38Z</time>
      </trkpt>
      <trkpt lat="44.66756" lon="3.10061">
        <ele>1223</ele>
        <time>2012-09-11T12:39:50Z</time>
      </trkpt>
      <trkpt lat="44.66743" lon="3.10059">
        <ele>1220</ele>
        <time>2012-09-11T12:40:02Z</time>
      </trkpt>
      <trkpt lat="44.66734" lon="3.10058">
        <ele>1217</ele>
        <time>2012-09-11T12:40:12Z</time>
      </trkpt>
      <trkpt lat="44.66731" lon="3.10059">
        <ele>1220</ele>
        <time>2012-09-11T12:40:45Z</time>
      </trkpt>
      <trkpt lat="44.66718" lon="3.10059">
        <ele>1218</ele>
        <time>2012-09-11T12:40:57Z</time>
      </trkpt>
      <trkpt lat="44.66704" lon="3.10062">
        <ele>1219</ele>
        <time>2012-09-11T12:41:09Z</time>
      </trkpt>
      <trkpt lat="44.66691" lon="3.10062">
        <ele>1217</ele>
        <time>2012-09-11T12:41:20Z</time>
      </trkpt>
      <trkpt lat="44.66677" lon="3.10059">
        <ele>1216</ele>
        <time>2012-09-11T12:41:34Z</time>
      </trkpt>
      <trkpt lat="44.66664" lon="3.10056">
        <ele>1218</ele>
        <time>2012-09-11T12:41:46Z</time>
      </trkpt>
      <trkpt lat="44.66653" lon="3.10049">
        <ele>1218</ele>
        <time>2012-09-11T12:42:05Z</time>
      </trkpt>
      <trkpt lat="44.6664" lon="3.10044">
        <ele>1216</ele>
        <time>2012-09-11T12:42:16Z</time>
      </trkpt>
      <trkpt lat="44.66627" lon="3.10039">
        <ele>1214</ele>
        <time>2012-09-11T12:42:28Z</time>
      </trkpt>
      <trkpt lat="44.66615" lon="3.10031">
        <ele>1213</ele>
        <time>2012-09-11T12:42:40Z</time>
      </trkpt>
      <trkpt lat="44.66603" lon="3.10023">
        <ele>1212</ele>
        <time>2012-09-11T12:42:52Z</time>
      </trkpt>
      <trkpt lat="44.66591" lon="3.10015">
        <ele>1210</ele>
        <time>2012-09-11T12:43:04Z</time>
      </trkpt>
      <trkpt lat="44.66581" lon="3.10005">
        <ele>1211</ele>
        <time>2012-09-11T12:43:16Z</time>
      </trkpt>
      <trkpt lat="44.66569" lon="3.09995">
        <ele>1208</ele>
        <time>2012-09-11T12:43:28Z</time>
      </trkpt>
      <trkpt lat="44.66557" lon="3.09988">
        <ele>1206</ele>
        <time>2012-09-11T12:43:39Z</time>
      </trkpt>
      <trkpt lat="44.66547" lon="3.09978">
        <ele>1208</ele>
        <time>2012-09-11T12:43:49Z</time>
      </trkpt>
      <trkpt lat="44.66536" lon="3.09966">
        <ele>1207</ele>
        <time>2012-09-11T12:44:02Z</time>
      </trkpt>
      <trkpt lat="44.66525" lon="3.09958">
        <ele>1205</ele>
        <time>2012-09-11T12:44:13Z</time>
      </trkpt>
      <trkpt lat="44.66512" lon="3.09946">
        <ele>1206</ele>
        <time>2012-09-11T12:44:26Z</time>
      </trkpt>
      <trkpt lat="44.665" lon="3.09936">
        <ele>1205</ele>
        <time>2012-09-11T12:44:38Z</time>
      </trkpt>
      <trkpt lat="44.66489" lon="3.09926">
        <ele>1207</ele>
        <time>2012-09-11T12:44:49Z</time>
      </trkpt>
      <trkpt lat="44.66477" lon="3.09915">
        <ele>1206</ele>
        <time>2012-09-11T12:45:01Z</time>
      </trkpt>
      <trkpt lat="44.66466" lon="3.09905">
        <ele>1207</ele>
        <time>2012-09-11T12:45:11Z</time>
      </trkpt>
      <trkpt lat="44.66455" lon="3.09894">
        <ele>1206</ele>
        <time>2012-09-11T12:45:23Z</time>
      </trkpt>
      <trkpt lat="44.66443" lon="3.09881">
        <ele>1207</ele>
        <time>2012-09-11T12:45:35Z</time>
      </trkpt>
      <trkpt lat="44.66433" lon="3.0987">
        <ele>1204</ele>
        <time>2012-09-11T12:45:47Z</time>
      </trkpt>
      <trkpt lat="44.66427" lon="3.09863">
        <ele>1205</ele>
        <time>2012-09-11T12:45:59Z</time>
      </trkpt>
      <trkpt lat="44.6642" lon="3.09855">
        <ele>1205</ele>
        <time>2012-09-11T12:46:10Z</time>
      </trkpt>
      <trkpt lat="44.66408" lon="3.09843">
        <ele>1206</ele>
        <time>2012-09-11T12:46:22Z</time>
      </trkpt>
      <trkpt lat="44.66397" lon="3.0983">
        <ele>1206</ele>
        <time>2012-09-11T12:46:34Z</time>
      </trkpt>
      <trkpt lat="44.66387" lon="3.09817">
        <ele>1206</ele>
        <time>2012-09-11T12:46:46Z</time>
      </trkpt>
      <trkpt lat="44.66376" lon="3.09803">
        <ele>1207</ele>
        <time>2012-09-11T12:46:58Z</time>
      </trkpt>
      <trkpt lat="44.66366" lon="3.09788">
        <ele>1207</ele>
        <time>2012-09-11T12:47:10Z</time>
      </trkpt>
      <trkpt lat="44.66357" lon="3.09773">
        <ele>1207</ele>
        <time>2012-09-11T12:47:22Z</time>
      </trkpt>
      <trkpt lat="44.66348" lon="3.09756">
        <ele>1208</ele>
        <time>2012-09-11T12:47:34Z</time>
      </trkpt>
      <trkpt lat="44.66341" lon="3.0974">
        <ele>1209</ele>
        <time>2012-09-11T12:47:46Z</time>
      </trkpt>
      <trkpt lat="44.66333" lon="3.09724">
        <ele>1207</ele>
        <time>2012-09-11T12:47:58Z</time>
      </trkpt>
      <trkpt lat="44.66325" lon="3.09708">
        <ele>1208</ele>
        <time>2012-09-11T12:48:10Z</time>
      </trkpt>
      <trkpt lat="44.66317" lon="3.09693">
        <ele>1209</ele>
        <time>2012-09-11T12:48:22Z</time>
      </trkpt>
      <trkpt lat="44.66309" lon="3.09679">
        <ele>1209</ele>
        <time>2012-09-11T12:48:33Z</time>
      </trkpt>
      <trkpt lat="44.663" lon="3.09667">
        <ele>1208</ele>
        <time>2012-09-11T12:48:43Z</time>
      </trkpt>
      <trkpt lat="44.66298" lon="3.09664">
        <ele>1205</ele>
        <time>2012-09-11T12:48:57Z</time>
      </trkpt>
      <trkpt lat="44.66288" lon="3.09651">
        <ele>1209</ele>
        <time>2012-09-11T12:49:08Z</time>
      </trkpt>
      <trkpt lat="44.66278" lon="3.09638">
        <ele>1208</ele>
        <time>2012-09-11T12:49:19Z</time>
      </trkpt>
      <trkpt lat="44.66269" lon="3.09624">
        <ele>1207</ele>
        <time>2012-09-11T12:49:30Z</time>
      </trkpt>
      <trkpt lat="44.66259" lon="3.09609">
        <ele>1207</ele>
        <time>2012-09-11T12:49:41Z</time>
      </trkpt>
      <trkpt lat="44.66248" lon="3.09593">
        <ele>1206</ele>
        <time>2012-09-11T12:49:54Z</time>
      </trkpt>
      <trkpt lat="44.66238" lon="3.09578">
        <ele>1206</ele>
        <time>2012-09-11T12:50:06Z</time>
      </trkpt>
      <trkpt lat="44.66229" lon="3.09565">
        <ele>1205</ele>
        <time>2012-09-11T12:50:18Z</time>
      </trkpt>
      <trkpt lat="44.66218" lon="3.09553">
        <ele>1205</ele>
        <time>2012-09-11T12:50:30Z</time>
      </trkpt>
      <trkpt lat="44.66207" lon="3.09539">
        <ele>1206</ele>
        <time>2012-09-11T12:50:42Z</time>
      </trkpt>
      <trkpt lat="44.66197" lon="3.09526">
        <ele>1205</ele>
        <time>2012-09-11T12:50:54Z</time>
      </trkpt>
      <trkpt lat="44.66186" lon="3.09513">
        <ele>1206</ele>
        <time>2012-09-11T12:51:06Z</time>
      </trkpt>
      <trkpt lat="44.66174" lon="3.095">
        <ele>1206</ele>
        <time>2012-09-11T12:51:18Z</time>
      </trkpt>
      <trkpt lat="44.66163" lon="3.09487">
        <ele>1207</ele>
        <time>2012-09-11T12:51:30Z</time>
      </trkpt>
      <trkpt lat="44.66153" lon="3.09475">
        <ele>1207</ele>
        <time>2012-09-11T12:51:42Z</time>
      </trkpt>
      <trkpt lat="44.66143" lon="3.09464">
        <ele>1207</ele>
        <time>2012-09-11T12:51:54Z</time>
      </trkpt>
      <trkpt lat="44.66132" lon="3.09453">
        <ele>1208</ele>
        <time>2012-09-11T12:52:07Z</time>
      </trkpt>
      <trkpt lat="44.66121" lon="3.09441">
        <ele>1208</ele>
        <time>2012-09-11T12:52:19Z</time>
      </trkpt>
      <trkpt lat="44.66107" lon="3.09431">
        <ele>1207</ele>
        <time>2012-09-11T12:52:31Z</time>
      </trkpt>
      <trkpt lat="44.66105" lon="3.09428">
        <ele>1209</ele>
        <time>2012-09-11T12:53:02Z</time>
      </trkpt>
      <trkpt lat="44.66093" lon="3.09418">
        <ele>1207</ele>
        <time>2012-09-11T12:53:13Z</time>
      </trkpt>
      <trkpt lat="44.66083" lon="3.09407">
        <ele>1207</ele>
        <time>2012-09-11T12:53:26Z</time>
      </trkpt>
      <trkpt lat="44.66071" lon="3.09397">
        <ele>1207</ele>
        <time>2012-09-11T12:53:36Z</time>
      </trkpt>
      <trkpt lat="44.6606" lon="3.09388">
        <ele>1207</ele>
        <time>2012-09-11T12:53:47Z</time>
      </trkpt>
      <trkpt lat="44.66048" lon="3.09377">
        <ele>1207</ele>
        <time>2012-09-11T12:54:00Z</time>
      </trkpt>
      <trkpt lat="44.66037" lon="3.09367">
        <ele>1206</ele>
        <time>2012-09-11T12:54:12Z</time>
      </trkpt>
      <trkpt lat="44.66023" lon="3.09357">
        <ele>1207</ele>
        <time>2012-09-11T12:54:24Z</time>
      </trkpt>
      <trkpt lat="44.66019" lon="3.09352">
        <ele>1205</ele>
        <time>2012-09-11T12:54:35Z</time>
      </trkpt>
      <trkpt lat="44.66019" lon="3.09347">
        <ele>1202</ele>
        <time>2012-09-11T12:54:58Z</time>
      </trkpt>
      <trkpt lat="44.66017" lon="3.0935">
        <ele>1205</ele>
        <time>2012-09-11T13:00:34Z</time>
      </trkpt>
      <trkpt lat="44.66007" lon="3.09343">
        <ele>1205</ele>
        <time>2012-09-11T13:00:46Z</time>
      </trkpt>
      <trkpt lat="44.65998" lon="3.09336">
        <ele>1204</ele>
        <time>2012-09-11T13:00:56Z</time>
      </trkpt>
      <trkpt lat="44.65985" lon="3.09328">
        <ele>1204</ele>
        <time>2012-09-11T13:01:08Z</time>
      </trkpt>
      <trkpt lat="44.65973" lon="3.09319">
        <ele>1203</ele>
        <time>2012-09-11T13:01:20Z</time>
      </trkpt>
      <trkpt lat="44.65963" lon="3.09311">
        <ele>1200</ele>
        <time>2012-09-11T13:01:32Z</time>
      </trkpt>
      <trkpt lat="44.65948" lon="3.09298">
        <ele>1204</ele>
        <time>2012-09-11T13:01:43Z</time>
      </trkpt>
      <trkpt lat="44.65938" lon="3.09288">
        <ele>1203</ele>
        <time>2012-09-11T13:01:55Z</time>
      </trkpt>
      <trkpt lat="44.65925" lon="3.09279">
        <ele>1203</ele>
        <time>2012-09-11T13:02:07Z</time>
      </trkpt>
      <trkpt lat="44.65913" lon="3.09271">
        <ele>1204</ele>
        <time>2012-09-11T13:02:19Z</time>
      </trkpt>
      <trkpt lat="44.65897" lon="3.09261">
        <ele>1204</ele>
        <time>2012-09-11T13:02:32Z</time>
      </trkpt>
      <trkpt lat="44.65882" lon="3.09252">
        <ele>1205</ele>
        <time>2012-09-11T13:02:44Z</time>
      </trkpt>
      <trkpt lat="44.6587" lon="3.09243">
        <ele>1204</ele>
        <time>2012-09-11T13:02:56Z</time>
      </trkpt>
      <trkpt lat="44.65857" lon="3.09234">
        <ele>1204</ele>
        <time>2012-09-11T13:03:08Z</time>
      </trkpt>
      <trkpt lat="44.65842" lon="3.09223">
        <ele>1205</ele>
        <time>2012-09-11T13:03:20Z</time>
      </trkpt>
      <trkpt lat="44.65829" lon="3.09215">
        <ele>1208</ele>
        <time>2012-09-11T13:03:33Z</time>
      </trkpt>
      <trkpt lat="44.65815" lon="3.09204">
        <ele>1204</ele>
        <time>2012-09-11T13:03:46Z</time>
      </trkpt>
      <trkpt lat="44.658" lon="3.09194">
        <ele>1206</ele>
        <time>2012-09-11T13:03:58Z</time>
      </trkpt>
      <trkpt lat="44.65789" lon="3.09185">
        <ele>1206</ele>
        <time>2012-09-11T13:04:09Z</time>
      </trkpt>
      <trkpt lat="44.65776" lon="3.09177">
        <ele>1205</ele>
        <time>2012-09-11T13:04:21Z</time>
      </trkpt>
      <trkpt lat="44.65763" lon="3.09171">
        <ele>1206</ele>
        <time>2012-09-11T13:04:31Z</time>
      </trkpt>
      <trkpt lat="44.65751" lon="3.09164">
        <ele>1205</ele>
        <time>2012-09-11T13:04:42Z</time>
      </trkpt>
      <trkpt lat="44.65739" lon="3.09158">
        <ele>1206</ele>
        <time>2012-09-11T13:04:53Z</time>
      </trkpt>
      <trkpt lat="44.65726" lon="3.0915">
        <ele>1204</ele>
        <time>2012-09-11T13:05:04Z</time>
      </trkpt>
      <trkpt lat="44.65714" lon="3.09142">
        <ele>1203</ele>
        <time>2012-09-11T13:05:15Z</time>
      </trkpt>
      <trkpt lat="44.65701" lon="3.09133">
        <ele>1206</ele>
        <time>2012-09-11T13:05:27Z</time>
      </trkpt>
      <trkpt lat="44.65688" lon="3.09122">
        <ele>1205</ele>
        <time>2012-09-11T13:05:37Z</time>
      </trkpt>
      <trkpt lat="44.65678" lon="3.09112">
        <ele>1204</ele>
        <time>2012-09-11T13:05:48Z</time>
      </trkpt>
      <trkpt lat="44.65666" lon="3.09103">
        <ele>1203</ele>
        <time>2012-09-11T13:06:00Z</time>
      </trkpt>
      <trkpt lat="44.65651" lon="3.09091">
        <ele>1204</ele>
        <time>2012-09-11T13:06:13Z</time>
      </trkpt>
      <trkpt lat="44.65638" lon="3.09085">
        <ele>1207</ele>
        <time>2012-09-11T13:06:23Z</time>
      </trkpt>
      <trkpt lat="44.65628" lon="3.0908">
        <ele>1206</ele>
        <time>2012-09-11T13:06:33Z</time>
      </trkpt>
      <trkpt lat="44.65614" lon="3.09074">
        <ele>1208</ele>
        <time>2012-09-11T13:06:45Z</time>
      </trkpt>
      <trkpt lat="44.65599" lon="3.09071">
        <ele>1209</ele>
        <time>2012-09-11T13:06:57Z</time>
      </trkpt>
      <trkpt lat="44.65583" lon="3.09071">
        <ele>1210</ele>
        <time>2012-09-11T13:07:08Z</time>
      </trkpt>
      <trkpt lat="44.6557" lon="3.09067">
        <ele>1207</ele>
        <time>2012-09-11T13:07:20Z</time>
      </trkpt>
      <trkpt lat="44.65556" lon="3.09065">
        <ele>1210</ele>
        <time>2012-09-11T13:07:30Z</time>
      </trkpt>
      <trkpt lat="44.65543" lon="3.09057">
        <ele>1207</ele>
        <time>2012-09-11T13:07:40Z</time>
      </trkpt>
      <trkpt lat="44.65532" lon="3.09049">
        <ele>1206</ele>
        <time>2012-09-11T13:07:51Z</time>
      </trkpt>
      <trkpt lat="44.65518" lon="3.09038">
        <ele>1207</ele>
        <time>2012-09-11T13:08:03Z</time>
      </trkpt>
      <trkpt lat="44.65508" lon="3.09024">
        <ele>1205</ele>
        <time>2012-09-11T13:08:15Z</time>
      </trkpt>
      <trkpt lat="44.65508" lon="3.09021">
        <ele>1207</ele>
        <time>2012-09-11T13:08:33Z</time>
      </trkpt>
      <trkpt lat="44.65509" lon="3.08997">
        <ele>1204</ele>
        <time>2012-09-11T13:08:46Z</time>
      </trkpt>
      <trkpt lat="44.65511" lon="3.08982">
        <ele>1206</ele>
        <time>2012-09-11T13:08:58Z</time>
      </trkpt>
      <trkpt lat="44.65512" lon="3.08964">
        <ele>1205</ele>
        <time>2012-09-11T13:09:08Z</time>
      </trkpt>
      <trkpt lat="44.65513" lon="3.08947">
        <ele>1207</ele>
        <time>2012-09-11T13:09:19Z</time>
      </trkpt>
      <trkpt lat="44.65512" lon="3.08927">
        <ele>1208</ele>
        <time>2012-09-11T13:09:29Z</time>
      </trkpt>
      <trkpt lat="44.65507" lon="3.08912">
        <ele>1207</ele>
        <time>2012-09-11T13:09:39Z</time>
      </trkpt>
      <trkpt lat="44.655" lon="3.08894">
        <ele>1206</ele>
        <time>2012-09-11T13:09:51Z</time>
      </trkpt>
      <trkpt lat="44.65493" lon="3.08878">
        <ele>1207</ele>
        <time>2012-09-11T13:10:03Z</time>
      </trkpt>
      <trkpt lat="44.65485" lon="3.08862">
        <ele>1208</ele>
        <time>2012-09-11T13:10:15Z</time>
      </trkpt>
      <trkpt lat="44.65483" lon="3.08844">
        <ele>1206</ele>
        <time>2012-09-11T13:10:28Z</time>
      </trkpt>
      <trkpt lat="44.65487" lon="3.08828">
        <ele>1210</ele>
        <time>2012-09-11T13:10:41Z</time>
      </trkpt>
      <trkpt lat="44.65493" lon="3.08813">
        <ele>1213</ele>
        <time>2012-09-11T13:10:54Z</time>
      </trkpt>
      <trkpt lat="44.65499" lon="3.08803">
        <ele>1212</ele>
        <time>2012-09-11T13:11:04Z</time>
      </trkpt>
      <trkpt lat="44.65506" lon="3.08793">
        <ele>1215</ele>
        <time>2012-09-11T13:11:15Z</time>
      </trkpt>
      <trkpt lat="44.65514" lon="3.08787">
        <ele>1217</ele>
        <time>2012-09-11T13:11:25Z</time>
      </trkpt>
      <trkpt lat="44.65518" lon="3.08774">
        <ele>1218</ele>
        <time>2012-09-11T13:11:37Z</time>
      </trkpt>
      <trkpt lat="44.6552" lon="3.08756">
        <ele>1218</ele>
        <time>2012-09-11T13:11:49Z</time>
      </trkpt>
      <trkpt lat="44.65527" lon="3.08739">
        <ele>1223</ele>
        <time>2012-09-11T13:12:01Z</time>
      </trkpt>
      <trkpt lat="44.65536" lon="3.08725">
        <ele>1219</ele>
        <time>2012-09-11T13:12:13Z</time>
      </trkpt>
      <trkpt lat="44.65541" lon="3.08708">
        <ele>1226</ele>
        <time>2012-09-11T13:12:25Z</time>
      </trkpt>
      <trkpt lat="44.65547" lon="3.0869">
        <ele>1217</ele>
        <time>2012-09-11T13:12:36Z</time>
      </trkpt>
      <trkpt lat="44.65552" lon="3.08673">
        <ele>1227</ele>
        <time>2012-09-11T13:12:48Z</time>
      </trkpt>
      <trkpt lat="44.65557" lon="3.08655">
        <ele>1225</ele>
        <time>2012-09-11T13:13:00Z</time>
      </trkpt>
      <trkpt lat="44.65563" lon="3.08639">
        <ele>1223</ele>
        <time>2012-09-11T13:13:10Z</time>
      </trkpt>
      <trkpt lat="44.65568" lon="3.08621">
        <ele>1224</ele>
        <time>2012-09-11T13:13:22Z</time>
      </trkpt>
      <trkpt lat="44.65574" lon="3.086">
        <ele>1225</ele>
        <time>2012-09-11T13:13:34Z</time>
      </trkpt>
      <trkpt lat="44.6558" lon="3.08582">
        <ele>1226</ele>
        <time>2012-09-11T13:13:46Z</time>
      </trkpt>
      <trkpt lat="44.65585" lon="3.08564">
        <ele>1225</ele>
        <time>2012-09-11T13:13:57Z</time>
      </trkpt>
      <trkpt lat="44.6559" lon="3.08546">
        <ele>1226</ele>
        <time>2012-09-11T13:14:08Z</time>
      </trkpt>
      <trkpt lat="44.65595" lon="3.08532">
        <ele>1224</ele>
        <time>2012-09-11T13:14:18Z</time>
      </trkpt>
      <trkpt lat="44.65598" lon="3.08515">
        <ele>1220</ele>
        <time>2012-09-11T13:14:28Z</time>
      </trkpt>
      <trkpt lat="44.65601" lon="3.08495">
        <ele>1222</ele>
        <time>2012-09-11T13:14:40Z</time>
      </trkpt>
      <trkpt lat="44.65604" lon="3.08476">
        <ele>1227</ele>
        <time>2012-09-11T13:14:51Z</time>
      </trkpt>
      <trkpt lat="44.65606" lon="3.08469">
        <ele>1225</ele>
        <time>2012-09-11T13:16:24Z</time>
      </trkpt>
      <trkpt lat="44.65606" lon="3.08464">
        <ele>1224</ele>
        <time>2012-09-11T13:18:44Z</time>
      </trkpt>
      <trkpt lat="44.65607" lon="3.08445">
        <ele>1225</ele>
        <time>2012-09-11T13:18:56Z</time>
      </trkpt>
      <trkpt lat="44.6561" lon="3.08429">
        <ele>1223</ele>
        <time>2012-09-11T13:19:07Z</time>
      </trkpt>
      <trkpt lat="44.65612" lon="3.08411">
        <ele>1227</ele>
        <time>2012-09-11T13:19:19Z</time>
      </trkpt>
      <trkpt lat="44.65614" lon="3.08396">
        <ele>1227</ele>
        <time>2012-09-11T13:19:29Z</time>
      </trkpt>
      <trkpt lat="44.65617" lon="3.08379">
        <ele>1223</ele>
        <time>2012-09-11T13:19:40Z</time>
      </trkpt>
      <trkpt lat="44.65619" lon="3.08363">
        <ele>1224</ele>
        <time>2012-09-11T13:19:51Z</time>
      </trkpt>
      <trkpt lat="44.65621" lon="3.08349">
        <ele>1223</ele>
        <time>2012-09-11T13:20:02Z</time>
      </trkpt>
      <trkpt lat="44.65624" lon="3.08329">
        <ele>1224</ele>
        <time>2012-09-11T13:20:13Z</time>
      </trkpt>
      <trkpt lat="44.65625" lon="3.08315">
        <ele>1226</ele>
        <time>2012-09-11T13:20:23Z</time>
      </trkpt>
      <trkpt lat="44.65627" lon="3.08296">
        <ele>1227</ele>
        <time>2012-09-11T13:20:35Z</time>
      </trkpt>
      <trkpt lat="44.6563" lon="3.08279">
        <ele>1225</ele>
        <time>2012-09-11T13:20:46Z</time>
      </trkpt>
      <trkpt lat="44.65633" lon="3.08267">
        <ele>1226</ele>
        <time>2012-09-11T13:20:57Z</time>
      </trkpt>
      <trkpt lat="44.65635" lon="3.08254">
        <ele>1231</ele>
        <time>2012-09-11T13:21:07Z</time>
      </trkpt>
      <trkpt lat="44.65637" lon="3.08235">
        <ele>1231</ele>
        <time>2012-09-11T13:21:19Z</time>
      </trkpt>
      <trkpt lat="44.65642" lon="3.08215">
        <ele>1225</ele>
        <time>2012-09-11T13:21:29Z</time>
      </trkpt>
      <trkpt lat="44.65647" lon="3.08195">
        <ele>1225</ele>
        <time>2012-09-11T13:21:42Z</time>
      </trkpt>
      <trkpt lat="44.65649" lon="3.08177">
        <ele>1227</ele>
        <time>2012-09-11T13:21:52Z</time>
      </trkpt>
      <trkpt lat="44.65649" lon="3.08158">
        <ele>1231</ele>
        <time>2012-09-11T13:22:05Z</time>
      </trkpt>
      <trkpt lat="44.65651" lon="3.08143">
        <ele>1226</ele>
        <time>2012-09-11T13:22:16Z</time>
      </trkpt>
      <trkpt lat="44.65652" lon="3.08129">
        <ele>1228</ele>
        <time>2012-09-11T13:22:27Z</time>
      </trkpt>
      <trkpt lat="44.65656" lon="3.08111">
        <ele>1232</ele>
        <time>2012-09-11T13:22:39Z</time>
      </trkpt>
      <trkpt lat="44.65662" lon="3.08095">
        <ele>1228</ele>
        <time>2012-09-11T13:22:51Z</time>
      </trkpt>
      <trkpt lat="44.65665" lon="3.08075">
        <ele>1234</ele>
        <time>2012-09-11T13:23:03Z</time>
      </trkpt>
      <trkpt lat="44.65669" lon="3.08056">
        <ele>1228</ele>
        <time>2012-09-11T13:23:14Z</time>
      </trkpt>
      <trkpt lat="44.65672" lon="3.08036">
        <ele>1229</ele>
        <time>2012-09-11T13:23:26Z</time>
      </trkpt>
      <trkpt lat="44.65677" lon="3.08021">
        <ele>1234</ele>
        <time>2012-09-11T13:23:38Z</time>
      </trkpt>
      <trkpt lat="44.65678" lon="3.08002">
        <ele>1233</ele>
        <time>2012-09-11T13:23:49Z</time>
      </trkpt>
      <trkpt lat="44.65676" lon="3.07982">
        <ele>1230</ele>
        <time>2012-09-11T13:24:00Z</time>
      </trkpt>
      <trkpt lat="44.65675" lon="3.07963">
        <ele>1231</ele>
        <time>2012-09-11T13:24:12Z</time>
      </trkpt>
      <trkpt lat="44.65673" lon="3.07944">
        <ele>1233</ele>
        <time>2012-09-11T13:24:24Z</time>
      </trkpt>
      <trkpt lat="44.6567" lon="3.07924">
        <ele>1232</ele>
        <time>2012-09-11T13:24:36Z</time>
      </trkpt>
      <trkpt lat="44.65663" lon="3.07908">
        <ele>1232</ele>
        <time>2012-09-11T13:24:47Z</time>
      </trkpt>
      <trkpt lat="44.65657" lon="3.07891">
        <ele>1232</ele>
        <time>2012-09-11T13:24:58Z</time>
      </trkpt>
      <trkpt lat="44.65653" lon="3.07879">
        <ele>1233</ele>
        <time>2012-09-11T13:25:08Z</time>
      </trkpt>
      <trkpt lat="44.65653" lon="3.0786">
        <ele>1233</ele>
        <time>2012-09-11T13:25:20Z</time>
      </trkpt>
      <trkpt lat="44.65653" lon="3.07846">
        <ele>1235</ele>
        <time>2012-09-11T13:25:30Z</time>
      </trkpt>
      <trkpt lat="44.65654" lon="3.07828">
        <ele>1230</ele>
        <time>2012-09-11T13:25:42Z</time>
      </trkpt>
      <trkpt lat="44.65656" lon="3.07815">
        <ele>1225</ele>
        <time>2012-09-11T13:25:52Z</time>
      </trkpt>
      <trkpt lat="44.65657" lon="3.07794">
        <ele>1230</ele>
        <time>2012-09-11T13:26:04Z</time>
      </trkpt>
      <trkpt lat="44.65656" lon="3.07775">
        <ele>1232</ele>
        <time>2012-09-11T13:26:16Z</time>
      </trkpt>
      <trkpt lat="44.65655" lon="3.07755">
        <ele>1235</ele>
        <time>2012-09-11T13:26:27Z</time>
      </trkpt>
      <trkpt lat="44.65655" lon="3.07737">
        <ele>1233</ele>
        <time>2012-09-11T13:26:39Z</time>
      </trkpt>
      <trkpt lat="44.65657" lon="3.07716">
        <ele>1234</ele>
        <time>2012-09-11T13:26:51Z</time>
      </trkpt>
      <trkpt lat="44.6566" lon="3.07699">
        <ele>1237</ele>
        <time>2012-09-11T13:27:03Z</time>
      </trkpt>
      <trkpt lat="44.65665" lon="3.07684">
        <ele>1239</ele>
        <time>2012-09-11T13:27:14Z</time>
      </trkpt>
      <trkpt lat="44.65668" lon="3.07668">
        <ele>1243</ele>
        <time>2012-09-11T13:27:25Z</time>
      </trkpt>
      <trkpt lat="44.65674" lon="3.0765">
        <ele>1241</ele>
        <time>2012-09-11T13:27:38Z</time>
      </trkpt>
      <trkpt lat="44.65681" lon="3.07632">
        <ele>1239</ele>
        <time>2012-09-11T13:27:50Z</time>
      </trkpt>
      <trkpt lat="44.65686" lon="3.07617">
        <ele>1238</ele>
        <time>2012-09-11T13:28:02Z</time>
      </trkpt>
      <trkpt lat="44.65691" lon="3.076">
        <ele>1243</ele>
        <time>2012-09-11T13:28:15Z</time>
      </trkpt>
      <trkpt lat="44.65699" lon="3.07586">
        <ele>1242</ele>
        <time>2012-09-11T13:28:26Z</time>
      </trkpt>
      <trkpt lat="44.65705" lon="3.07574">
        <ele>1237</ele>
        <time>2012-09-11T13:28:36Z</time>
      </trkpt>
      <trkpt lat="44.65712" lon="3.07558">
        <ele>1240</ele>
        <time>2012-09-11T13:28:48Z</time>
      </trkpt>
      <trkpt lat="44.6572" lon="3.07544">
        <ele>1243</ele>
        <time>2012-09-11T13:29:00Z</time>
      </trkpt>
      <trkpt lat="44.65728" lon="3.0753">
        <ele>1244</ele>
        <time>2012-09-11T13:29:12Z</time>
      </trkpt>
      <trkpt lat="44.65735" lon="3.07514">
        <ele>1245</ele>
        <time>2012-09-11T13:29:25Z</time>
      </trkpt>
      <trkpt lat="44.6574" lon="3.07503">
        <ele>1248</ele>
        <time>2012-09-11T13:29:35Z</time>
      </trkpt>
      <trkpt lat="44.65747" lon="3.07486">
        <ele>1248</ele>
        <time>2012-09-11T13:29:47Z</time>
      </trkpt>
      <trkpt lat="44.65751" lon="3.07469">
        <ele>1250</ele>
        <time>2012-09-11T13:30:01Z</time>
      </trkpt>
      <trkpt lat="44.65755" lon="3.07451">
        <ele>1254</ele>
        <time>2012-09-11T13:30:13Z</time>
      </trkpt>
      <trkpt lat="44.65756" lon="3.07434">
        <ele>1258</ele>
        <time>2012-09-11T13:30:24Z</time>
      </trkpt>
      <trkpt lat="44.65758" lon="3.07421">
        <ele>1256</ele>
        <time>2012-09-11T13:30:34Z</time>
      </trkpt>
      <trkpt lat="44.65761" lon="3.07399">
        <ele>1257</ele>
        <time>2012-09-11T13:30:47Z</time>
      </trkpt>
      <trkpt lat="44.65763" lon="3.07381">
        <ele>1253</ele>
        <time>2012-09-11T13:30:58Z</time>
      </trkpt>
      <trkpt lat="44.65767" lon="3.07365">
        <ele>1253</ele>
        <time>2012-09-11T13:31:10Z</time>
      </trkpt>
      <trkpt lat="44.65772" lon="3.07348">
        <ele>1253</ele>
        <time>2012-09-11T13:31:22Z</time>
      </trkpt>
      <trkpt lat="44.65776" lon="3.07332">
        <ele>1259</ele>
        <time>2012-09-11T13:31:34Z</time>
      </trkpt>
      <trkpt lat="44.65783" lon="3.07323">
        <ele>1254</ele>
        <time>2012-09-11T13:31:44Z</time>
      </trkpt>
      <trkpt lat="44.65788" lon="3.07306">
        <ele>1260</ele>
        <time>2012-09-11T13:31:57Z</time>
      </trkpt>
      <trkpt lat="44.65789" lon="3.07292">
        <ele>1263</ele>
        <time>2012-09-11T13:32:07Z</time>
      </trkpt>
      <trkpt lat="44.65788" lon="3.07273">
        <ele>1260</ele>
        <time>2012-09-11T13:32:19Z</time>
      </trkpt>
      <trkpt lat="44.65786" lon="3.07256">
        <ele>1262</ele>
        <time>2012-09-11T13:32:59Z</time>
      </trkpt>
      <trkpt lat="44.65784" lon="3.07245">
        <ele>1258</ele>
        <time>2012-09-11T13:33:09Z</time>
      </trkpt>
      <trkpt lat="44.65779" lon="3.07228">
        <ele>1255</ele>
        <time>2012-09-11T13:33:22Z</time>
      </trkpt>
      <trkpt lat="44.65773" lon="3.07213">
        <ele>1257</ele>
        <time>2012-09-11T13:33:34Z</time>
      </trkpt>
      <trkpt lat="44.6577" lon="3.07197">
        <ele>1258</ele>
        <time>2012-09-11T13:33:45Z</time>
      </trkpt>
      <trkpt lat="44.65767" lon="3.07185">
        <ele>1258</ele>
        <time>2012-09-11T13:33:55Z</time>
      </trkpt>
      <trkpt lat="44.65761" lon="3.07169">
        <ele>1259</ele>
        <time>2012-09-11T13:34:07Z</time>
      </trkpt>
      <trkpt lat="44.65755" lon="3.07153">
        <ele>1260</ele>
        <time>2012-09-11T13:34:19Z</time>
      </trkpt>
      <trkpt lat="44.65749" lon="3.07136">
        <ele>1262</ele>
        <time>2012-09-11T13:34:32Z</time>
      </trkpt>
      <trkpt lat="44.65748" lon="3.07132">
        <ele>1264</ele>
        <time>2012-09-11T13:34:47Z</time>
      </trkpt>
      <trkpt lat="44.65742" lon="3.07116">
        <ele>1262</ele>
        <time>2012-09-11T13:34:59Z</time>
      </trkpt>
      <trkpt lat="44.65738" lon="3.07098">
        <ele>1259</ele>
        <time>2012-09-11T13:35:11Z</time>
      </trkpt>
      <trkpt lat="44.65735" lon="3.0708">
        <ele>1261</ele>
        <time>2012-09-11T13:35:23Z</time>
      </trkpt>
      <trkpt lat="44.65732" lon="3.07063">
        <ele>1263</ele>
        <time>2012-09-11T13:35:35Z</time>
      </trkpt>
      <trkpt lat="44.6573" lon="3.07046">
        <ele>1267</ele>
        <time>2012-09-11T13:35:45Z</time>
      </trkpt>
      <trkpt lat="44.65733" lon="3.07035">
        <ele>1259</ele>
        <time>2012-09-11T13:35:57Z</time>
      </trkpt>
      <trkpt lat="44.65738" lon="3.07036">
        <ele>1259</ele>
        <time>2012-09-11T13:36:34Z</time>
      </trkpt>
      <trkpt lat="44.65738" lon="3.07044">
        <ele>1261</ele>
        <time>2012-09-11T13:36:50Z</time>
      </trkpt>
      <trkpt lat="44.65741" lon="3.07051">
        <ele>1260</ele>
        <time>2012-09-11T13:37:04Z</time>
      </trkpt>
      <trkpt lat="44.65741" lon="3.07046">
        <ele>1261</ele>
        <time>2012-09-11T13:37:23Z</time>
      </trkpt>
      <trkpt lat="44.65736" lon="3.07032">
        <ele>1260</ele>
        <time>2012-09-11T13:37:44Z</time>
      </trkpt>
      <trkpt lat="44.65736" lon="3.07028">
        <ele>1266</ele>
        <time>2012-09-11T13:38:12Z</time>
      </trkpt>
      <trkpt lat="44.65738" lon="3.07021">
        <ele>1262</ele>
        <time>2012-09-11T13:38:26Z</time>
      </trkpt>
      <trkpt lat="44.65735" lon="3.0702">
        <ele>1274</ele>
        <time>2012-09-11T13:38:37Z</time>
      </trkpt>
      <trkpt lat="44.65732" lon="3.07015">
        <ele>1263</ele>
        <time>2012-09-11T13:38:53Z</time>
      </trkpt>
      <trkpt lat="44.65732" lon="3.07001">
        <ele>1266</ele>
        <time>2012-09-11T13:39:04Z</time>
      </trkpt>
      <trkpt lat="44.65733" lon="3.07003">
        <ele>1262</ele>
        <time>2012-09-11T13:39:14Z</time>
      </trkpt>
      <trkpt lat="44.65753" lon="3.07008">
        <ele>1261</ele>
        <time>2012-09-11T13:39:52Z</time>
      </trkpt>
      <trkpt lat="44.65747" lon="3.07029">
        <ele>1257</ele>
        <time>2012-09-11T13:40:04Z</time>
      </trkpt>
      <trkpt lat="44.65749" lon="3.07039">
        <ele>1255</ele>
        <time>2012-09-11T13:40:16Z</time>
      </trkpt>
      <trkpt lat="44.65743" lon="3.07029">
        <ele>1281</ele>
        <time>2012-09-11T13:40:27Z</time>
      </trkpt>
      <trkpt lat="44.65762" lon="3.07022">
        <ele>1262</ele>
        <time>2012-09-11T13:40:37Z</time>
      </trkpt>
      <trkpt lat="44.65749" lon="3.07025">
        <ele>1263</ele>
        <time>2012-09-11T13:40:57Z</time>
      </trkpt>
      <trkpt lat="44.65744" lon="3.07033">
        <ele>1262</ele>
        <time>2012-09-11T13:41:11Z</time>
      </trkpt>
      <trkpt lat="44.65742" lon="3.07035">
        <ele>1259</ele>
        <time>2012-09-11T13:44:46Z</time>
      </trkpt>
      <trkpt lat="44.65744" lon="3.07037">
        <ele>1254</ele>
        <time>2012-09-11T13:45:12Z</time>
      </trkpt>
      <trkpt lat="44.65741" lon="3.07036">
        <ele>1268</ele>
        <time>2012-09-11T13:45:53Z</time>
      </trkpt>
      <trkpt lat="44.6574" lon="3.07033">
        <ele>1260</ele>
        <time>2012-09-11T13:46:17Z</time>
      </trkpt>
      <trkpt lat="44.65741" lon="3.07015">
        <ele>1258</ele>
        <time>2012-09-11T13:46:29Z</time>
      </trkpt>
      <trkpt lat="44.65745" lon="3.06997">
        <ele>1262</ele>
        <time>2012-09-11T13:46:42Z</time>
      </trkpt>
      <trkpt lat="44.65749" lon="3.06977">
        <ele>1261</ele>
        <time>2012-09-11T13:46:55Z</time>
      </trkpt>
      <trkpt lat="44.65753" lon="3.06964">
        <ele>1260</ele>
        <time>2012-09-11T13:47:05Z</time>
      </trkpt>
      <trkpt lat="44.65755" lon="3.06951">
        <ele>1259</ele>
        <time>2012-09-11T13:47:16Z</time>
      </trkpt>
      <trkpt lat="44.65759" lon="3.06934">
        <ele>1259</ele>
        <time>2012-09-11T13:47:27Z</time>
      </trkpt>
      <trkpt lat="44.65762" lon="3.0692">
        <ele>1262</ele>
        <time>2012-09-11T13:47:38Z</time>
      </trkpt>
      <trkpt lat="44.65763" lon="3.06901">
        <ele>1264</ele>
        <time>2012-09-11T13:47:49Z</time>
      </trkpt>
      <trkpt lat="44.65768" lon="3.06885">
        <ele>1259</ele>
        <time>2012-09-11T13:48:01Z</time>
      </trkpt>
      <trkpt lat="44.65772" lon="3.06868">
        <ele>1259</ele>
        <time>2012-09-11T13:48:13Z</time>
      </trkpt>
      <trkpt lat="44.65775" lon="3.06849">
        <ele>1260</ele>
        <time>2012-09-11T13:48:25Z</time>
      </trkpt>
      <trkpt lat="44.65778" lon="3.06832">
        <ele>1259</ele>
        <time>2012-09-11T13:48:37Z</time>
      </trkpt>
      <trkpt lat="44.65783" lon="3.06814">
        <ele>1260</ele>
        <time>2012-09-11T13:48:49Z</time>
      </trkpt>
      <trkpt lat="44.6579" lon="3.06795">
        <ele>1252</ele>
        <time>2012-09-11T13:49:02Z</time>
      </trkpt>
      <trkpt lat="44.65795" lon="3.06784">
        <ele>1253</ele>
        <time>2012-09-11T13:49:12Z</time>
      </trkpt>
      <trkpt lat="44.65801" lon="3.06774">
        <ele>1257</ele>
        <time>2012-09-11T13:49:26Z</time>
      </trkpt>
      <trkpt lat="44.65811" lon="3.06763">
        <ele>1256</ele>
        <time>2012-09-11T13:49:39Z</time>
      </trkpt>
      <trkpt lat="44.65823" lon="3.06749">
        <ele>1251</ele>
        <time>2012-09-11T13:49:51Z</time>
      </trkpt>
      <trkpt lat="44.6583" lon="3.0674">
        <ele>1253</ele>
        <time>2012-09-11T13:50:01Z</time>
      </trkpt>
      <trkpt lat="44.65842" lon="3.0673">
        <ele>1252</ele>
        <time>2012-09-11T13:50:13Z</time>
      </trkpt>
      <trkpt lat="44.65854" lon="3.06723">
        <ele>1247</ele>
        <time>2012-09-11T13:50:25Z</time>
      </trkpt>
      <trkpt lat="44.65864" lon="3.06713">
        <ele>1249</ele>
        <time>2012-09-11T13:50:37Z</time>
      </trkpt>
      <trkpt lat="44.65876" lon="3.06705">
        <ele>1249</ele>
        <time>2012-09-11T13:50:49Z</time>
      </trkpt>
      <trkpt lat="44.65889" lon="3.06699">
        <ele>1247</ele>
        <time>2012-09-11T13:51:01Z</time>
      </trkpt>
      <trkpt lat="44.65902" lon="3.06688">
        <ele>1242</ele>
        <time>2012-09-11T13:51:13Z</time>
      </trkpt>
      <trkpt lat="44.65902" lon="3.06669">
        <ele>1241</ele>
        <time>2012-09-11T13:51:24Z</time>
      </trkpt>
      <trkpt lat="44.659" lon="3.06651">
        <ele>1241</ele>
        <time>2012-09-11T13:51:36Z</time>
      </trkpt>
      <trkpt lat="44.65899" lon="3.06633">
        <ele>1242</ele>
        <time>2012-09-11T13:51:46Z</time>
      </trkpt>
      <trkpt lat="44.659" lon="3.0661">
        <ele>1245</ele>
        <time>2012-09-11T13:51:59Z</time>
      </trkpt>
      <trkpt lat="44.65903" lon="3.06591">
        <ele>1245</ele>
        <time>2012-09-11T13:52:10Z</time>
      </trkpt>
      <trkpt lat="44.65905" lon="3.06573">
        <ele>1246</ele>
        <time>2012-09-11T13:52:21Z</time>
      </trkpt>
      <trkpt lat="44.65905" lon="3.06565">
        <ele>1245</ele>
        <time>2012-09-11T13:52:35Z</time>
      </trkpt>
      <trkpt lat="44.65902" lon="3.06564">
        <ele>1243</ele>
        <time>2012-09-11T13:52:55Z</time>
      </trkpt>
      <trkpt lat="44.65902" lon="3.06561">
        <ele>1244</ele>
        <time>2012-09-11T13:53:06Z</time>
      </trkpt>
      <trkpt lat="44.65908" lon="3.06563">
        <ele>1240</ele>
        <time>2012-09-11T13:53:18Z</time>
      </trkpt>
      <trkpt lat="44.65905" lon="3.06565">
        <ele>1247</ele>
        <time>2012-09-11T13:54:04Z</time>
      </trkpt>
      <trkpt lat="44.6591" lon="3.06569">
        <ele>1256</ele>
        <time>2012-09-11T13:54:20Z</time>
      </trkpt>
      <trkpt lat="44.65905" lon="3.06566">
        <ele>1242</ele>
        <time>2012-09-11T13:56:23Z</time>
      </trkpt>
      <trkpt lat="44.65906" lon="3.0656">
        <ele>1244</ele>
        <time>2012-09-11T13:56:36Z</time>
      </trkpt>
      <trkpt lat="44.65908" lon="3.06543">
        <ele>1245</ele>
        <time>2012-09-11T13:56:47Z</time>
      </trkpt>
      <trkpt lat="44.65908" lon="3.06525">
        <ele>1244</ele>
        <time>2012-09-11T13:56:59Z</time>
      </trkpt>
      <trkpt lat="44.65906" lon="3.06505">
        <ele>1246</ele>
        <time>2012-09-11T13:57:11Z</time>
      </trkpt>
      <trkpt lat="44.65904" lon="3.06485">
        <ele>1246</ele>
        <time>2012-09-11T13:57:23Z</time>
      </trkpt>
      <trkpt lat="44.65904" lon="3.06472">
        <ele>1247</ele>
        <time>2012-09-11T13:57:56Z</time>
      </trkpt>
      <trkpt lat="44.65902" lon="3.06469">
        <ele>1247</ele>
        <time>2012-09-11T13:58:10Z</time>
      </trkpt>
      <trkpt lat="44.65902" lon="3.06473">
        <ele>1245</ele>
        <time>2012-09-11T13:58:29Z</time>
      </trkpt>
      <trkpt lat="44.65904" lon="3.06477">
        <ele>1250</ele>
        <time>2012-09-11T13:58:42Z</time>
      </trkpt>
      <trkpt lat="44.65902" lon="3.06473">
        <ele>1253</ele>
        <time>2012-09-11T13:59:34Z</time>
      </trkpt>
      <trkpt lat="44.659" lon="3.06449">
        <ele>1248</ele>
        <time>2012-09-11T13:59:47Z</time>
      </trkpt>
      <trkpt lat="44.65899" lon="3.0643">
        <ele>1249</ele>
        <time>2012-09-11T13:59:58Z</time>
      </trkpt>
      <trkpt lat="44.65899" lon="3.06411">
        <ele>1249</ele>
        <time>2012-09-11T14:00:10Z</time>
      </trkpt>
      <trkpt lat="44.65897" lon="3.06392">
        <ele>1248</ele>
        <time>2012-09-11T14:00:22Z</time>
      </trkpt>
      <trkpt lat="44.65894" lon="3.06371">
        <ele>1249</ele>
        <time>2012-09-11T14:00:34Z</time>
      </trkpt>
      <trkpt lat="44.65893" lon="3.06351">
        <ele>1250</ele>
        <time>2012-09-11T14:00:46Z</time>
      </trkpt>
      <trkpt lat="44.65893" lon="3.06332">
        <ele>1251</ele>
        <time>2012-09-11T14:00:58Z</time>
      </trkpt>
      <trkpt lat="44.65892" lon="3.06314">
        <ele>1252</ele>
        <time>2012-09-11T14:01:09Z</time>
      </trkpt>
      <trkpt lat="44.65889" lon="3.06298">
        <ele>1253</ele>
        <time>2012-09-11T14:01:21Z</time>
      </trkpt>
      <trkpt lat="44.65884" lon="3.06282">
        <ele>1254</ele>
        <time>2012-09-11T14:01:33Z</time>
      </trkpt>
      <trkpt lat="44.65877" lon="3.06266">
        <ele>1255</ele>
        <time>2012-09-11T14:01:45Z</time>
      </trkpt>
      <trkpt lat="44.6587" lon="3.06249">
        <ele>1257</ele>
        <time>2012-09-11T14:01:57Z</time>
      </trkpt>
      <trkpt lat="44.65864" lon="3.06233">
        <ele>1258</ele>
        <time>2012-09-11T14:02:09Z</time>
      </trkpt>
      <trkpt lat="44.65858" lon="3.06216">
        <ele>1257</ele>
        <time>2012-09-11T14:02:21Z</time>
      </trkpt>
      <trkpt lat="44.65855" lon="3.06199">
        <ele>1259</ele>
        <time>2012-09-11T14:02:33Z</time>
      </trkpt>
      <trkpt lat="44.65853" lon="3.06181">
        <ele>1257</ele>
        <time>2012-09-11T14:02:45Z</time>
      </trkpt>
      <trkpt lat="44.65847" lon="3.06163">
        <ele>1261</ele>
        <time>2012-09-11T14:02:57Z</time>
      </trkpt>
      <trkpt lat="44.65842" lon="3.06151">
        <ele>1263</ele>
        <time>2012-09-11T14:03:07Z</time>
      </trkpt>
      <trkpt lat="44.65836" lon="3.06133">
        <ele>1263</ele>
        <time>2012-09-11T14:03:19Z</time>
      </trkpt>
      <trkpt lat="44.65831" lon="3.06116">
        <ele>1264</ele>
        <time>2012-09-11T14:03:31Z</time>
      </trkpt>
      <trkpt lat="44.65826" lon="3.061">
        <ele>1264</ele>
        <time>2012-09-11T14:03:43Z</time>
      </trkpt>
      <trkpt lat="44.65821" lon="3.06084">
        <ele>1265</ele>
        <time>2012-09-11T14:03:55Z</time>
      </trkpt>
      <trkpt lat="44.65812" lon="3.06071">
        <ele>1266</ele>
        <time>2012-09-11T14:04:06Z</time>
      </trkpt>
      <trkpt lat="44.65805" lon="3.06057">
        <ele>1266</ele>
        <time>2012-09-11T14:04:19Z</time>
      </trkpt>
      <trkpt lat="44.65799" lon="3.06041">
        <ele>1267</ele>
        <time>2012-09-11T14:04:30Z</time>
      </trkpt>
      <trkpt lat="44.65791" lon="3.06026">
        <ele>1267</ele>
        <time>2012-09-11T14:04:41Z</time>
      </trkpt>
      <trkpt lat="44.65787" lon="3.06015">
        <ele>1266</ele>
        <time>2012-09-11T14:04:51Z</time>
      </trkpt>
      <trkpt lat="44.65778" lon="3.05995">
        <ele>1269</ele>
        <time>2012-09-11T14:05:04Z</time>
      </trkpt>
      <trkpt lat="44.65772" lon="3.05978">
        <ele>1270</ele>
        <time>2012-09-11T14:05:16Z</time>
      </trkpt>
      <trkpt lat="44.65767" lon="3.05962">
        <ele>1270</ele>
        <time>2012-09-11T14:05:28Z</time>
      </trkpt>
      <trkpt lat="44.65761" lon="3.05945">
        <ele>1272</ele>
        <time>2012-09-11T14:05:40Z</time>
      </trkpt>
      <trkpt lat="44.65756" lon="3.05927">
        <ele>1273</ele>
        <time>2012-09-11T14:05:52Z</time>
      </trkpt>
      <trkpt lat="44.65751" lon="3.0591">
        <ele>1275</ele>
        <time>2012-09-11T14:06:04Z</time>
      </trkpt>
      <trkpt lat="44.65746" lon="3.05891">
        <ele>1276</ele>
        <time>2012-09-11T14:06:16Z</time>
      </trkpt>
      <trkpt lat="44.65742" lon="3.05873">
        <ele>1275</ele>
        <time>2012-09-11T14:06:28Z</time>
      </trkpt>
      <trkpt lat="44.6574" lon="3.05866">
        <ele>1274</ele>
        <time>2012-09-11T14:07:37Z</time>
      </trkpt>
      <trkpt lat="44.6574" lon="3.05846">
        <ele>1275</ele>
        <time>2012-09-11T14:07:48Z</time>
      </trkpt>
      <trkpt lat="44.6574" lon="3.05826">
        <ele>1272</ele>
        <time>2012-09-11T14:08:00Z</time>
      </trkpt>
      <trkpt lat="44.65742" lon="3.05807">
        <ele>1273</ele>
        <time>2012-09-11T14:08:11Z</time>
      </trkpt>
      <trkpt lat="44.65746" lon="3.0579">
        <ele>1274</ele>
        <time>2012-09-11T14:08:23Z</time>
      </trkpt>
      <trkpt lat="44.65754" lon="3.05775">
        <ele>1272</ele>
        <time>2012-09-11T14:08:35Z</time>
      </trkpt>
      <trkpt lat="44.65765" lon="3.05761">
        <ele>1272</ele>
        <time>2012-09-11T14:08:47Z</time>
      </trkpt>
      <trkpt lat="44.65775" lon="3.05749">
        <ele>1270</ele>
        <time>2012-09-11T14:08:58Z</time>
      </trkpt>
      <trkpt lat="44.65786" lon="3.05735">
        <ele>1269</ele>
        <time>2012-09-11T14:09:11Z</time>
      </trkpt>
      <trkpt lat="44.65795" lon="3.0572">
        <ele>1269</ele>
        <time>2012-09-11T14:09:22Z</time>
      </trkpt>
      <trkpt lat="44.65804" lon="3.05706">
        <ele>1267</ele>
        <time>2012-09-11T14:09:34Z</time>
      </trkpt>
      <trkpt lat="44.65814" lon="3.05693">
        <ele>1266</ele>
        <time>2012-09-11T14:09:47Z</time>
      </trkpt>
      <trkpt lat="44.65824" lon="3.0568">
        <ele>1262</ele>
        <time>2012-09-11T14:09:58Z</time>
      </trkpt>
      <trkpt lat="44.65833" lon="3.05667">
        <ele>1261</ele>
        <time>2012-09-11T14:10:10Z</time>
      </trkpt>
      <trkpt lat="44.65842" lon="3.05655">
        <ele>1258</ele>
        <time>2012-09-11T14:10:21Z</time>
      </trkpt>
      <trkpt lat="44.65852" lon="3.05642">
        <ele>1259</ele>
        <time>2012-09-11T14:10:32Z</time>
      </trkpt>
      <trkpt lat="44.65849" lon="3.05627">
        <ele>1255</ele>
        <time>2012-09-11T14:10:43Z</time>
      </trkpt>
      <trkpt lat="44.65849" lon="3.05609">
        <ele>1257</ele>
        <time>2012-09-11T14:10:54Z</time>
      </trkpt>
      <trkpt lat="44.65852" lon="3.05592">
        <ele>1257</ele>
        <time>2012-09-11T14:11:04Z</time>
      </trkpt>
      <trkpt lat="44.65854" lon="3.0557">
        <ele>1259</ele>
        <time>2012-09-11T14:11:17Z</time>
      </trkpt>
      <trkpt lat="44.65857" lon="3.05552">
        <ele>1256</ele>
        <time>2012-09-11T14:11:29Z</time>
      </trkpt>
      <trkpt lat="44.65863" lon="3.05535">
        <ele>1256</ele>
        <time>2012-09-11T14:11:40Z</time>
      </trkpt>
      <trkpt lat="44.65866" lon="3.05517">
        <ele>1257</ele>
        <time>2012-09-11T14:11:54Z</time>
      </trkpt>
      <trkpt lat="44.65872" lon="3.05508">
        <ele>1254</ele>
        <time>2012-09-11T14:12:04Z</time>
      </trkpt>
      <trkpt lat="44.65873" lon="3.05503">
        <ele>1257</ele>
        <time>2012-09-11T14:12:26Z</time>
      </trkpt>
      <trkpt lat="44.65879" lon="3.05487">
        <ele>1253</ele>
        <time>2012-09-11T14:12:37Z</time>
      </trkpt>
      <trkpt lat="44.65882" lon="3.05475">
        <ele>1255</ele>
        <time>2012-09-11T14:12:48Z</time>
      </trkpt>
      <trkpt lat="44.65887" lon="3.05459">
        <ele>1253</ele>
        <time>2012-09-11T14:13:00Z</time>
      </trkpt>
      <trkpt lat="44.65895" lon="3.05443">
        <ele>1255</ele>
        <time>2012-09-11T14:13:12Z</time>
      </trkpt>
      <trkpt lat="44.65897" lon="3.05431">
        <ele>1254</ele>
        <time>2012-09-11T14:13:22Z</time>
      </trkpt>
      <trkpt lat="44.65901" lon="3.05412">
        <ele>1252</ele>
        <time>2012-09-11T14:13:34Z</time>
      </trkpt>
      <trkpt lat="44.65908" lon="3.05398">
        <ele>1246</ele>
        <time>2012-09-11T14:13:45Z</time>
      </trkpt>
      <trkpt lat="44.65919" lon="3.05388">
        <ele>1246</ele>
        <time>2012-09-11T14:13:56Z</time>
      </trkpt>
      <trkpt lat="44.65926" lon="3.05372">
        <ele>1248</ele>
        <time>2012-09-11T14:14:13Z</time>
      </trkpt>
      <trkpt lat="44.65932" lon="3.05357">
        <ele>1246</ele>
        <time>2012-09-11T14:14:23Z</time>
      </trkpt>
      <trkpt lat="44.65937" lon="3.05341">
        <ele>1249</ele>
        <time>2012-09-11T14:14:35Z</time>
      </trkpt>
      <trkpt lat="44.65942" lon="3.05322">
        <ele>1244</ele>
        <time>2012-09-11T14:14:47Z</time>
      </trkpt>
      <trkpt lat="44.65942" lon="3.05318">
        <ele>1244</ele>
        <time>2012-09-11T14:15:08Z</time>
      </trkpt>
      <trkpt lat="44.6594" lon="3.05299">
        <ele>1244</ele>
        <time>2012-09-11T14:15:20Z</time>
      </trkpt>
      <trkpt lat="44.6594" lon="3.05283">
        <ele>1244</ele>
        <time>2012-09-11T14:15:31Z</time>
      </trkpt>
      <trkpt lat="44.65935" lon="3.05264">
        <ele>1246</ele>
        <time>2012-09-11T14:15:44Z</time>
      </trkpt>
      <trkpt lat="44.65929" lon="3.05253">
        <ele>1245</ele>
        <time>2012-09-11T14:15:55Z</time>
      </trkpt>
      <trkpt lat="44.65925" lon="3.05235">
        <ele>1245</ele>
        <time>2012-09-11T14:16:07Z</time>
      </trkpt>
      <trkpt lat="44.65923" lon="3.05214">
        <ele>1246</ele>
        <time>2012-09-11T14:16:19Z</time>
      </trkpt>
      <trkpt lat="44.65931" lon="3.05199">
        <ele>1242</ele>
        <time>2012-09-11T14:16:34Z</time>
      </trkpt>
      <trkpt lat="44.65932" lon="3.05184">
        <ele>1243</ele>
        <time>2012-09-11T14:16:44Z</time>
      </trkpt>
      <trkpt lat="44.65944" lon="3.05174">
        <ele>1242</ele>
        <time>2012-09-11T14:16:57Z</time>
      </trkpt>
      <trkpt lat="44.65954" lon="3.05162">
        <ele>1242</ele>
        <time>2012-09-11T14:17:07Z</time>
      </trkpt>
      <trkpt lat="44.65966" lon="3.05151">
        <ele>1242</ele>
        <time>2012-09-11T14:17:19Z</time>
      </trkpt>
      <trkpt lat="44.65976" lon="3.0514">
        <ele>1241</ele>
        <time>2012-09-11T14:17:30Z</time>
      </trkpt>
      <trkpt lat="44.65987" lon="3.05129">
        <ele>1242</ele>
        <time>2012-09-11T14:17:41Z</time>
      </trkpt>
      <trkpt lat="44.65998" lon="3.05116">
        <ele>1241</ele>
        <time>2012-09-11T14:17:52Z</time>
      </trkpt>
      <trkpt lat="44.66012" lon="3.05104">
        <ele>1240</ele>
        <time>2012-09-11T14:18:05Z</time>
      </trkpt>
      <trkpt lat="44.66025" lon="3.05091">
        <ele>1237</ele>
        <time>2012-09-11T14:18:18Z</time>
      </trkpt>
      <trkpt lat="44.66034" lon="3.05077">
        <ele>1237</ele>
        <time>2012-09-11T14:18:28Z</time>
      </trkpt>
      <trkpt lat="44.66043" lon="3.05064">
        <ele>1239</ele>
        <time>2012-09-11T14:18:39Z</time>
      </trkpt>
      <trkpt lat="44.66055" lon="3.0505">
        <ele>1238</ele>
        <time>2012-09-11T14:18:52Z</time>
      </trkpt>
      <trkpt lat="44.66066" lon="3.05033">
        <ele>1237</ele>
        <time>2012-09-11T14:19:05Z</time>
      </trkpt>
      <trkpt lat="44.66079" lon="3.05024">
        <ele>1239</ele>
        <time>2012-09-11T14:19:15Z</time>
      </trkpt>
      <trkpt lat="44.66092" lon="3.05012">
        <ele>1235</ele>
        <time>2012-09-11T14:19:27Z</time>
      </trkpt>
      <trkpt lat="44.66105" lon="3.05">
        <ele>1235</ele>
        <time>2012-09-11T14:19:39Z</time>
      </trkpt>
      <trkpt lat="44.66116" lon="3.04988">
        <ele>1236</ele>
        <time>2012-09-11T14:19:49Z</time>
      </trkpt>
      <trkpt lat="44.66125" lon="3.04976">
        <ele>1233</ele>
        <time>2012-09-11T14:19:59Z</time>
      </trkpt>
      <trkpt lat="44.6614" lon="3.0496">
        <ele>1234</ele>
        <time>2012-09-11T14:20:11Z</time>
      </trkpt>
      <trkpt lat="44.66146" lon="3.04949">
        <ele>1231</ele>
        <time>2012-09-11T14:20:23Z</time>
      </trkpt>
      <trkpt lat="44.66149" lon="3.04936">
        <ele>1228</ele>
        <time>2012-09-11T14:20:38Z</time>
      </trkpt>
      <trkpt lat="44.66145" lon="3.04938">
        <ele>1236</ele>
        <time>2012-09-11T14:20:53Z</time>
      </trkpt>
      <trkpt lat="44.66143" lon="3.04944">
        <ele>1236</ele>
        <time>2012-09-11T14:21:16Z</time>
      </trkpt>
      <trkpt lat="44.66141" lon="3.04951">
        <ele>1235</ele>
        <time>2012-09-11T14:21:44Z</time>
      </trkpt>
      <trkpt lat="44.66127" lon="3.04943">
        <ele>1235</ele>
        <time>2012-09-11T14:21:55Z</time>
      </trkpt>
      <trkpt lat="44.66163" lon="3.04962">
        <ele>1235</ele>
        <time>2012-09-11T14:24:32Z</time>
      </trkpt>
      <trkpt lat="44.66124" lon="3.04836">
        <ele>1235</ele>
        <time>2012-09-11T14:27:29Z</time>
      </trkpt>
      <trkpt lat="44.66137" lon="3.0484">
        <ele>1235</ele>
        <time>2012-09-11T14:27:47Z</time>
      </trkpt>
      <trkpt lat="44.66134" lon="3.04828">
        <ele>1235</ele>
        <time>2012-09-11T14:27:59Z</time>
      </trkpt>
      <trkpt lat="44.66136" lon="3.04898">
        <ele>1235</ele>
        <time>2012-09-11T14:28:10Z</time>
      </trkpt>
      <trkpt lat="44.66146" lon="3.04925">
        <ele>1235</ele>
        <time>2012-09-11T14:28:21Z</time>
      </trkpt>
      <trkpt lat="44.66153" lon="3.04945">
        <ele>1235</ele>
        <time>2012-09-11T14:28:32Z</time>
      </trkpt>
      <trkpt lat="44.66154" lon="3.04962">
        <ele>1235</ele>
        <time>2012-09-11T14:28:43Z</time>
      </trkpt>
      <trkpt lat="44.66156" lon="3.04947">
        <ele>1237</ele>
        <time>2012-09-11T14:28:54Z</time>
      </trkpt>
      <trkpt lat="44.66153" lon="3.04941">
        <ele>1239</ele>
        <time>2012-09-11T14:29:20Z</time>
      </trkpt>
      <trkpt lat="44.66155" lon="3.04937">
        <ele>1231</ele>
        <time>2012-09-11T14:29:31Z</time>
      </trkpt>
      <trkpt lat="44.66162" lon="3.04921">
        <ele>1229</ele>
        <time>2012-09-11T14:29:41Z</time>
      </trkpt>
      <trkpt lat="44.6616" lon="3.04898">
        <ele>1230</ele>
        <time>2012-09-11T14:29:56Z</time>
      </trkpt>
      <trkpt lat="44.66163" lon="3.0488">
        <ele>1231</ele>
        <time>2012-09-11T14:30:08Z</time>
      </trkpt>
      <trkpt lat="44.66163" lon="3.04859">
        <ele>1227</ele>
        <time>2012-09-11T14:30:21Z</time>
      </trkpt>
      <trkpt lat="44.66171" lon="3.04844">
        <ele>1228</ele>
        <time>2012-09-11T14:30:32Z</time>
      </trkpt>
      <trkpt lat="44.66174" lon="3.04836">
        <ele>1223</ele>
        <time>2012-09-11T14:30:46Z</time>
      </trkpt>
      <trkpt lat="44.66169" lon="3.04845">
        <ele>1227</ele>
        <time>2012-09-11T14:30:57Z</time>
      </trkpt>
      <trkpt lat="44.66164" lon="3.04827">
        <ele>1231</ele>
        <time>2012-09-11T14:31:09Z</time>
      </trkpt>
      <trkpt lat="44.66158" lon="3.0481">
        <ele>1231</ele>
        <time>2012-09-11T14:31:22Z</time>
      </trkpt>
      <trkpt lat="44.66156" lon="3.04796">
        <ele>1226</ele>
        <time>2012-09-11T14:31:34Z</time>
      </trkpt>
      <trkpt lat="44.66154" lon="3.04777">
        <ele>1230</ele>
        <time>2012-09-11T14:31:46Z</time>
      </trkpt>
      <trkpt lat="44.66149" lon="3.04765">
        <ele>1230</ele>
        <time>2012-09-11T14:31:56Z</time>
      </trkpt>
      <trkpt lat="44.66147" lon="3.04747">
        <ele>1227</ele>
        <time>2012-09-11T14:32:07Z</time>
      </trkpt>
      <trkpt lat="44.66142" lon="3.04726">
        <ele>1231</ele>
        <time>2012-09-11T14:32:19Z</time>
      </trkpt>
      <trkpt lat="44.66146" lon="3.04713">
        <ele>1229</ele>
        <time>2012-09-11T14:32:29Z</time>
      </trkpt>
      <trkpt lat="44.66147" lon="3.04694">
        <ele>1228</ele>
        <time>2012-09-11T14:32:41Z</time>
      </trkpt>
      <trkpt lat="44.66148" lon="3.04676">
        <ele>1231</ele>
        <time>2012-09-11T14:32:53Z</time>
      </trkpt>
      <trkpt lat="44.66152" lon="3.04659">
        <ele>1226</ele>
        <time>2012-09-11T14:33:04Z</time>
      </trkpt>
      <trkpt lat="44.66156" lon="3.04648">
        <ele>1230</ele>
        <time>2012-09-11T14:33:14Z</time>
      </trkpt>
      <trkpt lat="44.6616" lon="3.04636">
        <ele>1230</ele>
        <time>2012-09-11T14:33:25Z</time>
      </trkpt>
      <trkpt lat="44.66172" lon="3.0463">
        <ele>1225</ele>
        <time>2012-09-11T14:33:36Z</time>
      </trkpt>
      <trkpt lat="44.66178" lon="3.04629">
        <ele>1227</ele>
        <time>2012-09-11T14:33:49Z</time>
      </trkpt>
      <trkpt lat="44.66181" lon="3.04611">
        <ele>1228</ele>
        <time>2012-09-11T14:34:01Z</time>
      </trkpt>
      <trkpt lat="44.66184" lon="3.04593">
        <ele>1228</ele>
        <time>2012-09-11T14:34:12Z</time>
      </trkpt>
      <trkpt lat="44.66189" lon="3.04579">
        <ele>1228</ele>
        <time>2012-09-11T14:34:22Z</time>
      </trkpt>
      <trkpt lat="44.6618" lon="3.04563">
        <ele>1228</ele>
        <time>2012-09-11T14:34:33Z</time>
      </trkpt>
      <trkpt lat="44.66172" lon="3.04548">
        <ele>1228</ele>
        <time>2012-09-11T14:34:45Z</time>
      </trkpt>
      <trkpt lat="44.66167" lon="3.04536">
        <ele>1234</ele>
        <time>2012-09-11T14:34:55Z</time>
      </trkpt>
      <trkpt lat="44.66165" lon="3.0452">
        <ele>1235</ele>
        <time>2012-09-11T14:35:07Z</time>
      </trkpt>
      <trkpt lat="44.66169" lon="3.04498">
        <ele>1232</ele>
        <time>2012-09-11T14:35:21Z</time>
      </trkpt>
      <trkpt lat="44.66174" lon="3.04494">
        <ele>1232</ele>
        <time>2012-09-11T14:35:31Z</time>
      </trkpt>
      <trkpt lat="44.66172" lon="3.04516">
        <ele>1250</ele>
        <time>2012-09-11T14:43:23Z</time>
      </trkpt>
      <trkpt lat="44.66185" lon="3.04513">
        <ele>1230</ele>
        <time>2012-09-11T14:43:34Z</time>
      </trkpt>
      <trkpt lat="44.66164" lon="3.04488">
        <ele>1227</ele>
        <time>2012-09-11T14:43:44Z</time>
      </trkpt>
    </trkseg>
  </trk>
</gpx>